Health Canada
Symbol of the Government of Canada

Common menu bar links

Environmental and Workplace Health

List of Active Claims for Exemption

Help on accessing alternative formats, such as Portable Document Format (PDF), Microsoft Word and PowerPoint (PPT) files, can be obtained in the alternate format help section.

The information in this table is a summary of active claims for exemption that have been filed under the Hazardous Materials Information Review Act. Details of each claim have been published in Part 1: Notices and Proposed Regulations of the Next link will take you to another Web site Canada Gazette and the publication dates are included in the table.

Information in the table is accurate on the preparation date and will be updated as new notices of filings and decisions are published in the Canada Gazette.

Should you have any questions or feedback regarding the information posted on this page, please contact WHMIS-SIMDUT.conf@hc-sc.gc.ca.

Table - List of Active Claims for Exemption
Claimant Name Reg # Product ID NoF DateFootnote* NoD DateFootnote? Expiry Date

Footnotes

Footnote 1

Date Notice of Filing was published in the Canada Gazette; Dates are hyperlinked to the relevant Canada Gazette articles

Return to footnote * referrer

Footnote 2

Date Notice of Decisions was published in the Canada Gazette: "Dec Pend" = decision pending

Return to footnote ? referrer

3M Canada Company 8325 3M™ Anisotropic Conductive Film 7379 2011-09-24 2014-02-22 2017-04-08
3M Canada Company 8471 3M™ Scotchkote Epoxy Coating 152LV (Part B) 2012-02-18 2014-03-29 2017-05-13
3M Canada Company 8473 SCOTCHCAST RESIN 4 PART B 2012-02-18 2014-02-22 2017-04-08
3M Canada Company 8486 3M™ Super Weatherstrip and Gasket Adhesive - Black, P.N. 08008 2012-02-18 2014-08-02 2017-09-16
3M Canada Company 8516 3M™ Heavy Duty Wheel Cleaner PN 38374, 38375 2012-04-28 2014-02-22 2017-04-08
3M Canada Company 8541 3M™ SCOTCH-WELD™ EPOXY ADHESIVE DP-460 NS (Part A) 2012-04-28 2014-02-22 2017-04-08
3M Canada Company 8544 3M™ SCOTCH-WELD™ EPOXY ADHESIVE 420 B/A, OFF-WHITE (PART A) 2012-04-28 2014-02-22 2017-04-08
3M Canada Company 8566 3M™ Scotch-Weld™ Epoxy Adhesive 460 B/A, Off-White (Part A) 2012-04-28 2014-02-22 2017-04-08
3M Canada Company 8578 SCOTCH-WELD™ STRUCTURAL PLASTIC ADHESIVE 8010 NS, (PART B) 2012-04-28 2014-03-29 2017-05-13
3M Canada Company 8584 Scotchcast Electrical Resin 275 2012-04-28 2014-08-02 2017-09-16
3M Canada Company 8590 3M™ AUTOMIX™ PANEL BONDING ADHESIVE, PART A (P.N. 08115) 2012-06-30 2014-08-02 2017-09-16
3M Canada Company 8612 3M™ SCREEN PRINTABLE ADHESIVE SP-7555 2012-06-30 2014-03-29 2017-05-13
3M Canada Company 8613 3M™ DEVELOPMENTAL MATERIAL AHS-1519 2012-06-30 2014-02-22 2017-04-08
3M Canada Company 8615 3M™ DEVELOPMENTAL MATERIAL AHS-1523 2012-06-30 2014-02-22 2017-04-08
3M Canada Company 8620 3M™ Dynatron Liquid Hardener 609 2012-06-30 2014-08-02 2017-09-16
3M Canada Company 8621 3M™ Bondo Traffic MEKP Hardener 5, 7 2012-06-30 2014-08-02 2017-09-16
3M Canada Company 8683 3M™ UV Gloss Clear Coat 9740i 2012-09-22 2015-01-31 2018-03-17
3M Canada Company 8688 3M™ SMC/Fiberglass Repair Adhesive-1 PN08270 Part A 2012-09-22 2014-08-02 2017-09-16
3M Canada Company 8689 3M™ SMC/Fiberglass Repair Adhesive-1 PN08270 Part B 2012-09-22 2014-08-02 2017-09-16
3M Canada Company 8742 3M™ Protective Material PM-2050 2012-12-01 2015-01-31 2018-03-17
3M Canada Company 8751 3M™ Panel Bonding Adhesive PN 38315, 58115 - Part A 2012-12-01 2014-08-02 2017-09-16
3M Canada Company 8770 3M™ SCOTCH-WELD™ STRUCTURAL PLASTIC ADHESIVE 8010, Part B 2012-12-01 2015-01-31 2018-03-17
3M Canada Company 8785 3M™ SCOTCH-WELD™ EPOXY ADHESIVE EC-2615 B/A (PART A) 2013-02-23 2015-01-31 2018-03-17
3M Canada Company 8810 Scotchkote 6233P 4G, 8G, and 11G Fusion Bonded Epoxy Coating 2013-02-23 2015-01-31 2018-03-17
3M Canada Company 8818 AHS-1517 bulk spray adhesive 2013-02-23 2014-08-02 2017-09-16
3M Canada Company 8833 3M™ FAST TACK WATER BASED ADHESIVE 1000NF, PURPLE 2013-02-23 2014-08-02 2017-09-16
3M Canada Company 8834 3M™ FAST TACK WATER BASED ADHESIVE 1000NF, NEUTRAL 2013-02-23 2014-08-02 2017-09-16
3M Canada Company 8870 3M™ HEAVY DUTY MULTI-SURFACE CLEANER Concentrate (Twist 'n Fill™ Product No. 2) 2013-09-14 2014-08-02 2017-09-16
3M Canada Company 8873 SCOTCHKOTE 207R Rough Overcoating 2013-09-14 2015-01-31 2018-03-17
3M Canada Company 8877 SCOTCH-WELD™ STRUCTURAL ADHESIVE FILM, AF 163-2 2013-09-14 2015-01-31 2018-03-17
3M Canada Company 8881 SCOTCHKOTE 413 SPRAY GRADE FUSION BANDED EPOXY COATING 2013-09-14 2015-03-28 2018-05-12
3M Canada Company 8885 3M™ Anisotropic Conductive Film 7376-30 2013-09-14 2015-10-24 2018-12-08
3M Canada Company 8901 Scotchkote 626-155 Fusion Bonded Epoxy Coating 2013-09-14 2015-03-28 2018-05-12
3M Canada Company 8974 3M™ 8805UV Black Piezo Inkjet Ink 2013-09-14 2015-01-31 2018-03-17
3M Canada Company 9010 3M™ ADHESION PROMOTER 2014-01-25 2015-07-25 2018-09-08
3M Canada Company 9112 3M™ Scotch-Weld™ Low Odor Acrylic Adhesive DP8810NS Off-White, Part B 2014-04-26 2015-07-25 2018-09-08
3M Canada Company 9114 3M™ Scotch-Weld™ Low Odor Acrylic Adhesive DP8805NS, Green, Part B 2014-04-26 2015-07-25 2018-09-08
3M Canada Company 9186 SCOTCHGARD™ EXTRACTION CLEANER (CONCENTRATE) (PRODUCT NO. 27, TWIST 'N FILL™ SYSTEM) 2014-04-26 Dec Pend
3M Canada Company 9205 3M™ SMC/Fiberglass Repair (90 Minutes) Adhesive PN 08274 - Accelerator 2014-07-19 2016-01-16 2019-03-01
3M Canada Company 9208 3M™ Fire Barrier Rated Foam, FIP, 1-Step Part A 2014-07-19 2016-01-16 2019-03-01
3M Canada Company 9216 3M™ Hybrid Sealant 730, Clear 2014-07-19 Dec Pend
3M Canada Company 9217 3M™ PRIMER 94 2014-07-19 Dec Pend
3M Canada Company 9236 3M™ Scotch-Weld™ Acrylic Adhesive DP8410NS Green, Part B 2014-07-19 Dec Pend
3M Canada Company 9245 Scotchkote 626-120 Fusion Bonded Epoxy Coating 2014-07-19 Dec Pend
3M Canada Company 9247 Scotchkote 726 Low Temperature Cure Fusion Bonded Epoxy Resin 2014-07-19 Dec Pend
3M Canada Company 9358 3M™ Scotch-Weld™ Structural Plastic Adhesive DP8005, Part B 2015-01-31 2015-10-24 2018-12-08
3M Canada Company 9359 3M™ Scotch-Weld™ Structural Plastic Adhesive 8005, Black, Part B 2015-01-31 2015-10-24 2018-12-08
3M Canada Company 9361 3M™ Scotch-Weld™ Structural Plastic Adhesive DP8005, Black, Part B 2015-01-31 2015-10-24 2018-12-08
3M Canada Company 9373 3M™ Impact Resistant Structural Adhesive Part A, Pns 07333, 57333 2015-04-25 2016-01-16 2019-03-01
3M Canada Company 9428 3M™ 8805UV Black Piezo InkJet Ink 2015-04-25 Dec Pend
3M Canada Company 9440 3M™ Scotch-Weld™ Acrylic Adhesive DP8425NS Green and Acrylic Adhesive 8425NS Green, Part B 2015-04-25 Dec Pend
3M Canada Company 9441 3M™ Scotch-Weld™ Low Odor Acrylic Adhesive DP8825NS Green and Low Odor Acrylic Adhesive 8825NS Green Part B 2015-04-25 Dec Pend
3M Canada Company 9488 3M™ SMC/Fiberglass Repair Adhesive-3 PN 08271 Part A 2015-07-25 Dec Pend
3M Canada Company 9489 3M™ Universal Adhesive Black-3 Part A 2015-07-25 Dec Pend
3M Canada Company 9490 3M™ SMC/Fiberglass Repair Adhesive Black-1 PN 08243 and 08251 Part A 2015-07-25 Dec Pend
3M Canada Company 9491 3M™ Semi-Rigid Parts Repair Adhesive-3 PN 08237 Part A 2015-07-25 Dec Pend
3M Canada Company 9492 3M™ SMC/Fiberglass Repair Adhesive-10 PN 08272 Part A 2015-07-25 Dec Pend
3M Canada Company 9493 3M™ Fiberglass Mat Adhesive PN 08277 Part A 2015-07-25 Dec Pend
3M Canada Company 9496 3M™ SCREEN PRINTING UV INK SERIES 9828 TRANSPARENT RED (YS) 2015-07-25 Dec Pend
3M Canada Company 9497 3M™ SCREEN PRINTING UV INK SERIES 9830 ORANGE 2015-07-25 Dec Pend
3M Canada Company 9498 3M™ SCREEN PRINTING UV INK SERIES 9831 TRANSPARENT ORANGE 2015-07-25 Dec Pend
3M Canada Company 9499 3M™ SCREEN PRINTING UV INK SERIES 9840 TRANSPARENT MEDIUM YELLOW 2015-07-25 Dec Pend
3M Canada Company 9500 3M™ SCREEN PRINTING UV INK SERIES 9843 MEDIUM YELLOW 2015-07-25 Dec Pend
3M Canada Company 9501 9845 Process Yellow 2015-07-25 Dec Pend
3M Canada Company 9502 3M™ SCREEN PRINTING UV INK SERIES 9848 TRANSPARENT YELLOW 2015-07-25 Dec Pend
3M Canada Company 9503 3M™ SCREEN PRINTING UV INK SERIES 9849 LEMON YELLOW 2015-07-25 Dec Pend
3M Canada Company 9508 3M™ SCREEN PRINTING UV INK 9808 OPAQUE WHITE 2015-07-25 Dec Pend
3M Canada Company 9509 3M™ SCREEN PRINTING UV INK 9806 MIXING WHITE 2015-07-25 Dec Pend
3M Canada Company 9516 3M™ SCREEN PRINTING UV INK SERIES 9800 PROCESS BASE 2015-07-25 Dec Pend
3M Canada Company 9517 3M™ SCREEN PRINTING UV INK 9802 OPAQUE BLACK 2015-07-25 Dec Pend
3M Canada Company 9518 3M™ SCREEN PRINTING UV INK 9803 MIXING BLACK 2015-07-25 Dec Pend
3M Canada Company 9520 3M™ SCREEN PRINTING UV INK SERIES 9805 Process Black 2015-07-25 Dec Pend
3M Canada Company 9521 3M™ SCREEN PRINTING UV INK SERIES 9826 BRICK RED 2015-07-25 Dec Pend
3M Canada Company 9522 3M™ SCREEN PRINTING UV INK SERIES 9827 RED 2015-07-25 Dec Pend
3M Canada Company 9523 3M™ SCREEN PRINTINGUV INK SERIES 9861 LIGHT GREEN 2015-07-25 Dec Pend
3M Canada Company 9524 3M™ SCREEN PRINTING UV INK SERIES 9875 Process Cyan 2015-07-25 Dec Pend
3M Canada Company 9525 3M™ SCREEN PRINTING UV INK SERIES 9879 BLUE (GS) 2015-07-25 Dec Pend
3M Canada Company 9526 3M™ SCREEN PRINTING UV INK 9812 MAGENTA 2015-07-25 Dec Pend
3M Canada Company 9527 3M™ SCREEN PRINTING UV INK 9813 RED VIOLET 2015-07-25 Dec Pend
3M Canada Company 9528 3M™ SCREEN PRINTING UV INK 9825 TRANSPARENT RED (BS) 2015-07-25 Dec Pend
3M Canada Company 9529 3M™ SCREEN PRINTING UV INK 9882 TRANSPARENT BLUE 2015-07-25 Dec Pend
3M Canada Company 9530 3M™ SCREEN PRINTINGUV INK SERIES 9891 BLUE VIOLET 2015-07-25 Dec Pend
3M Canada Company 9531 3M™ SCREEN PRINTING UV INK SERIES 9800CL SCREEN PRINT CLEAR 2015-07-25 Dec Pend
3M Canada Company 9532 3M™ SCREEN PRINTING UV INK 9810 UV TONER 2015-07-25 Dec Pend
3M Canada Company 9533 3M™ Screen Printing UV Ink Series 9815P Process Magenta 2015-07-25 Dec Pend
3M Canada Company 9543 3M FR-Protective Coat 9040 Hardener 2015-07-25 Dec Pend
3M Canada Company 9558 3M Fire Retardant Protective Coating - 9041 Hardener 2015-11-07 Dec Pend
3M Canada Company 9598 3M FR-Protective Coat 9010 Sealer 2015-11-07 Dec Pend
3M Canada Company 9599 3M FR-Protective Coat 9020CL Base 2015-11-07 Dec Pend
3M Canada Company 9603 3M Fire Retardant Protective Coating - 9030 Top 2015-11-07 Dec Pend
3M Canada Company 9631 3M Fire Retardant Protective Coating - 9025 Pigment Base 2015-11-07 Dec Pend
3M Canada Company 9681 3M Fire Retardant Protective Coating - 9031 Top Coat - Close Grain Satin 2016-01-23 Dec Pend
3M Canada Company 9728 3M™ Blue Cream Hardener (Manufactured for 3M by Raichem) 2016-03-26 Dec Pend
3M Canada Company 9729 3M™ SANDBLAST FILLER 3 2016-03-26 Dec Pend
3M Canada Company 9730 3M™ Scotch-Weld™ Core Splicer Adhesive EC-3500 B/A Part A 2016-03-26 Dec Pend
3M Canada Company 9731 3M™ Silicone Spray - CA 2016-03-26 Dec Pend
3M Canada Company 9732 3M™ Bondo(R) AutoBody Filler 310C 2016-03-26 Dec Pend
3M Canada Company 9733 3M™ Scotch-Weld™ Epoxy Adhesive 1838L Translucent Part A 2016-03-26 Dec Pend
3M Canada Company 9734 3M™ Scotch-Weld™ Structural Void Filling Compound EC-3460 HT/FST 2016-03-26 Dec Pend
3M Canada Company 9735 3M™ Dynatron(R) Dynalite Filler 492 2016-03-26 Dec Pend
3M Canada Company 9736 3M™ Scotch-Weld™ Epoxy Adhesive DP420 Off-White, Part A 2016-03-26 Dec Pend
3M Canada Company 9737 3M™ Dynatron(R) Dynalite Filler 494 2016-03-26 Dec Pend
3M Canada Company 9738 3M™ Dynatron(R) Dynalite Filler 496 2016-03-26 Dec Pend
3M Canada Company 9739 3M™ Scotch-Weld™ Epoxy Adhesive DP420, Off-White (Part B) 2016-03-26 Dec Pend
3M Canada Company 9740 3M™ Scotch-Weld™ Polyurethane Sealant DP5001 Black, Part B 2016-03-26 Dec Pend
3M Canada Company 9741 3M™ Super 77™ Adhesive, Bulk 2016-03-26 Dec Pend
3M Canada Company 9742 3M™ Bondo Lightweight Body Filler 261C 2016-03-26 Dec Pend
3M Canada Company 9743 3M™ Bondo Lightweight Body Filler 262C 2016-03-26 Dec Pend
3M Canada Company 9744 3M™ Bondo Lightweight Body Filler 265C 2016-03-26 Dec Pend
3M Canada Company 9745 3M™ Rubber and Gasket Adhesive 4799 2016-03-26 Dec Pend
3M Canada Company 9746 3M™ Hi-Strength 92 Bulk Adhesive, Clear 2016-03-26 Dec Pend
3M Canada Company 9747 3M™ 991 Thinner 2016-03-26 Dec Pend
3M Canada Company 9748 3M™ Scotch-Weld™ Fuel Resistant Coating EC-776 2016-03-26 Dec Pend
3M Canada Company 9749 3M™ PLASTIC ADHESIVE EC-1458 2016-03-26 Dec Pend
3M Canada Company 9750 3M™ Wind Epoxy Filler W3120, 10 min Part B 2016-03-26 Dec Pend
3M Canada Company 9751 3M™ Scotch-Weld™ Structural Adhesive Primer EC-1593 2016-03-26 Dec Pend
3M Canada Company 9752 3M™ FASTENER ADHESIVE 2510 ORANGE 2016-03-26 Dec Pend
3M Canada Company 9753 3M™ FASTENER ADHESIVE 2353 BLUE 2016-03-26 Dec Pend
3M Canada Company 9754 6045 SERIES STRUCTURAL ADHESIVE FILM 2016-03-26 Dec Pend
3M Canada Company 9755 3M™ Scotch-Weld™ Structural Void Filling Compound 3584 B/A: Part A 2016-03-26 Dec Pend
3M Canada Company 9756 3M™ Controltac™ Adhesive Remover R231 2016-03-26 Dec Pend
3M Canada Company 9757 3M™ Stamark™ Low VOC Surface Preparation Adhesive SPA60 Cylinder Spray 2016-03-26 Dec Pend
3M Canada Company 9758 3M™ Stamark™ Low VOC Surface Preparation Adhesive SPA60 Fragrance Free (Bulk) 2016-03-26 Dec Pend
3M Canada Company 9759 3M™ 4430R CLEAR-PART A 2016-03-26 Dec Pend
3M Canada Company 9760 3M™ Scotch-Weld™ Urethane Adhesive DP620NS Black, Part B 2016-03-26 Dec Pend
3M Canada Company 9761 3M™ 4430R Clear - Part B 2016-03-26 Dec Pend
3M Canada Company 9762 SUPER-CLEAR LENS CLEANING TOWELETTES 2016-03-26 Dec Pend
3M Canada Company 9763 3M™ Scotch-Weld™ Urethane Adhesive 620NS, Part B 2016-03-26 Dec Pend
3M Canada Company 9764 3M™ Scotch-Weld™ Epoxy Adhesive DP420NS Black, Part A 2016-03-26 Dec Pend
3M Canada Company 9765 3M™ Scotch-Weld™ Epoxy Adhesive 420NS Black, Part A 2016-03-26 Dec Pend
3M Canada Company 9766 3M Scotchkote Urethane Coating 362HT (Part B) 2016-03-26 Dec Pend
3M Canada Company 9767 3M™ Structural Bonding Tape 9270 with Components 2016-03-26 Dec Pend
3M Canada Company 9768 3M™ Bondo Red Cream Hardener 913C 2016-03-26 Dec Pend
3M Canada Company 9769 3M Scotchkote Epoxy Ceramic Surfacer FG 512, Blue (Part A) 2016-03-26 Dec Pend
3M Canada Company 9770 Scotchrap™ Pipe Primer 2016-03-26 Dec Pend
3M Canada Company 9771 3M FIRE BARRIER WATERTIGHT SEALANT 3000 WT 2016-03-26 Dec Pend
3M Canada Company 9772 StarStuk HNF 80 2016-03-26 Dec Pend
3M Canada Company 9773 3M™ Scotch-Weld™ Epoxy Adhesive 420NS Black, Part B 2016-03-26 Dec Pend
3M Canada Company 9774 3M™ Scotch-Weld™ Epoxy Adhesive DP420NS Black,Part B 2016-03-26 Dec Pend
3M Canada Company 9775 3M™ Repositionable Spray Adhesive 75 2016-03-26 Dec Pend
3M Canada Company 9776 3M™ Scotch-Weld™ Structural Void Filling Compound 3584 B/A: Part B 2016-03-26 Dec Pend
3M Canada Company 9777 3M™ Scotch-Weld™ Low Odor Acrylic Adhesive DP810NS Tan, Part B 2016-03-26 Dec Pend
3M Canada Company 9778 3M™ Scotch-Weld™ Low Odor Acrylic Adhesive 810NS Tan, Part B 2016-03-26 Dec Pend
3M Canada Company 9779 3M™ Ten Bond Contact Cement 2016-03-26 Dec Pend
3M Canada Company 9780 SUPER 77 AEROSOL SPRAY LOW 25% VOC 2016-03-26 Dec Pend
3M Canada Company 9781 3M™ Scotch-Weld™ Low Odor Acrylic Adhesive DP810NS Tan, Part A 2016-03-26 Dec Pend
3M Canada Company 9782 3M™ Scotch-Weld™ Low Odor Acrylic Adhesive 810NS Tan, Part A 2016-03-26 Dec Pend
3M Canada Company 9796 3M™ Impact Protection Adhesive Black 2016-03-26 Dec Pend
3M Canada Company 9797 3M Scotchkote Epoxy Ceramic Surfacer FG512 (Part B) 2016-03-26 Dec Pend
3M Canada Company 9803 3M™ Bondo(R) Glazing & Spot Putty 650 2016-03-26 Dec Pend
3M Canada Company 9804 3M™ Bondo(R) Glazing & Spot Putty 907C 2016-03-26 Dec Pend
3M Canada Company 9811 SCOTCHKOTE 323 P Patch Compound, Part B 2016-03-26 Dec Pend
3M Canada Company 9812 3M™ Wind Epoxy Filler W3120, 10 min, Part A 2016-03-26 Dec Pend
3M Canada Company 9813 3M Scotchkote Urethane Coating 362HT, Grey (Part A) 2016-03-26 Dec Pend
3M Canada Company 9814 SCOTCHKOTE 323 P Patch Compound, Part A 2016-03-26 Dec Pend
3M Canada Company 9817 3M™ Scotch-Weld™ Urethane Adhesive 620NS Black, Part A 2016-03-26 Dec Pend
3M Canada Company 9818 3M™ Industrial Plastic Adhesive 4475 2016-03-26 Dec Pend
3M Canada Company 9819 3M™ Scotch-Weld™ Concrete Repair 600NS Gray, Part A 2016-03-26 Dec Pend
3M Canada Company 9820 3M™ Scotch-Weld™ Concrete Repair DP600NS Gray, Part A 2016-03-26 Dec Pend
3M Canada Company 9821 3M™ Scotch-Weld™ Urethane Adhesive DP620NS Black, Part A 2016-03-26 Dec Pend
3M Canada Company 9822 3M™ Scotch-Weld™ Epoxy Adhesive EC-2815 B/A FR Part A 2016-03-26 Dec Pend
3M Canada Company 9823 3M™ Scotch-Weld™ Epoxy Adhesive EC-2815 B/A FR Part B 2016-03-26 Dec Pend
3M Canada Company 9829 3M™ THREAD SEALANT 4291 2016-03-26 Dec Pend
3M Canada Company 9844 3M™ Neutral Cleaner Concentrate (Product No. 3, 3M™ Chemical Management Systems) 2016-03-26 Dec Pend
3M Canada Company 9855 3M™ FASTENER ADHESIVE 2353Y YELLOW 2016-07-30 Dec Pend
3M Canada Company 9859 3M™ AEROSPACE SEALANT AC-370 B-2 CATALYST 2016-07-30 Dec Pend
3M Canada Company 9860 3M™ AEROSPACE SEALANT AC-730 B-2 CATALYST 2016-07-30 Dec Pend
3M Canada Company 9861 3M™ AEROSPACE SEALANT AC-350 B-2 CATALYST 2016-07-30 Dec Pend
3M Canada Company 9876 3M™ PIEZO INK JET INK 4895 BLACK 2016-07-30 Dec Pend
3M Canada Company 9877 3M™ PIEZO INK JET INK 4896 CYAN 2016-07-30 Dec Pend
3M Canada Company 9878 3M™ PIEZO INK JET INK 4886 LIGHT CYAN 2016-07-30 Dec Pend
3M Canada Company 9879 3M™ PIEZO INK JET INK 4891 MAGENTA 2016-07-30 Dec Pend
3M Canada Company 9880 3M™ PIEZO INK JET INK 4892 YELLOW 2016-07-30 Dec Pend
3M Canada Company 9895 3M™ AEROSPACE SEALANT AC-665 C-12 BASE 2016-07-30 Dec Pend
3M Canada Company 9896 3M™ AEROPACE SEALANT AC-665 C-24 BASE 2016-07-30 Dec Pend
3M Canada Company 9897 3M™ AEROSPACE SEALANT AC-665 C-48 BASE 2016-07-30 Dec Pend
3M Canada Company 9898 3M™ AEROSPACE SEALANT AC-370 B-1/2 CATALYST 2016-07-30 Dec Pend
3M Canada Company 9899 3M™ AEROSPACE SEALANT AC-730 B-1/2 CATALYST 2016-07-30 Dec Pend
3M Canada Company 9900 3M™ AEROSPACE SEALANT AC-360 B-2 CATALYST 2016-07-30 Dec Pend
3M Canada Company 9901 3M™ Scotch-Weld™ Structural Adhesive Primer EC-1660 (5% Solids) 2016-07-30 Dec Pend
3M Canada Company 9902 3M™ Scotch-Weld™ Hi-Temp Sealer EC-1137 2016-07-30 Dec Pend
3M Canada Company 9903 3M™ AVIATION RUBBING COMPOUND PN98544 2016-07-30 Dec Pend
3M Canada Company 9904 3M™ SCOTCH-WELD™ TOUGHENED EPOXY ADHESIVE LSB60, GRAY, PART B 2016-07-30 Dec Pend
3M Canada Company 9905 3M™ SCOTCH-WELD™ TOUGHENED EPOXY ADHESIVE LSB60, GRAY, PART A 2016-07-30 Dec Pend
3M Canada Company 9906 3M™ super 77 Spray Adhesive 2016-07-30 Dec Pend
3M Canada Company 9907 3M™ SCOTCH-WELD™ EPOXY ADHESIVE EC-2615 B/A PART B 2016-07-30 Dec Pend
3M Canada Company 9908 3M™ AEROSPACE SEALANT AC-380 B1-1/2 CATALYST 2016-07-30 Dec Pend
3M Canada Company 9909 3M™ SAFETY-WALK™ BRAND EDGE SEALING COMPOUND 2016-07-30 Dec Pend
3M Canada Company 9910 3M™ SkyRestore™ by Elixair Cured Sealant Remover 306 2016-07-30 Dec Pend
3M Canada Company 9911 3M™ SkyRestore™ Gel by Elixair Cured Sealant Remover 307 2016-07-30 Dec Pend
3M Canada Company 9912 3M™ Scotch-Weld™ Epoxy Adhesive 460 Black, Part B 2016-07-30 Dec Pend
3M Canada Company 9913 3M™ Hybrid Adhesive Sealant Fast Cure 4000 UV, White 2016-07-30 Dec Pend
3M Canada Company 9914 3M™ Marine Adhesive Sealant Fast Cure 4000 UV, White, PN05280 2016-07-30 Dec Pend
3M Canada Company 9915 3M™ Scotch-Weld™ Epoxy Adhesive DP420LH, Off-White (Part B) 2016-07-30 Dec Pend
3M Canada Company 9916 3M™ Scotch-Weld™ Epoxy Adhesive 460 Off-White, Part B 2016-07-30 Dec Pend
3M Canada Company 9917 3M™ Scotch-Weld™ Epoxy Adhesive DP405LH Off-White, Part A 2016-07-30 Dec Pend
3M Canada Company 9918 3M™ Scotch-Weld™ Epoxy Adhesive DP405 Black, Part A 2016-07-30 Dec Pend
3M Canada Company 9919 3M™ Scothc-Weld™ Epoxy Adhesive DP405 Black, Part B 2016-07-30 Dec Pend
3M Canada Company 9920 3M™ Scotch-Weld™ Contact Rubber Adhesive 1300L TF High Temperature 2016-07-30 Dec Pend
3M Canada Company 9921 Scotchkote 6233P 8G Fusion Bonded Epoxy Coating 2016-07-30 Dec Pend
3M Canada Company 9922 3M™ Scotchlite™ Transparent Screen Printing Ink 2907 Toner 2016-07-30 Dec Pend
3M Canada Company 9923 3M™ NOVEC™ CONTACT CLEANER / LUBRICANT 2016-07-30 Dec Pend
3M Canada Company 9924 3M™ Roll Coat Colour 4812V White 2016-07-30 Dec Pend
3M Canada Company 9925 3M™ NOVEC ™ ELECTRONIC DEGREASER 2016-07-30 Dec Pend
3M Canada Company 9926 Scotchgard™ UHS 25 Floor Finish 2016-07-30 Dec Pend
3M Canada Company 9927 3M™ Novec™ Contact Cleaner Plus 2016-07-30 Dec Pend
3M Canada Company 9928 3M™ NOVEC™ FLUX REMOVER 2016-07-30 Dec Pend
3M Canada Company 9929 3M™ Roll Coat Colour 4902V Dark Red 2016-07-30 Dec Pend
3M Canada Company 9930 3M Scotchkote Pipe Renewal Liner 2400 Part A (Base) 2016-07-30 Dec Pend
3M Canada Company 9931 3M™ Scotchcast™ Electrical Resin 5 part B 2016-07-30 Dec Pend
3M Canada Company 9932 3M Scotchkote Pipe Renewal Liner 2400 Part B (Activator) 2016-07-30 Dec Pend
3M Canada Company 9933 ARMORCAST STRUCTURAL MATERIAL FOR 4560, 4561, AND FSC KITS 2016-07-30 Dec Pend
3M Canada Company 9934 3M 16-102 QUICK DRYING CONTACT CLEANER 2016-07-30 Dec Pend
3M Canada Company 9942 NRS RUBBER ADHESIVE 2016-07-30 Dec Pend
3M Canada Company 9944 Scotchcast 3570G-N (Part A) 2016-07-30 Dec Pend
3M Canada Company 9945 3M™ AEROSPACE SEALANT AC-770 B-2 CATALYST 2016-07-30 Dec Pend
3M Canada Company 9946 3M™ Scotch-Weld™ Epoxy Adhesive DP420LH Off-White, Part A 2016-07-30 Dec Pend
3M Canada Company 9947 3M™ Scotch-Weld™ Epoxy Adhesive 420 Off-white, Part A 2016-07-30 Dec Pend
3M Canada Company 9948 3M™ Scotch-Weld™ Epoxy Adhesive DP420 Black, Part A 2016-07-30 Dec Pend
3M Canada Company 9949 3M™ Scotch-Weld™ Epoxy Adhesive 460 Black, Part A 2016-07-30 Dec Pend
3M Canada Company 9973 3M™ Rocker Panel Coating, PN 08889 2016-07-30 Dec Pend
3M Canada Company 9982 3M™ Car Wash Soap, 38079 2016-07-30 Dec Pend
3M Canada Company 9983 3M™ Car Wash Soap, 38378 2016-07-30 Dec Pend
3M Canada Company 9984 3M™ Car Wash Soap, 38377 2016-07-30 Dec Pend
3M Canada Company 9994 3M™ Scotch-Weld™ Adhesive EC-4419 2016-07-30 Dec Pend
3M Canada Company 9995 3M™ Platinum Plus Filler for DMS PN 05863 2016-07-30 Dec Pend
3M Canada Company 9996 3M™ Dynatron(R) Xtra Glaze PN 1097 2016-07-30 Dec Pend
3M Canada Company 9997 3M™ Advanced Finishing Glaze PN 05821 2016-07-30 Dec Pend
3M Canada Company 10021 3M™ Scotchkast™ 3570G-N (Part B) 2016-07-30 Dec Pend
3M Canada Company 10075 3M™ W9910 WIND TAPE ADHESION PROMOTER 2016-07-30 Dec Pend
3M Canada Company 10076 3M™ Marine Adhesive Sealant Fast Cure 5200, White; PN 06520 2016-07-30 Dec Pend
3M Canada Company 10077 3M™ Marine Adhesive Sealant Fast Cure 5200, White; PN 05220 2016-07-30 Dec Pend
3M Canada Company 10078 3M™ Marine Adhesive Sealant Fast Cure 5200, White; PN 06534 2016-07-30 Dec Pend
3M Canada Company 10079 3M™ Marine Adhesive Sealant Fast Cure 5200, White; PN 06535 2016-07-30 Dec Pend
3M Canada Company 10080 3M™ Scotch-Weld™ Epoxy Adhesive DP125 Translucent, Part A 2016-07-30 Dec Pend
3M Canada Company 10081 3M™ Scotch-Weld™ Epoxy Adhesive DP125 Translucent, Part B 2016-07-30 Dec Pend
3M Canada Company 10082 3M™ Fastbond™ Spray Activator #1 2016-07-30 Dec Pend
3M Canada Company 10083 3M™ Scotch-Weld™ Epoxy Adhesive 1838 Green Part B 2016-07-30 Dec Pend
3M Canada Company 10084 3M™ Scotch-Weld™ Epoxy Adhesive 1838 Green Part A 2016-07-30 Dec Pend
3M Canada Company 10085 3M™ Scotch-Weld™ Epoxy Adhesive DP105 Clear, Part B 2016-07-30 Dec Pend
3M Canada Company 10086 3M™ Scotch-Weld™ Epoxy Adhesive DP100 Clear, Part A 2016-07-30 Dec Pend
3M Canada Company 10087 3M™ Contact Adhesive 10, Light Yellow 2016-07-30 Dec Pend
3M Canada Company 10088 3M™ Scotch-Weld™ Epoxy Adhesive DP190 Gray, Part A 2016-07-30 Dec Pend
3M Canada Company 10089 3M™ Solvent No. 2 2016-07-30 Dec Pend
3M Canada Company 10090 3M™ Scotch-Weld™ Epoxy Adhesive DP420 Black, Part B 2016-07-30 Dec Pend
3M Canada Company 10091 3M™ AEROSPACE SEALANT AC-730 C-8 CATALYST 2016-07-30 Dec Pend
3M Canada Company 10092 3M™ AEROSPACE SEALANT AC-665 B-1/2 CATALYST 2016-07-30 Dec Pend
3M Canada Company 10093 3M™ Scotch-Weld™ Epoxy Adhesive EC-3333 B/A Part A 2016-07-30 Dec Pend
3M Canada Company 10094 3M™ Scotch-Weld™ Epoxy Adhesive EC-3333 B/A Part B 2016-07-30 Dec Pend
3M Canada Company 10095 3M™ Scotch-Weld™ Fuel Resistant Coating EC-776SR 2016-07-30 Dec Pend
3M Canada Company 10096 3M™ Scotch-Weld™ Structural Adhesive Primer 2333 Yellow 2016-07-30 Dec Pend
3M Canada Company 10097 3M™ Polyurethane Adhesive Sealant Accelerator AC61 2016-07-30 Dec Pend
3M Canada Company 10098 3M™ Adhesive Sealant AC61 Accelerator 2016-07-30 Dec Pend
3M Canada Company 10099 SCOTCH-WELD™ EPOXY ADHESIVE DP-100 NS, TRANSLUCENT (PART A) 2016-07-30 Dec Pend
3M Canada Company 10100 3M™ Scotch-Weld™ Low Odor Acrylic Adhesive DP8810NS Green, Part A 2016-07-30 Dec Pend
3M Canada Company 10101 SCOTCH-WELD™ EPOXY ADHESIVE DP-100 NS, TRANSLUCENT (PART B) 2016-07-30 Dec Pend
3M Canada Company 10102 3M™ Scotch-Weld™ Structural Epoxy Adhesive 7260 B/A: Part A 2016-07-30 Dec Pend
3M Canada Company 10103 3M™ Thinner CGS-60 2016-07-30 Dec Pend
3M Canada Company 10104 3M™ Screen Printing UV Ink 9801 Thinner 2016-07-30 Dec Pend
3M Canada Company 10105 SCOTCHCAST RESIN 4 PART A 2016-07-30 Dec Pend
3M Canada Company 10106 SCOTCHCAST RESIN 4 PART B 2016-07-30 Dec Pend
3M Canada Company 10107 3M Scothkote Epoxy Ceramic Surfacer FG 512, Mid Grey (Part A) 2016-07-30 Dec Pend
3M Canada Company 10108 3M™ Structural Bonding Tape 9263 with Components 2016-07-30 Dec Pend
3M Canada Company 10109 3M™ Thermally Conductive Epoxy Adhesive TC-2810 (Part B) 2016-07-30 Dec Pend
3M Canada Company 10110 3M ™ THERMALLY CONDUCTIVE EPOXY ADHESIVE TC-2810 (PART A) 2016-07-30 Dec Pend
3M Canada Company 10111 3M™ Scotch-Weld™ Epoxy Adhesive DP-460 EG (Part A) 2016-07-30 Dec Pend
3M Canada Company 10112 3M™ Scotch-Weld™ Epoxy Adhesive DP-460 EG (Part B) 2016-07-30 Dec Pend
3M Canada Company 10113 3M™ Scotchkote™ Liquid Epoxy Coating 323 Part A 2016-07-30 Dec Pend
3M Canada Company 10114 3M™ Scotchkote™ Liquid Epoxy Coating 323 Part B 2016-07-30 Dec Pend
3M Canada Company 10157 3M™ Scotch-Seal™ Tamper Proof Sealant White 2016-07-30 Dec Pend
3M Canada Company 10158 3M™ Scotch-Weld™ Epoxy Adhesive DP190 Gray, Part B 2016-07-30 Dec Pend
3M Canada Company 10163 3M™ Foam Fast 74 Cylinder Spray Adhesive, Orange 2016-07-30 Dec Pend
3M Canada Company 10164 3M™ Shipping-Mate™ Case Sealing Adhesive 2016-07-30 Dec Pend
3M Canada Company 10165 3M™ Polyurethane Multi-Purpose Adhesive 5010 Cream 2016-07-30 Dec Pend
3M Canada Company 10172 3M™ Scotch-Weld™ Acrylic Adhesive 807 Off-White, Part A 2016-11-05 Dec Pend
3M Canada Company 10173 3M™ General Purpose Cleaner Concentrate (Product No. 8, 3M™ Chemical Management Systems) 2016-11-05 Dec Pend
3M Canada Company 10174 3M™ Roll Coat Colour 4901V Blue 2016-11-05 Dec Pend
3M Canada Company 10175 3M™ Screen Printing UV Ink 9864 Transparent Green (BS) 2016-11-05 Dec Pend
3M Canada Company 10179 3M™ Piezo Inkjet Ink 8903UV Blue 2016-11-05 Dec Pend
3M Canada Company 10180 3M™ Piezo Inkjet Ink 8905UV Black 2016-11-05 Dec Pend
3M Canada Company 10181 3M™ Piezo Inkjet Ink 8912UV Red 2016-11-05 Dec Pend
3M Canada Company 10182 3M™ Piezo Inkjet Ink 8914UV Yellow 2016-11-05 Dec Pend
3M Canada Company 10183 3M™ Piezo Inkjet Ink 8916UV Cyan 2016-11-05 Dec Pend
3M Canada Company 10184 3M™ Scotchlite™ Transparent Screen Printing Ink 2906 Orange 2016-11-05 Dec Pend
3M Canada Company 10185 3M™ Scotchlite™ Transparent Screen Printing Ink 2908 Green 2016-11-05 Dec Pend
3M Canada Company 10227 3M™ Scotchlite™ Transparent Screen Printing Ink 2912 Red 2016-11-05 Dec Pend
3M Canada Company 10228 3M™ Scotchlite™ Transparent Screen Printing Ink 2916 Blue Violet 2016-11-05 Dec Pend
3M Canada Company 10232 3M™ Piezo Inkjet Ink 8915UV Magenta 2016-11-05 Dec Pend
3M Canada Company 10234 3M™ Scotch-Weld™ Acrylic Adhesive 807 Off-White, Part B 2016-11-05 Dec Pend
3M Canada Company 10241 3M™ Screen Print Matte Clear 1930 2016-11-05 Dec Pend
3M Canada Company 10242 3M™ Process Colour 1805 Black 2016-11-05 Dec Pend
3M Canada Company 10452 3M™ Screen Printing Ink 1971 Deep Red 2016-12-31 Dec Pend
3M Canada Company 10453 3M™ Screen Printing Ink 1916 Green Shade Blue 2016-12-31 Dec Pend
3M Canada Company 10454 3M™ Screen Print Gloss Clear 1920DR 2016-12-31 Dec Pend
3M Canada Company 10455 3M™ Screen Printing Ink 1914 Dark Green 2016-12-31 Dec Pend
3M Canada Company 10456 3M™ Screen Printing Ink 1905 Black 2016-12-31 Dec Pend
3M Canada Company 10457 3M™ Screen Printing Ink 1970 Red Shade Blue 2016-12-31 Dec Pend
3M Canada Company 10458 3M™ Screen Printing Ink 1903 White 2016-12-31 Dec Pend
3M Canada Company 10459 3M™ Screen Printing Ink 1912 Green Shade Yellow 2016-12-31 Dec Pend
3M Canada Company 10460 3M™ Screen Printing Ink 1927 Blue Violet 2016-12-31 Dec Pend
3M Canada Company 10461 3M™ Screen Printing Ink 1933 Orange 2016-12-31 Dec Pend
3M Canada Company 10462 3M™ Screen Printing Ink 1952 Transparent Red Shade Yellow 2016-12-31 Dec Pend
3M Canada Company 10463 3M™ Screen Printing Ink 1902 Red Shade Yellow 2016-12-31 Dec Pend
3M Canada Company 10464 3M™ Matting Adhesive 2016-12-31 Dec Pend
3M Canada Company 10465 3M™ Piezo InkJet Ink 1582v2 Light Yellow 2016-12-31 Dec Pend
3M Canada Company 10466 3M™ Piezo InkJet Ink 1585v2 Light Black 2016-12-31 Dec Pend
3M Canada Company 10467 3M™ Piezo InkJet Ink 1586v2 Light Cyan 2016-12-31 Dec Pend
3M Canada Company 10468 3M™ Piezo InkJet Ink 1592v2 Yellow 2016-12-31 Dec Pend
3M Canada Company 10469 3M™ Floor Stripper LO Ready-to-Use (Product No. 22, 3M™ Chemical Management Systems) 2016-12-31 Dec Pend
3M Canada Company 10470 3M™ Floor Stripper LO Concentrate (Product No. 22, 3M™ Chemical Management Systems) 2016-12-31 Dec Pend
3M Canada Company 10471 3M Scotchcast™ Flame-Retardant Compound 2131 (Parts A) 2016-12-31 Dec Pend
3M Canada Company 10472 Scotch wet niche potting compound 2136 Part A 2016-12-31 Dec Pend
3M Canada Company 10473 DSG SEALANT FOR 4075 & 4077 SERIES MS2 SEALANT BOXES 2016-12-31 Dec Pend
3M Canada Company 10474 3M™ Electrical Insulating Sealer 1601, Clear 2016-12-31 Dec Pend
3M Canada Company 10475 Scotchcast™ Electrical Resin 208, Part B 2016-12-31 Dec Pend
3M Canada Company 10476 3M Scotchkote Epoxy HT Lining HTX 517, Off White (Part B) 2016-12-31 Dec Pend
3M Canada Company 10477 3M Scotchkote Epoxy Ceramic HD Surfacer HG 519 (Part B) 2016-12-31 Dec Pend
3M Canada Company 10478 3M Scotchkote Epoxy Coating 175UC Paste (Part B) 2016-12-31 Dec Pend
3M Canada Company 10479 3M™ SkySolv by Elixair 2016-12-31 Dec Pend
3M Canada Company 10480 3M™ SkySolv™ Wipes by Elixair Surface Cleaning Wipes 2016-12-31 Dec Pend
3M Canada Company 10481 3M™ Scotch-Weld™ Epoxy Adhesive DP460 Off-White, Part A 2016-12-31 Dec Pend
3M Canada Company 10482 3M™ Scotch-Weld™ Epoxy Adhesive 2216 Gray Part A 2016-12-31 Dec Pend
3M Canada Company 10483 3M™ Multi-Purpose 27 Spray Adhesive 2016-12-31 Dec Pend
3M Canada Company 10484 3M™ SCOTCH-WELD™ SUPER 77™ CYCLINDER SPRAY ADHESIVE, CLEAR 2016-12-31 Dec Pend
3M Canada Company 10485 3M™ Hi-Strength Postforming 94 CA Cylinder Spray Adhesive, Clear, Frangrance-Free 2016-12-31 Dec Pend
3M Canada Company 10486 3M™ Nitrile High Performance Rubber and Gasket Adhesive 847 2016-12-31 Dec Pend
3M Canada Company 10487 3M™ Hi-Strength 90 Cylinder Spray Adhesive, Clear 2016-12-31 Dec Pend
3M Canada Company 10488 3M™ Hi-Strength Post Forming 94 CA Cylinder Spray Adhesive, Clear 2016-12-31 Dec Pend
3M Canada Company 10489 3M™ Scotch-Weld™ Epoxy Adhesive EC-1751 B/A, Part A 2016-12-31 Dec Pend
3M Canada Company 10490 3M™ Scotch-Weld™ Neoprene High Performance Contact Adhesive EC-1357, Grey-Green 2016-12-31 Dec Pend
3M Canada Company 10491 3M™ Nitrile Plastic Adhesive 826 2016-12-31 Dec Pend
3M Canada Company 10492 3M™ Scotch-Weld™ Epoxy Adhesive DP-460 NS (Part A) 2016-12-31 Dec Pend
3M Canada Company 10493 3M™ Scotch-Weld™ Epoxy Adhesive 460 Off-White, Part A 2016-12-31 Dec Pend
3M Canada Company 10494 3M™ Hi-Strength Post Forming 94 CA Cylinder Spray Adhesive, Red 2016-12-31 Dec Pend
3M Canada Company 10495 3M™ Hot Melt Adhesive 3748VO Q 2016-12-31 Dec Pend
3M Canada Company 10496 3M™ Hi-Strength Laminating 92 Cylinder Spray Adhesive, Clear 2016-12-31 Dec Pend
3M Canada Company 10497 3M™ Polystyrene Foam Insulation Adhesive 78, Bulk 2016-12-31 Dec Pend
3M Canada Company 10498 3M™ Scotch-Weld™ Structural Adhesive Film AF 191 2016-12-31 Dec Pend
3M Canada Company 10499 3M™ HI-STRENGTH 94 ET SPRAY ADHESIVE BULK, RED 2016-12-31 Dec Pend
3M Canada Company 10500 3M™ Hi-Strength Non-Flammable 98NF Cylinder Spray Adhesive, Red 2016-12-31 Dec Pend
3M Canada Company 10501 3M™ Hi-Strength Non-Flammable 98NF Bulk Adhesive, Red 2016-12-31 Dec Pend
3M Canada Company 10502 3M™ Adhesive Remove (Cylinder) 2016-12-31 Dec Pend
3M Canada Company 10503 3M™ Nitrile High Performance Plastic Adhesive 1099L 2016-12-31 Dec Pend
3M Canada Company 10504 3M™ Scotch-Weld™ Acrylic Adhesive DP8425NS, Green, Part A 2016-12-31 Dec Pend
3M Canada Company 10505 3M™ Polystyrene Foam Insulation 78 HT Hi-Temperature Cylinder Spray Adhesive, Blue 2016-12-31 Dec Pend
3M Canada Company 10506 3M™ General Purpose 60CA Cylinder Spray Adhesive 2016-12-31 Dec Pend
3M Canada Company 10507 3M™ PPT ADHESION PROMOTER No. 86A 2016-12-31 Dec Pend
3M Canada Company 10508 3M™ Protective Tape Application Solution 2016-12-31 Dec Pend
3M Canada Company 10509 3M™ EC-1252 PINK 2016-12-31 Dec Pend
3M Canada Company 10511 3M™ Screen Printing Ink 1910 2016-12-31 Dec Pend
3M Canada Company 10512 3M™ Non-Acid Bathroom Cleaner Concentrate (Product No. 19, Twist N' Fill™ System) 2016-12-31 Dec Pend
3M Canada Company 10513 3M™ Food Service Degreaser Concentrate (Product No. 7, Twist N' Fill™ System) 2016-12-31 Dec Pend
3M Canada Company 10514 3M™ 711N Thinner 2016-12-31 Dec Pend
3M Canada Company 10515 3M™ Process Colour 887N Brown 2016-12-31 Dec Pend
3M Canada Company 10516 3M™ Process Colour 880N Toner 2016-12-31 Dec Pend
3M Canada Company 10517 3M™ Process Color 882N Traffic Sign Red 2016-12-31 Dec Pend
3M Canada Company 10518 3M™ Process Colour 893I Blue Violet 2016-12-31 Dec Pend
3M Canada Company 10519 3M™ Roll Coat Colour 4911V Clear Toner 2016-12-31 Dec Pend
3M Canada Company 10520 3M™ Roll Coat Colour 4805V Black 2016-12-31 Dec Pend
3M Canada Company 10521 3M™ Industrial Degreaser Concentrate (Product No. 26, Twist N' Fill™ System) 2016-12-31 Dec Pend
3M Canada Company 10522 3M™ Process Colour 990-00 Toner 2016-12-31 Dec Pend
3M Canada Company 10523 3M™ Process Colour 990-03 Blue 2016-12-31 Dec Pend
3M Canada Company 10524 3M™ Process Colour 990-13 Violet 2016-12-31 Dec Pend
3M Canada Company 10525 SCOTCHKOTE 6258 FUSION BONDED EPOXY COATING 2016-12-31 Dec Pend
3M Canada Company 10526 SCOTCHKOTE 6233 4G 8G AND 11G FUSION BONDED EPOXY COATING 2016-12-31 Dec Pend
3M Canada Company 10527 3M Thermal Bonding Film AF111 2016-12-31 Dec Pend
3M Canada Company 10528 Scotchcast 260 Electrical Resin 2016-12-31 Dec Pend
3M Canada Company 10529 Scotch wet niche potting compound 2136 Part B 2016-12-31 Dec Pend
3M Canada Company 10530 SCOTCHKOTE 226N Slow 8G and 11G Fusion Bonded Epoxy Coating 2016-12-31 Dec Pend
3M Canada Company 10531 3M™ Thermally Conductive Adhesive TC-2707 (Part A) 2016-12-31 Dec Pend
3M Canada Company 10532 3M™ Thermally Conductive Adhesive TC-2707 (Part B) 2016-12-31 Dec Pend
3M Canada Company 10533 Scotchcast™ Electrical Resin 208, Part A 2016-12-31 Dec Pend
3M Canada Company 10534 Scotchkote 626-140 Fusion Bonded Epoxy Coating 2016-12-31 Dec Pend
3M Canada Company 10535 3M Scotchkote Epoxy Ceramic Surfacer FG 512, Brown (Part A) 2016-12-31 Dec Pend
3M Canada Company 10536 3M Scotchkote Epoxy Metal Repair EG 503 (Part A) 2016-12-31 Dec Pend
3M Canada Company 10537 3M Scotchkote Epoxy Ceramic Rebuild EG 513 (Part A) 2016-12-31 Dec Pend
3M Canada Company 10538 3M Scotchkote Epoxy Ceramic HD Surfacer HG 519 (Part A) 2016-12-31 Dec Pend
3M Canada Company 10539 3M Scotchkote Epoxy Sealer SP 810 (Part B) 2016-12-31 Dec Pend
3M Canada Company 10540 3M Scotchkote Epoxy Coating 175UC Paste, Light Grey (Part A) 2016-12-31 Dec Pend
3M Canada Company 10541 3M™ Rubberized Undercoating Black, PN08883 2016-12-31 Dec Pend
3M Canada Company 10542 3M™ Scotch-Weld™ Epoxy Adhesive 460NS Off-White, Part B 2016-12-31 Dec Pend
3M Canada Company 10543 3M™ Scotch-Weld™ Epoxy Adhesive 2216 Gray Part B 2016-12-31 Dec Pend
3M Canada Company 10544 3M™ HoldFast 70 Cylinder Spray Adhesive (Clear) 2016-12-31 Dec Pend
3M Canada Company 10545 3M™ Scotch-Weld™ Epoxy Adhesive 110 Gray, Part B 2016-12-31 Dec Pend
3M Canada Company 10546 3M™ SCOTCH-WELD™ STRUCTURAL ADHESIVE FILM AF 131-2 2016-12-31 Dec Pend
3M Canada Company 10547 3M™ Scotch-Weld™ Epoxy Adhesive EC-1751 B/A (Part B) 2016-12-31 Dec Pend
3M Canada Company 10548 3M™ Scotch-Weld™ Structural Adhesive Primer EC-3960 2016-12-31 Dec Pend
3M Canada Company 10549 3M™ Polystyrene Foam Insulation 78 ET Cylinder Spray Adhesive, Clear 2016-12-31 Dec Pend
3M Canada Company 10550 3M™ Neoprene High Performance Contact Adhesive 1357L 2016-12-31 Dec Pend
3M Canada Company 10551 3M™ Foam Fast 74NF Cylinder Spray Adhesive, Clear 2016-12-31 Dec Pend
3M Canada Company 10552 3M™ Scotch-Weld™ Neoprene Rubber and Gasket Adhesive 2141 2016-12-31 Dec Pend
3M Canada Company 10553 3M™ Scotch-Weld™ Neoprene High Performance Rubber and Gasket Adhesive EC-13001 2016-12-31 Dec Pend
3M Canada Company 10554 3M™ Scotch-Weld™ Neoprene High Performance Contact Adhesive EC-1357, Light Yellow 2016-12-31 Dec Pend
3M Canada Company 10555 3M™ Scotch-Weld™ Epoxy Adhesive EC-2214 High Density 2016-12-31 Dec Pend
3M Canada Company 10556 3M™ Scotch-Weld™ Epoxy Adhesive EC-2214 2016-12-31 Dec Pend
3M Canada Company 10557 3M™ SCOTCH-WELD™ EPOXY ADHESIVE 2214 HIGH DENSITY 2016-12-31 Dec Pend
3M Canada Company 10558 3M™ Scotch-Weld™ Low Density Void Filler 3524 B/A AF Part B 2016-12-31 Dec Pend
3M Canada Company 10559 3M™ Scotch-Weld™ EC-3524 B/A Part B Void Filling Compound 2016-12-31 Dec Pend
3M Canada Company 10560 3M™ Scotch-Weld™ Urethane Adhesive EC-3532 B/A Part A 2016-12-31 Dec Pend
3M Canada Company 10561 3M™ Scotch-Weld™ Urethane Adhesive EC-3535 B/A Part A 2016-12-31 Dec Pend
3M Canada Company 10562 3M™ Scotch-Weld™ Urethane Adhesive EC-3535 B/A Part B 2016-12-31 Dec Pend
3M Canada Company 10563 3M™ Scotch-Weld™ Epoxy Adhesive EC-3501 B/A Part B, Gray 2016-12-31 Dec Pend
3M Canada Company 10564 3M™ Scotch-Weld™ Epoxy Adhesive EC-3501 Gray, Part A 2016-12-31 Dec Pend
3M Canada Company 10565 3M™ Scotch-Weld™ Tamper Proof Sealant EC-1252 Blue 2016-12-31 Dec Pend
3M Canada Company 10566 3M™ Scotch-Weld™ Structural Adhesive Primer EC-3924B 2016-12-31 Dec Pend
3M Canada Company 10567 3M™ Scotch-Weld™ Structural Adhesive Primer EC-3917 2016-12-31 Dec Pend
3M Canada Company 10570 3M™ Scotch-Weld™ AF-3014 2016-12-31 Dec Pend
3M Canada Company 10571 3M™ Primer 94 (Ampoules) 2016-12-31 Dec Pend
3M Canada Company 10572 3M™ SCOTCH-WELD™ CORE SPLICE ADHESIVE EC-3500 B/A PART B 2016-12-31 Dec Pend
3M Canada Company 10573 3M™ Scotch-Weld™ Epoxy Adhesive 110 Gray, Part A 2016-12-31 Dec Pend
3M Canada Company 10574 3M™ Screen Printable Adhesive SP-7555 2016-12-31 Dec Pend
3M Canada Company 10586 3M Scotchkote Epoxy Coating 162HB Light Grey (Part A) 2016-12-31 Dec Pend
3M Canada Company 10587 3M™ Scotchcast ™ Flame Retardant Resin 2131 (PART B) 2016-12-31 Dec Pend
3M Canada Company 10588 3M™ Scotchcast ™ Electrical Resin 10 Part A 2016-12-31 Dec Pend
3M Canada Company 10589 3M™ Scotchcast™ Electrical Resin 10 Part B 2016-12-31 Dec Pend
3M Canada Company 10595 3M W9910 Wind Tape Adhesion Promoter Packets 2016-12-31 Dec Pend
3M Canada Company 10596 3M Scotchkote Epoxy Ceramic Rebuild EG 513 (Part B) 2016-12-31 Dec Pend
3M Canada Company 10597 3M Scotchkote Epoxy Metal Repair EG 503 (Part B) 2016-12-31 Dec Pend
3M Canada Company 10598 3M Adhesion Promoter 4296T 2016-12-31 Dec Pend
3M Canada Company 10599 Cleaning Cloth Soaked with Isopropyl Alcohol 2016-12-31 Dec Pend
3M Canada Company 10626 3M™ Scotch-Weld™ Low Odor Acrylic Adhesive 8810NS Green, Part B 2016-12-31 Dec Pend
3M Canada Company 10643 3M™ Scotch-Weld™ Epoxy Adhesive EC -2615 B/A Part A 2016-12-31 Dec Pend
3M Canada Company 10644 3M™ Scotch-Weld™ Low Odor Acrylic Adhesive DP8805NS, Green, Part B 2016-12-31 Dec Pend
3M Canada Company 10645 3M™ Scotch-Weld™ Low Odour Acrylic Adhesive DP8810NS Off-White, Part B 2016-12-31 Dec Pend
3M Canada Company 10652 3M™ Teak and Glass Primer P597, Clear 2017-01-28 Dec Pend
3M Canada Company 10654 POLYURETHANE PROTECTIVE TAPE ADHESION PROMOTER 86A PACKET 2017-01-28 Dec Pend
3M Canada Company 10660 3M™ Scotch-Weld™ Repair Paste 2110 B/A Part A 2017-01-28 Dec Pend
3M Canada Company 10666 3M™ Scotch-Weld™ Structural Plastic Adhesive 8005 Off-White, Part A 2017-01-28 Dec Pend
3M Canada Company 10667 3M™ Scotch-Weld™ Structural Plastic Adhesive 8005 Black, Part A 2017-01-28 Dec Pend
3M Canada Company 10677 3M™ Scotch-Weld™ Epoxy Adhesive DP125 Gray, Part A 2017-01-28 Dec Pend
3M Canada Company 10678 3M™ Scotch-Weld™ Epoxy Adhesive 2158 Gray, Part A 2017-01-28 Dec Pend
3M Canada Company 10679 3M™ SCOTCH-WELD™ EPOXY STRUCTURAL ADHESIVE 7838 B/A (PART A) 2017-01-28 Dec Pend
3M Canada Company 10680 3M™ Scotch-Weld™ Epoxy Structural Adhesive 7838 B/A (Part B) 2017-01-28 Dec Pend
3M Canada Company 10681 3M™ SCOTCH-WELD™ EPOXY ADHESIVE EC-2792 B/A PART A 2017-01-28 Dec Pend
3M Canada Company 10682 3M™ Scotch-Weld™ Tamper Proof Sealant EC-1252 Yellow 2017-01-28 Dec Pend
3M Canada Company 10683 3M™ SCOTCH-WELD™ 2216 B/A PART A TRANSLUCENT EPOXY ADHESIVE 2017-01-28 Dec Pend
3M Canada Company 10684 3M™ Scotch-Weld™ Epoxy Potting Compound/Adhesive DP270 Clear, Part A 2017-01-28 Dec Pend
3M Canada Company 10685 3M™ Scotch-Weld™ Epoxy Potting Compound/Adhesive 270 Clear, Part A 2017-01-28 Dec Pend
3M Canada Company 10686 3M™ Scotch-Weld™ Epoxy Potting Compound/Adhesive DP270 Black, Part A 2017-01-28 Dec Pend
3M Canada Company 10687 3M™ Scotch-Weld™ Epoxy Potting Compound/Adhesive 270 Black, Part A 2017-01-28 Dec Pend
3M Canada Company 10688 3M™ Neoprene High Performance Contact Adhesive 1357, Light Yellow 2017-01-28 Dec Pend
3M Canada Company 10689 3M™ Rubber & Vinyl 80 Spray Adhesive 2017-01-28 Dec Pend
3M Canada Company 10690 3M™ Hi-Strength 94 ET Cylinder Spray Adhesive, Clear 2017-01-28 Dec Pend
3M Canada Company 10691 3M™ HI-STRENGTH 94 ET SPRAY ADHESIVE Bulk, Clear 2017-01-28 Dec Pend
3M Canada Company 10692 3M™ SILICONE LUBRICANT 2017-01-28 Dec Pend
3M Canada Company 10693 3M™ SUPER FOAM FAST SPRAY ADHESIVE 74, ORANGE 2017-01-28 Dec Pend
3M Canada Company 10694 Premier PB924 Hi Temp Hi Strength Pressure Sensitive Adhesive (Cylinder) 2017-01-28 Dec Pend
3M Canada Company 10695 StarStuk HM (Cylinder) 2017-01-28 Dec Pend
3M Canada Company 10696 StarStuk ACR Citrus Cleaner (Bulk) 2017-01-28 Dec Pend
3M Canada Company 10697 StarStuk ACR Citrus Cleaner 2017-01-28 Dec Pend
3M Canada Company 10698 Premier PB925 Hi Temp Hi Strength Adhesive (Cylinder) 2017-01-28 Dec Pend
3M Canada Company 10699 3M™ Scotch-Weld™ Low Odour Acrylic Adhesive 810 B/A (Part B) 2017-01-28 Dec Pend
3M Canada Company 10700 3M™ Scotch-Weld™ Epoxy Adhesive DP190 Translucent, Part A 2017-01-28 Dec Pend
3M Canada Company 10701 3M™ Scotch-Weld™ Low Odor Acrylic Adhesive 810 Black, Part B 2017-01-28 Dec Pend
3M Canada Company 10702 3M™ Scotch-Weld™ Low Odor Acrylic Adhesive 810 Black, Part A 2017-01-28 Dec Pend
3M Canada Company 10703 3M™ Hi-Strength Non-Flammable 98NF Cylinder Spray Adhesive, Clear 2017-01-28 Dec Pend
3M Canada Company 10704 Premier PB920 2017-01-28 Dec Pend
3M Canada Company 10705 NorthStar HPLV 2017-01-28 Dec Pend
3M Canada Company 10706 3M™ Scotch-Weld™ Threadlocker TL42, Blue 2017-01-28 Dec Pend
3M Canada Company 10707 3M™ Scotch-Weld™ Threadlocker TL43, Blue 2017-01-28 Dec Pend
3M Canada Company 10708 3M™ Adhesive Remover Low VOC <20% Aerosol 2017-01-28 Dec Pend
3M Canada Company 10709 3M™ Blue 72 Spray Adhesive 2017-01-28 Dec Pend
3M Canada Company 10710 3M™ High Performance Industrial Plastic Adhesive 4693 2017-01-28 Dec Pend
3M Canada Company 10711 3M™ Silane Glass Treatment AP115 2017-01-28 Dec Pend
3M Canada Company 10712 3M™ Nitrile High Performance Plastic Adhesive 1099 2017-01-28 Dec Pend
3M Canada Company 10713 3M™ Scotch-Weld™ Epoxy Adhesive DP110 Translucent, Part B 2017-01-28 Dec Pend
3M Canada Company 10714 3M™ Scotch-Weld™ Epoxy Adhesive DP125 Gray, Part B 2017-01-28 Dec Pend
3M Canada Company 10715 3M™ Scotch-Weld™ Epoxy Adhesive 3501B Gray, Part B 2017-01-28 Dec Pend
3M Canada Company 10716 3M™ Scotch-Weld™ Epoxy Adhesive 3501A Gray, Part A 2017-01-28 Dec Pend
3M Canada Company 10717 3M™ SCOTCH-WELD ™ EPOXY ADHESIVE EC-2792 B/A PART B 2017-01-28 Dec Pend
3M Canada Company 10718 3M™ Scotch-Weld™ Low Odour Acrylic Adhesive 8805NS Green, Part B 2017-01-28 Dec Pend
3M Canada Company 10719 3M™ MARINE ADHESIVE SEALANT 5200 MAHOGANY PN 06502 2017-01-28 Dec Pend
3M Canada Company 10720 Scotch-Weld™ Contact Rubber Adhesive 1300L TF High Temperature (manufactured as XA 9391) 2017-01-28 Dec Pend
3M Canada Company 10721 3M™ High Performance Rubber and Gasket Adhesive 1300L 2017-01-28 Dec Pend
3M Canada Company 10722 Premier PB900 HAPS Free 2017-01-28 Dec Pend
3M Canada Company 10723 Premier PB900 Contact Adhesive 2017-01-28 Dec Pend
3M Canada Company 10724 Premier PB910 CA Compliant 2017-01-28 Dec Pend
3M Canada Company 10725 Premier PB910 CA Compliant Post Form Plus, Bulk 2017-01-28 Dec Pend
3M Canada Company 10726 Premier PB924N Hi Temp Hi Strength PS Non-Flammable 2017-01-28 Dec Pend
3M Canada Company 10727 Premier PB924 Hi Temp Hi Str Pressure Sensitive Adhesive 2017-01-28 Dec Pend
3M Canada Company 10728 StarStuk HM 2017-01-28 Dec Pend
3M Canada Company 10729 Premier PB960 Hi Strength Polystyrene Adhesive 2017-01-28 Dec Pend
3M Canada Company 10730 Premier PB960 Hi Str Polystyrene Adhesive 2017-01-28 Dec Pend
3M Canada Company 10731 3M™ Scotch-Weld™ Epoxy Adhesive 1751 B/A, (Part B) 2017-01-28 Dec Pend
3M Canada Company 10732 3M™ Scotch-Weld™ Epoxy Adhesive DP190 Translucent, Part B 2017-01-28 Dec Pend
3M Canada Company 10733 3M™ Scotch-Weld™ Epoxy Adhesive DP100FR Cream, Part B 2017-01-28 Dec Pend
3M Canada Company 10734 Premier PB980N 2017-01-28 Dec Pend
3M Canada Company 10735 3M™ Scotch-Weld™ Epoxy Adhesive 1386 Cream 2017-01-28 Dec Pend
3M Canada Company 10736 SCOTCH-WELD™ 2214 HI-TEMP NEW FORMULA EPOXY ADHESIVE 2017-01-28 Dec Pend
3M Canada Company 10737 Venture Grip VTG100-MW103 2017-01-28 Dec Pend
3M Canada Company 10738 3M™ SUPER FOAM FAST SPRAY ADHESIVE 74, CLEAR 2017-01-28 Dec Pend
3M Canada Company 10739 3M Super 77 ™ Adhesive, Bulk 2017-01-28 Dec Pend
3M Canada Company 10740 3M™ High Performance Rubber and Gasket Adhesive 1300 2017-01-28 Dec Pend
3M Canada Company 10741 3M™ Neoprene Contact Adhesive 5, Green 2017-01-28 Dec Pend
3M Canada Company 10746 Scotchkote 323C Patch Compound Part A 2017-01-28 Dec Pend
3M Canada Company 10747 Scotchkote 323C Patch Compound Part B 2017-01-28 Dec Pend
3M Canada Company 10748 3M™ Scotchkote™ XC 6171 Fusion Bonded Epoxy Coating (Pipe Grade and Custom Grade) 2017-01-28 Dec Pend
3M Canada Company 10749 Scotchcast™ Cable Repair Compound, CRC (Part A) 2017-01-28 Dec Pend
3M Canada Company 10750 3M™ Scotchcast™ Electrical Insulating Resin 2104, Part A 2017-01-28 Dec Pend
3M Canada Company 10751 Novec Engineered Fluid 72DE 2017-01-28 Dec Pend
3M Canada Company 10752 Scotchcast™ Cable Repair Compound, CRC (Part B) 2017-01-28 Dec Pend
3M Canada Company 10753 3M™ Scotchcast™ Electrical Insulating Resin 2104, Part B 2017-01-28 Dec Pend
3M Canada Company 10754 SCOTCHKOTE 206N Fusion Bonded Epoxy Coating (Standard, Long Gel, Extra Long Gel, and Fluid Bed Versions) 2017-01-28 Dec Pend
3M Canada Company 10755 3M™ Quick Fix Adhesive PN 08224 (Accelerator) 2017-01-28 Dec Pend
3M Canada Company 10756 3M™ Perfect-It™ 1 Finishing Material,36064 2017-01-28 Dec Pend
3M Canada Company 10757 3M™ Perfect-It™ 1 Finishing Material,36065 2017-01-28 Dec Pend
3M Canada Company 10758 3M™ Detector Loop Sealant Black 5000 2017-01-28 Dec Pend
3M Canada Company 10759 3M™ Auto Bedding and Glazing Compound (Black), PN 08509 2017-01-28 Dec Pend
3M Canada Company 10760 3M™ Rust Fighter-I, PN 08892 2017-01-28 Dec Pend
3M Canada Company 10761 3M™ High Power Brake Cleaner; PN 08180 2017-01-28 Dec Pend
3M Canada Company 10762 3M™ Super Silicone Sealant (Black), 08662 2017-01-28 Dec Pend
3M Canada Company 10763 3M™ High Power Brake Cleaner, PN 08880 2017-01-28 Dec Pend
3M Canada Company 10764 3M™ Machine Polish, PN 05996 2017-01-28 Dec Pend
3M Canada Company 10765 3M™ Machine Polish, PN 39009 2017-01-28 Dec Pend
3M Canada Company 10785 3M™ Weld-Thru Coating II, PN 05917 2017-01-28 Dec Pend
Abressa Canada Inc. 8633 SYNTER 2012-06-30 2014-08-02 2017-09-16
Advanced Biocide Technologies Inc. 10422 Biotab7 2016-12-31 Dec Pend
Advanced Chemical Concepts , Inc 10237 ACC CDA-100 2016-11-05 Dec Pend
Advanced Refining Technologies LLC 9040 ICR 512 2014-01-25 Dec Pend
Afton Chemical Corporation 8287 HiTEC 2893 Performance Additive 2011-09-24 2014-02-22 2017-04-08
Afton Chemical Corporation 8464 HiTEC® 6597 Gasoline Fuel Additive 2012-02-18 2014-08-02 2017-09-16
Afton Chemical Corporation 8526 NEMO 1123T 2012-04-28 2015-01-31 2018-03-17
Afton Chemical Corporation 8582 HiTEC® 11118 Performance Additive 2012-04-28 2014-03-29 2017-05-13
Afton Chemical Corporation 8747 TecGARD® 725 2012-12-01 2015-01-31 2018-03-17
Afton Chemical Corporation 8882 HiTEC® 388 Performance Additive 2013-09-14 2015-01-31 2018-03-17
Afton Chemical Corporation 8883 HiTEC® 348 Performance Additive 2013-09-14 2015-01-31 2018-03-17
Afton Chemical Corporation 8884 HiTEC® 397G Performance Additive 2013-09-14 2015-03-28 2018-05-12
Afton Chemical Corporation 9011 HiTEC 335 Performance Additive 2014-01-25 2015-07-25 2018-09-08
Afton Chemical Corporation 9020 POLARTECH® 6000 P BASE 2014-01-25 2015-07-25 2018-09-08
Afton Chemical Corporation 9023 HiTEC® 6606 Fuel Additive 2014-01-25 2015-07-25 2018-09-08
Afton Chemical Corporation 9024 NEMO 1126 2014-01-25 2015-07-25 2018-09-08
Afton Chemical Corporation 9056 CUTSOL HD 2014-01-25 2016-01-16 2019-03-01
Afton Chemical Corporation 9194 Axcel S 2014-04-26 2015-07-25 2018-09-08
Afton Chemical Corporation 9206 HiTEC® 12204 Performance Additive 2014-07-19 2016-01-16 2019-03-01
Afton Chemical Corporation 9274 HiTEC® 3418M Performance Additive 2014-11-22 2015-10-24 2018-12-08
Afton Chemical Corporation 9306 NEMO 1126T 2015-01-31 2015-10-24 2018-12-08
Afton Chemical Corporation 9307 HiTEC® 6606T 2015-01-31 2015-10-24 2018-12-08
Afton Chemical Corporation 9309 HiTEC® 3491LV Performance Additive 2015-01-31 2016-01-16 2019-03-01
Afton Chemical Corporation 9318 LUBAD 1797 2015-01-31 2015-10-24 2018-12-08
Afton Chemical Corporation 9342 HiTEC 2317 2015-01-31 2015-10-24 2018-12-08
Afton Chemical Corporation 9362 HiTEC® 5738 Performance Additive 2015-01-31 2015-10-24 2018-12-08
Afton Chemical Corporation 9363 HiTEC® 5739 Performance Additive 2015-01-31 2015-10-24 2018-12-08
Afton Chemical Corporation 9364 HiTEC® 5769 Performance Additive 2015-04-25 2016-01-16 2019-03-01
Afton Chemical Corporation 9365 HiTEC® 1255 Performance Additive 2015-04-25 2015-10-24 2018-12-08
Afton Chemical Corporation 9366 HiTEC® 1811 Performance Additive 2015-04-25 2016-01-16 2019-03-01
Afton Chemical Corporation 9374 HiTEC® 8703G Performance Additive 2015-04-25 2016-01-16 2019-03-01
Afton Chemical Corporation 9375 HiTEC® 5724 Performance Additive 2015-04-25 2015-10-24 2018-12-08
Afton Chemical Corporation 9397 HiTEC® 052 Performance Additive 2015-04-25 2016-01-16 2019-03-01
Afton Chemical Corporation 9400 HiTEC® 594 Performance Additive 2015-04-25 2016-01-16 2019-03-01
Afton Chemical Corporation 9401 HiTEC® 596 Performance Additive 2015-04-25 2016-01-16 2019-03-01
Afton Chemical Corporation 9445 HiTEC® 6406 Fuel Additive 2015-04-25 2016-03-26 2019-05-10
Afton Chemical Corporation 9447 POLARTECH PRIMA CLY 2015-04-25 2016-03-26 2019-05-10
Afton Chemical Corporation 9448 Polartech BA 30 T 2015-04-25 2016-01-16 2019-03-01
Afton Chemical Corporation 9449 ACTRAFOS® 110A Lubricant Additive 2015-04-25 2016-03-26 2019-05-10
Afton Chemical Corporation 9450 Polartech PE 2111 2015-04-25 2016-03-26 2019-05-10
Afton Chemical Corporation 9451 Polartech MA 5715 DT 2015-04-25 2016-01-16 2019-03-01
Afton Chemical Corporation 9458 ACTRASOL PSR 2015-07-25 2016-03-26 2019-05-10
Afton Chemical Corporation 9505 HiTEC® 2235 Performance Additive 2015-07-25 2016-01-16 2019-03-01
Afton Chemical Corporation 9562 HiTEC® 8888Z Performance Additive 2015-11-07 2016-03-26 2019-05-10
Afton Chemical Corporation 9578 HiTEC® 5714 Performance Additive 2015-11-07 2016-03-26 2019-05-10
Afton Chemical Corporation 9579 HiTEC® 521 Performance Additive 2015-11-07 2016-03-26 2019-05-10
Afton Chemical Corporation 9580 HiTEC® 521G Performance Additive 2015-11-07 2016-03-26 2019-05-10
Afton Chemical Corporation 9581 HiTEC® 543 Performance Additive 2015-11-07 2016-03-26 2019-05-10
Afton Chemical Corporation 9607 Polartech MR 6000 2015-11-07 2016-07-16 2019-08-30
Afton Chemical Corporation 9653 HiTEC 8703 Performance Additive 2015-11-07 2016-11-12 2019-12-27
Afton Chemical Corporation 9655 HiTEC® 6579T Fuel Additive 2015-11-07 2016-07-16 2019-08-30
Afton Chemical Corporation 9656 HiTEC® 301 Performance Additive 2015-11-07 2016-07-16 2019-08-30
Afton Chemical Corporation 9657 HiTEC® 315 Performance Additive 2015-11-07 2016-11-12 2019-12-27
Afton Chemical Corporation 9715 HiTEC® 510 Performance Additive 2016-01-23 2016-07-16 2019-08-30
Afton Chemical Corporation 9717 HiTEC® 4142C Fuel Additive 2016-01-23 Dec Pend
Afton Chemical Corporation 9788 Polartech® MA 3400 OF 2016-03-26 Dec Pend
Afton Chemical Corporation 9795 HiTEC® 510A Performance Additive 2016-03-26 Dec Pend
Afton Chemical Corporation 9816 CUTSOL 2016-03-26 Dec Pend
Afton Chemical Corporation 9830 HiTEC 6591N Fuel Additive 2016-03-26 Dec Pend
Afton Chemical Corporation 9834 HiTEC 521F Performance Additive 2016-03-26 Dec Pend
Afton Chemical Corporation 9894 HiTEC® 6610 Fuel Additive 2016-07-30 Dec Pend
Afton Chemical Corporation 9938 HiTEC® 350 Performance Additive 2016-07-30 Dec Pend
Afton Chemical Corporation 9939 HiTEC® 385 Performance Additive 2016-07-30 Dec Pend
Afton Chemical Corporation 9940 HiTEC® 2571 Performance Additive 2016-07-30 Dec Pend
Afton Chemical Corporation 9941 TecGARD® 712 2016-07-30 Dec Pend
Afton Chemical Corporation 9952 HiTEC® 317 Performance Additive 2016-07-30 Dec Pend
Afton Chemical Corporation 9953 NEMO 1123 2016-07-30 Dec Pend
Afton Chemical Corporation 9954 HiTEC® 317T Performance Additive 2016-07-30 Dec Pend
Afton Chemical Corporation 9955 HiTEC® 8888F Performance Additive 2016-07-30 Dec Pend
Afton Chemical Corporation 9956 HiTEC® 352 Performance Additive 2016-07-30 Dec Pend
Afton Chemical Corporation 9957 HiTEC® 307 Performance Additive 2016-07-30 Dec Pend
Afton Chemical Corporation 10001 HiTEC® 5091 Performance Additive 2016-07-30 Dec Pend
Afton Chemical Corporation 10002 HiTEC® 4142 Fuel Additive 2016-07-30 Dec Pend
Afton Chemical Corporation 10047 C118686 2016-07-30 Dec Pend
Afton Chemical Corporation 10048 C104040 2016-07-30 Dec Pend
Afton Chemical Corporation 10049 C106060 2016-07-30 Dec Pend
Afton Chemical Corporation 10050 C107676 2016-07-30 Dec Pend
Afton Chemical Corporation 10051 C115858 2016-07-30 Dec Pend
Afton Chemical Corporation 10052 C120101 2016-07-30 Dec Pend
Afton Chemical Corporation 10053 C113333 2016-07-30 Dec Pend
Afton Chemical Corporation 10072 C122424 2016-07-30 Dec Pend
Afton Chemical Corporation 10073 HiTEC 544 Performance Additive 2016-07-30 Dec Pend
Afton Chemical Corporation 10074 Lubad 1836 2016-07-30 Dec Pend
Afton Chemical Corporation 10115 HiTEC 355 Performance Additive 2016-07-30 Dec Pend
Afton Chemical Corporation 10118 HiTEC® 4045 Heating Oil Additive 2016-07-30 Dec Pend
Afton Chemical Corporation 10119 HiTEC® 4045NA Heating Oil Additive 2016-07-30 Dec Pend
Afton Chemical Corporation 10120 HiTEC® 6590 Fuel Additive 2016-07-30 Dec Pend
Afton Chemical Corporation 10121 HiTEC® 6590D Fuel Additive 2016-07-30 Dec Pend
Afton Chemical Corporation 10243 Polartech® EA 650 NS 2016-11-05 Dec Pend
Afton Chemical Corporation 10244 Polartech® MA 3410 2016-11-05 Dec Pend
Afton Chemical Corporation 10245 Polartech® EA 646 NS 2016-11-05 Dec Pend
Afton Chemical Corporation 10250 Polartech® 8496 2016-11-05 Dec Pend
Afton Chemical Corporation 10251 Polartech® EA 240 2016-11-05 Dec Pend
Afton Chemical Corporation 10252 Actrasol® C-85 2016-11-05 Dec Pend
Afton Chemical Corporation 10314 HiTEC® 3220 Performance Additive 2016-11-05 Dec Pend
Afton Chemical Corporation 10315 HiTEC® 2581 Performance Additive 2016-11-05 Dec Pend
Afton Chemical Corporation 10316 HiTEC® 485 Performance Additive 2016-11-05 Dec Pend
Afton Chemical Corporation 10318 LUBAD 1602 2016-11-05 Dec Pend
Afton Chemical Corporation 10319 HiTEC® 2510F Performance Additive 2016-11-05 Dec Pend
Afton Chemical Corporation 10350 LUBAD 1603 2016-11-05 Dec Pend
Afton Chemical Corporation 10379 X-16438 2016-11-05 Dec Pend
Afton Chemical Corporation 10415 C122121 2016-11-05 Dec Pend
Afton Chemical Corporation 10585 POLARTECH® 6091 P 2016-12-31 Dec Pend
Afton Chemical Corporation 10617 HiTEC® 2597 Performance Additive 2016-12-31 Dec Pend
Air Products & Chemicals, Inc. 8758 Tomamine® Amphoteric 12 Surfactant 2012-12-01 2014-02-22 2017-04-08
Air Products & Chemicals, Inc. 8806 DABCO® BA150 Additive 2013-02-23 2015-01-31 2018-03-17
Air Products & Chemicals, Inc. 8841 TOMADRY® DAB SURFACTANT 2013-02-23 2015-03-28 2018-05-12
Air Products & Chemicals, Inc. 8858 Ancamide® 702 B75 Curing Agent 2013-09-14 2015-01-31 2018-03-17
Air Products & Chemicals, Inc. 9127 EnviroGem® 360 SURFACTANT 2014-04-26 2016-01-16 2019-03-01
Air Products & Chemicals, Inc. 9128 XF-AC14003 2014-04-26 2016-01-16 2019-03-01
Air Products & Chemicals, Inc. 9301 ANCAMINE®2014AS Curing Agent 2015-01-31 2015-10-24 2018-12-08
Air Products & Chemicals, Inc. 9302 SURFYNOL®TG SURFACTANT 2015-01-31 2015-10-24 2018-12-08
Air Products & Chemicals, Inc. 9312 ANCAMINE® 2264 Curing Agent 2015-01-31 2015-10-24 2018-12-08
Air Products & Chemicals, Inc. 9321 ANQUAMINE® 401 Curing Agent 2015-01-31 2015-10-24 2018-12-08
Air Products & Chemicals, Inc. 9798 ANCAMINE® 2334 Curing Agent 2016-03-26 Dec Pend
Akzo Nobel Surface Chemistry LLC 8565 BEROL® 609 2012-04-28 2014-02-22 2017-04-08
Akzo Nobel Surface Chemistry LLC 8610 REDICOTE® C-3082 2012-06-30 2014-08-02 2017-09-16
Akzo Nobel Surface Chemistry LLC 8611 REDISET® LQ-1102C 2012-06-30 2014-08-02 2017-09-16
Akzo Nobel Surface Chemistry LLC 8666 BEROL® 226 SA 2012-09-22 2014-08-02 2017-09-16
Akzo Nobel Surface Chemistry LLC 8698 Redicote® C-2914 2012-12-01 2014-08-02 2017-09-16
Akzo Nobel Surface Chemistry LLC 8699 Armeen® PF53W 2012-12-01 2014-08-02 2017-09-16
Akzo Nobel Surface Chemistry LLC 8700 Armeen® PF-52H 2012-12-01 2014-08-02 2017-09-16
Akzo Nobel Surface Chemistry LLC 8701 Redicote® E-64R E 2012-12-01 2014-08-02 2017-09-16
Akzo Nobel Surface Chemistry LLC 8702 Berol® 508 SA 2012-12-01 2014-08-02 2017-09-16
Akzo Nobel Surface Chemistry LLC 8703 Petro® BAF Powder 2012-12-01 2014-08-02 2017-09-16
Akzo Nobel Surface Chemistry LLC 8704 Redicote® C-404 2012-12-01 2014-08-02 2017-09-16
Akzo Nobel Surface Chemistry LLC 8705 Redicote® E-6945 2012-12-01 2014-08-02 2017-09-16
Akzo Nobel Surface Chemistry LLC 8706 Redicote® RM-007A 2012-12-01 2014-08-02 2017-09-16
Akzo Nobel Surface Chemistry LLC 8707 Redicote® E-6100 2012-12-01 2015-01-31 2018-03-17
Akzo Nobel Surface Chemistry LLC 8708 Redicote® E-7000 2012-12-01 2014-08-02 2017-09-16
Akzo Nobel Surface Chemistry LLC 8709 Petro® 11 Powder 2012-12-01 2014-08-02 2017-09-16
Akzo Nobel Surface Chemistry LLC 8710 Petro® BA Powder 2012-12-01 2014-08-02 2017-09-16
Akzo Nobel Surface Chemistry LLC 8711 Armeen® PF-1 2012-12-01 2014-08-02 2017-09-16
Akzo Nobel Surface Chemistry LLC 8712 Armeen® PF-3 2012-12-01 2014-08-02 2017-09-16
Akzo Nobel Surface Chemistry LLC 8713 Witconate™ 1100 2012-12-01 2014-08-02 2017-09-16
Akzo Nobel Surface Chemistry LLC 8714 Redicote® E-15 2012-12-01 2014-08-02 2017-09-16
Akzo Nobel Surface Chemistry LLC 9051 Redicote® AP-1 2014-01-25 2015-10-24 2018-12-08
Akzo Nobel Surface Chemistry LLC 9052 ARMOHIB® CI-31 2014-01-25 2015-07-25 2018-09-08
Akzo Nobel Surface Chemistry LLC 9565 REDICOTE® E-11 E 2015-11-07 2016-07-16 2019-08-30
Akzo Nobel Surface Chemistry LLC 9566 REDICOTE® 82S-1 2015-11-07 2016-03-26 2019-05-10
Akzo Nobel Surface Chemistry LLC 9567 REDISET® WMX-8017A 2015-11-07 2016-03-26 2019-05-10
Akzo Nobel Surface Chemistry LLC 9568 REDICOTE® E-4819 2015-11-07 2016-03-26 2019-05-10
Akzo Nobel Surface Chemistry LLC 9584 REDICOTE® C-150AP 2015-11-07 Dec Pend
Akzo Nobel Surface Chemistry LLC 9585 REDICOTE® E-4868 2015-11-07 2016-03-26 2019-05-10
Akzo Nobel Surface Chemistry LLC 9591 REDICOTE® C-3082-2 2015-11-07 2016-07-16 2019-08-30
Akzo Nobel Surface Chemistry LLC 9592 REDICOTE® C-320 2015-11-07 2016-07-16 2019-08-30
Akzo Nobel Surface Chemistry LLC 9604 REDICOTE® 22805 2015-11-07 2016-07-16 2019-08-30
Akzo Nobel Surface Chemistry LLC 9808 BEROL ECO 2016-03-26 Dec Pend
Akzo Nobel Surface Chemistry LLC 9882 REDICOTE C-450-1 2016-07-30 Dec Pend
Akzo Nobel Surface Chemistry LLC 9992 BEROL 226 SA 2016-07-30 Dec Pend
Akzo Nobel Surface Chemistry LLC 10176 C-1205 CW 2016-11-05 Dec Pend
Akzo Nobel Surface Chemistry LLC 10288 Armeen PF-52H 2016-11-05 Dec Pend
Akzo Nobel Surface Chemistry LLC 10289 Armeen PF-1 2016-11-05 Dec Pend
Akzo Nobel Surface Chemistry LLC 10290 Armeen PF-3 2016-11-05 Dec Pend
Akzo Nobel Surface Chemistry LLC 10291 Redicote E-4900 2016-11-05 Dec Pend
Akzo Nobel Surface Chemistry LLC 10346 Armeen PF-53W 2016-11-05 Dec Pend
Albemarle 9827 RT-235 2016-03-26 Dec Pend
Allnex Canada Inc,, (c/o Goodmans, LLP) 8991 EBECRYL® 8414 radiation curing resins 2013-09-14 2015-01-31 2018-03-17
Allnex Canada Inc,, (c/o Goodmans, LLP) 8992 EBECRYL® 3708 radiation curing resins 2013-09-14 2015-03-28 2018-05-12
Allnex Canada Inc,, (c/o Goodmans, LLP) 8993 EBECRYL® 860 radiation curing resins 2013-09-14 2015-03-28 2018-05-12
Allnex Canada Inc,, (c/o Goodmans, LLP) 8994 EBECRYL® 450 radiation curing resins 2013-09-14 2015-03-28 2018-05-12
Allnex Canada Inc,, (c/o Goodmans, LLP) 8995 EBECRYL® 83 radiation curing resins 2013-09-14 2015-03-28 2018-05-12
Allnex Canada Inc,, (c/o Goodmans, LLP) 8996 EBECRYL® 168 radiation curing resins 2013-09-14 2015-03-28 2018-05-12
Allnex Canada Inc,, (c/o Goodmans, LLP) 8997 EBECRYL® 350 radiation curing resins 2013-09-14 2015-01-31 2018-03-17
Allnex Canada Inc,, (c/o Goodmans, LLP) 8999 EBECRYL® 438 radiation curing resins 2013-09-14 2015-03-28 2018-05-12
Allnex Canada Inc,, (c/o Goodmans, LLP) 9000 EBECRYL® 220 radiation curing resins 2013-09-14 2015-03-28 2018-05-12
Allnex Canada Inc,, (c/o Goodmans, LLP) 9001 EBECRYL® 265 radiation curing resins 2013-09-14 2015-03-28 2018-05-12
Allnex Canada Inc., (c/o Goodmans, LLP) 9059 DESMOLUX® VPLS 2265 radiation curing resins 2014-01-25 2015-10-24 2018-12-08
Allnex Canada Inc., (c/o Goodmans, LLP) 9060 DESMOLUX® U 200 radiation curing resins 2014-01-25 2016-01-16 2019-03-01
Allnex Canada Inc., (c/o Goodmans, LLP) 9061 DESMOLUX® U 100 radiation curing resins 2014-01-25 2015-10-24 2018-12-08
Allnex Canada Inc., (c/o Goodmans, LLP) 9062 DESMOLUX® D 100 radiation curing resins 2014-01-25 2015-10-24 2018-12-08
Allnex Canada Inc., (c/o Goodmans, LLP) 9100 EBECRYL® 3701 radiation curing resins 2014-04-26 2015-10-24 2018-12-08
Allnex Canada Inc., (c/o Goodmans, LLP) 9184 EBECRYL® 811 radiation curing resins 2014-04-26 2016-03-26 2019-05-10
Allnex Canada Inc., (c/o Goodmans, LLP) 9210 UCECOAT® 7674 radiation curing resins 2014-07-19 2016-01-16 2019-03-01
Allnex Canada Inc., (c/o Goodmans, LLP) 9225 DESMOLUX® XP2738 radiation curing resins 2014-07-19 2016-01-16 2019-03-01
Allnex Canada Inc., (c/o Goodmans, LLP) 9593 EBECRYL® 4265 radiation curing resins 2015-11-07 2016-03-26 2019-05-10
Allnex Canada Inc., (c/o Goodmans, LLP) 9594 EBECRYL® 4200 radiation curing resins 2015-11-07 2016-07-16 2019-08-30
Allnex Canada Inc., (c/o Goodmans, LLP) 9595 EBECRYL® 4100 radiation curing resins 2015-11-07 2016-07-16 2019-08-30
Allnex Canada Inc., (c/o Goodmans, LLP) 9596 EBECRYL® 4150 radiation curing resins 2015-11-07 2016-07-16 2019-08-30
Allnex Canada Inc., (c/o Goodmans, LLP) 9597 EBECRYL® 4738 radiation curing resins 2015-11-07 2016-07-16 2019-08-30
Allnex Canada Inc., (c/o Goodmans, LLP) 10313 EBECRYL 4201 radiation curing resins 2016-11-05 Dec Pend
Allnex Canada Inc., (c/o Goodmans, LLP) 10317 EBECRYL 4101 radiation curing resins 2016-11-05 Dec Pend
Allnex Canada Inc., c/o Goodmans, LLP 8919 EBECRYL® 81 radiation curing resins 2013-09-14 2015-03-28 2018-05-12
Alpha 9639 615 TYPE RMA FLUX 2015-11-07 Dec Pend
Alpha 9640 615-15 RMA FLUX 2015-11-07 Dec Pend
Alpha 9641 615-25 ROSIN FLUX RMA 2015-11-07 Dec Pend
Alpha 9642 ROSIN FLUX 800 2015-11-07 Dec Pend
Alpha 9643 SC-30 STENCIL CLEANER 2015-11-07 Dec Pend
Alpha 9644 NR 200 FLUX 2015-11-07 Dec Pend
Alpha 9646 ALPHA® RMA-390DH4-HV Paste Flux 2015-11-07 Dec Pend
Alpha 9647 EF-8000 NO CLEAN FLUX 2015-11-07 Dec Pend
Alpha 9648 NR330 VOC FREE NO CLEAN 2015-11-07 Dec Pend
Alpha 9661 ALPHA® WS-600 Paste Flux 2015-11-07 Dec Pend
Alpha 9663 ALPHA® WS-820 Solder Paste 96.5Sn/3.0Ag/0.5Cu 88-3-M19 2015-11-07 Dec Pend
Alpha 10257 856 NEUTRAL OA FLUX 2016-11-05 Dec Pend
Alpha 10258 EF-6100 WAVE SOLDER FLUX 2016-11-05 Dec Pend
Alpha 10259 NR 205 NC FLUX 2016-11-05 Dec Pend
Alpha 10260 ALPHA® OM-338 Paste Flux 2016-11-05 Dec Pend
Alpha 10261 ALPHA® UP-78-M Solder Paste 63Sn/37Pb 90-3-M13 2016-11-05 Dec Pend
Alpha 10262 ALPHA® PoP707 BGA Flux 2016-11-05 Dec Pend
Alpha 10263 CENTRAL HEATING PROTECTOR F1 2016-11-05 Dec Pend
Alpha 10264 ALPHA® OM-338 Solder Paste 96.5Sn/3.0Ag/0.5Cu 88.5-3-M13 2016-11-05 Dec Pend
Alpha 10376 ALPHA® WS-809 Solder Paste 63Sn/37Pb 89.8-3 M18 2016-11-05 Dec Pend
Alpha 10377 NEUTRAL FLUX 373 2016-11-05 Dec Pend
Alpha Assembly Solutions 10367 ALPHA® OM-5100 Solder Paste 62Sn/36Pb/2Ag 90-3-M13 2016-11-05 Dec Pend
Alpha Assembly Solutions 10368 SLS 65C FLUX 2016-11-05 Dec Pend
Arclin Canada Ltd. 8787 Arclin HP600 Liquid Phenol Formaldehyde Resin 2013-02-23 2015-01-31 2018-03-17
Arkema Canada Inc. 8903 LUPEROX® RTM 2013-09-14 2015-03-28 2018-05-12
Arkema Canada Inc. 9209 LUPEROX® EZ Breaker 200G 2014-07-19 2016-01-16 2019-03-01
ArrMaz Products, L.P. 9963 ArrTekk® 860 2016-07-30 Dec Pend
ArrMaz Products, L.P. 9964 ArrTekk® 1285 Canada 2016-07-30 Dec Pend
ArrMaz Products, L.P. 9965 ArrMuls 1315 2016-07-30 Dec Pend
ArrMaz Products, L.P. 10061 AD-here® 77-00 (BL) Canada 2016-07-30 Dec Pend
ArrMaz Products, L.P. 10062 AD-here® 77-00 Canada 2016-07-30 Dec Pend
Arysta LifeScience North Ameria, LLC 10378 AMIGO® Adjuvant 2016-11-05 Dec Pend
Ashland Inc. 8594 PureRad™ 19794 CATIONIC COLD FOIL ADHESIVE 2012-06-30 2015-01-31 2018-03-17
Ashland Inc. 8695 Purekote™ 23574C ULTRA CLEAR PRINT RECEPTIVE TOPCOAT 2012-09-22 2015-01-31 2018-03-17
Ashland Inc. 10591 Pliogrip™ 5770P/220 Adhesive 2016-12-31 Dec Pend
Athlon Solutions LLC 9852 RPA-880 2016-03-26 Dec Pend
Athlon Solutions LLC 10265 Ag-Guard™ 796 2016-11-05 Dec Pend
Atotech Canada Ltd 9837 EXPT ZINNI AL 454-1 2016-03-26 2016-12-17 2020-01-31
Atotech Canada Ltd 9988 VITROCOAT GI S-0 2016-07-30 Dec Pend
AVISTA Technologies Inc. 8535 VITEC™ 3000 NSF 2012-04-28 2014-02-22 2017-04-08
Babcock-Hitachi K.K. 8965 H3-1 2013-09-14 2015-03-28 2018-05-12
Baker Hughes Canada Company 9519 SCW8234 SCALE INHIBITOR 2015-07-25 2016-03-26 2019-05-10
Baker Hughes Canada Company 9545 RE32501PAO PARAFFIN INHIBITOR 2015-11-07 2016-03-26 2019-05-10
Baker Hughes Canada Company 9572 TOPGUARD™ 1190C NEUTRALIZER 2015-11-07 2016-07-16 2019-08-30
Baker Hughes Canada Company 9573 TRETOLITE™ RBW747 WATER CLARIFIER 2015-11-07 2016-07-16 2019-08-30
Baker Hughes Canada Company 9622 TOPGUARD™ 1242 CORROSION INHIBITOR 2015-11-07 2016-07-16 2019-08-30
Baker Hughes Canada Company 9632 RE32545PAO ASPHALTENE INHIBITOR 2015-11-07 2016-07-16 2019-08-30
Baker Hughes Canada Company 9662 RE32553 2015-11-07 2016-03-26 2019-05-10
Baker Hughes Canada Company 9726 RE4267 2016-01-23 2016-11-12 2019-12-27
Baker Hughes Canada Company 9789 GasFlo G2 2016-03-26 2016-12-17 2020-01-31
Baker Hughes Canada Company 9791 TOLAD™ 9702 ADDITIVE 2016-03-26 2016-11-12 2019-12-27
Baker Hughes Canada Company 9809 LIFESPAN™ 3500 HEAVY OIL STABILIZER 2016-03-26 2016-12-17 2020-01-31
Baker Hughes Canada Company 9842 FAW-30 2016-03-26 2016-12-17 2020-01-31
Baker Hughes Canada Company 9843 TRETOLITE™ RBW987 REVERSE BREAKER 2016-03-26 2016-12-17 2020-01-31
Baker Hughes Canada Company 9866 EXCALIBUR™ 7760 ADDITIVE 2016-07-30 2016-12-17 2020-01-31
Baker Hughes Canada Company 9869 RE33018RBW WATER CLARIFIER 2016-07-30 2016-12-17 2020-01-31
Baker Hughes Canada Company 9966 RE33111RBW Water Clarifier 2016-07-30 2017-01-28 Pending
Baker Hughes Canada Company 9967 RE33110RBW WATER CLARIFIER 2016-07-30 2017-01-28 Pending
Baker Hughes Canada Company 9969 InFlo 73 2016-07-30 2017-01-28 Pending
Baker Hughes Canada Company 9981 M9900 2016-07-30 2017-01-28 Pending
Baker Hughes Canada Company 9987 SCW777 SCALE INHIBITOR 2016-07-30 2016-12-17 2020-01-31
Baker Hughes Canada Company 9998 StimCarb HTOA 2016-07-30 2017-01-28 Pending
Baker Hughes Canada Company 9999 StimCarb HTOA Conc 2016-07-30 2017-01-28 Pending
Baker Hughes Canada Company 10405 PAO2363 ASPHALTENE INHIBITOR 2016-11-05 Dec Pend
Baker Hughes Canada Company 10576 WCW4610C COMBINATION PRODUCT 2016-12-31 Dec Pend
Baker Hughes Canada Company 10577 SULFIX™ 9252 SCAVENGER 2016-12-31 Dec Pend
Baker Hughes Canada Company 10582 PAO3186 ASPHALTENE INHIBITOR 2016-12-31 Dec Pend
Baker Hughes Canada Company 10583 SCW356 SCALE INHIBITOR 2016-12-31 Dec Pend
Baker Hughes Canada Company 10592 CRO195 CORROSION INHIBITOR 2016-12-31 Dec Pend
Baker Hughes Canada Company 10593 WCW6032 COMBINATION INHIBITOR 2016-12-31 Dec Pend
Baker Hughes Canada Company 10614 ARKLEAR™ 4074 WATER CLARIFIER 2016-12-31 Dec Pend
Baker Hughes Canada Company 10653 PAO86 PARAFFIN DISPERSANT 2017-01-28 Dec Pend
Baker Hughes Canada Company 10909 PETROSWEET™ HSO3507 H2S SCAVENGER 2017-01-28 Dec Pend
Baker Hughes Oilfield Operations 9014 MaxPerm-20A 2014-01-25 2015-07-25 2018-09-08
Baker Hughes Oilfield Operations 9465 StimCarb™ SAF fluid 2015-07-25 2016-01-16 2019-03-01
Baker Petrolite Corp. 8663 LIFESPAN™ 3207C CRUDE COMPATIBILITY AID 2012-09-22 2014-03-29 2017-05-13
Baker Petrolite Corp. 8664 TOLAD™ 9719 ADDITIVE 2012-09-22 2014-03-29 2017-05-13
Baker Petrolite Corp. 8697 RE7154RBW 2012-12-01 2014-08-02 2017-09-16
Baker Petrolite Corp. 8728 PAO2349 PARAFFIN INHIBITOR 2012-12-01 2014-08-02 2017-09-16
Baker Petrolite Corp. 8729 CGW3361 CORROSION INHIBITOR 2012-12-01 2014-08-02 2017-09-16
Baker Petrolite Corp. 8757 HI-M-PACT™ 10724 LDHI 2012-12-01 2015-01-31 2018-03-17
Baker Petrolite Corp. 8777 M2612 2013-02-23 2014-08-02 2017-09-16
Baker Petrolite Corp. 8809 BPR 81476 CORROSION INHIBITOR 2013-02-23 2015-01-31 2018-03-17
Baker Petrolite Corp. 8814 PAO2349X PARAFFIN INHIBITOR 2013-02-23 2014-08-02 2017-09-16
Baker Petrolite Corp. 8817 XERIC™ 6005 SOLIDS CONDITIONING AID 2013-02-23 2015-01-31 2018-03-17
Baker Petrolite Corp. 8846 RE8270DMO DEMULSIFIER 2013-02-23 2015-01-31 2018-03-17
Baker Petrolite Corp. 8849 PETROSWEET™ HS03507 H2S SCAVENGER 2013-09-14 2015-01-31 2018-03-17
Baker Petrolite Corp. 8866 TOLAD™ 3514 ADDITIVE 2013-09-14 2015-01-31 2018-03-17
Baker Petrolite Corp. 8880 TOLAD™ 3060 ADDITIVE 2013-09-14 2015-03-28 2018-05-12
Baker Petrolite Corp. 9029 SULFIX™ 9617 SCAVENGER 2014-01-25 2015-07-25 2018-09-08
Baker Petrolite Corp. 9030 EnviroSweet™ WCW7745 2014-01-25 2015-07-25 2018-09-08
Baker Petrolite Corp. 9031 TOLAD™ 9704 ADDITIVE 2014-01-25 2015-07-25 2018-09-08
Baker Petrolite Corp. 9043 Hi-M-PACT™ 5557 KHI Hydrate Inhibitor 2014-01-25 2015-07-25 2018-09-08
Baker Petrolite Corp. 9049 CRO2032X CORROSION INHIBITOR 2014-01-25 2016-01-16 2019-03-01
Baker Petrolite Corp. 9107 TOLAD™ 9022M ADDITIVE 2014-04-26 2016-01-16 2019-03-01
Baker Petrolite Corp. 9130 PAO2358 PARAFFIN CONTROL 2014-04-26 2016-01-16 2019-03-01
Baker Petrolite Corp. 9132 PETROSWEET™ HSO3510 H2S SCAVENGER 2014-04-26 2016-01-16 2019-03-01
Baker Petrolite Corp. 9185 CRO2032U CORROSION INHIBITOR 2014-04-26 2016-01-16 2019-03-01
Baker Petrolite Corp. 9198 TOPGUARD™ 1222 CORROSION INHIBITOR 2014-04-26 2015-10-24 2018-12-08
Baker Petrolite Corp. 9220 PAO3086 ASPHALTENE INHIBITOR 2014-07-19 2016-01-16 2019-03-01
Baker Petrolite Corp. 9231 CRONOX™ 283ES CORROSION INHIBITOR 2014-07-19 2016-01-16 2019-03-01
Baker Petrolite Corp. 9320 PAO2360 PARAFFIN CONTROL 2015-01-31 2015-10-24 2018-12-08
Baker Petrolite LLC 9417 JETTISON™ 3000 SOLIDS RELEASE AGENT 2015-04-25 2016-01-16 2019-03-01
BASF Canada Inc. 8545 Plurafac® CS-10 2012-04-28 2014-02-22 2017-04-08
BASF Canada Inc. 8558 Plurafac® LF 900 2012-04-28 2014-03-29 2017-05-13
BASF Canada Inc. 8759 Irgacor 843 2012-12-01 2015-01-31 2018-03-17
BASF Canada Inc. 8778 Cromophtal Yellow D 1085 2013-02-23 2014-02-22 2017-04-08
BASF Canada Inc. 8815 Inoterra™ EM 2013-02-23 2015-01-31 2018-03-17
BASF Canada Inc. 8816 Inoterra™ DWE 2013-02-23 2015-01-31 2018-03-17
BASF Canada Inc. 8840 Inoterra™ EMD 2013-02-23 2015-01-31 2018-03-17
BASF Canada Inc. 8909 Plurafac® SLF 180 2013-09-14 2014-08-02 2017-09-16
BASF Canada Inc. 9050 Pluracoat® Performa CF 20 2014-01-25 2015-03-28 2018-05-12
BASF Canada Inc. 9085 TINUVIN XT 850 GRANULES 2014-01-25 2016-01-16 2019-03-01
BASF Canada Inc. 9101 Inoterra DWF 2014-04-26 2016-01-16 2019-03-01
BASF Canada Inc. 9102 Inoterra DWF C 2014-04-26 2016-01-16 2019-03-01
BASF Canada Inc. 9293 Cyclanon Washoff XC-W New 2014-11-22 2015-07-25 2018-09-08
BASF Canada Inc. 9989 IRGALUBE 2030 A 2016-07-30 Dec Pend
BASF Canada Inc. 10014 Versamid® Pur 2011 2016-07-30 Dec Pend
BASF Canada Inc. 10060 Waterpoxy® 751 2016-07-30 Dec Pend
BASF Canada Inc. 10177 Basazol Violet 94L 2016-11-05 Dec Pend
BASF Canada Inc. 10397 Basazol Violet PR 455L 2016-11-05 Dec Pend
BASF Canada Inc. 10398 Basazol Violet 49L 2016-11-05 Dec Pend
BASF Canada Inc. 10616 Plurafac® SLF 18B-45 2016-12-31 Dec Pend
BASF Canada Inc. 10647 LUPRANATE 5500 XL 2016-12-31 Dec Pend
Bio-Lab Canada Inc. 9025 GUARDEX® SHIMMER® 2014-01-25 2015-07-25 2018-09-08
BP Lubricants 10122 Aircol SR 32 2016-07-30 Dec Pend
BP Lubricants 10123 Aircol SR 46 2016-07-30 Dec Pend
BP Lubricants 10124 Aircol SR 68 2016-07-30 Dec Pend
BP Lubricants 10125 Aircol SR 100 2016-07-30 Dec Pend
BP Lubricants 10126 Optigear Synthetic 800/680 2016-07-30 Dec Pend
BP Lubricants 10127 Optigear Synthetic 800/220 2016-07-30 Dec Pend
BP Lubricants 10128 Optigear Synthetic 800/320 2016-07-30 Dec Pend
BP Lubricants 10129 Optigear Synthetic 800/460 2016-07-30 Dec Pend
BP Lubricants 10130 Performance Bio NC Super Lite 2016-07-30 Dec Pend
BP Lubricants 10131 Braycote 194 2016-07-30 Dec Pend
BP Lubricants 10132 LubeCon Series O Lubricant 2016-07-30 Dec Pend
BP Lubricants 10133 Anvol WG 46 2016-07-30 Dec Pend
BP Lubricants 10134 Inhibitor 3 2016-07-30 Dec Pend
BP Lubricants 10135 Braycote 803 EP 2016-07-30 Dec Pend
BP Lubricants 10136 LubeCon Series 663 Lubricant 2016-07-30 Dec Pend
BP Lubricants 10137 Braycote 3214 2016-07-30 Dec Pend
BP Lubricants 10138 Iloform 7425 2016-07-30 Dec Pend
BP Lubricants 10139 Ilocut EDM 200 2016-07-30 Dec Pend
BP Lubricants 10140 Braycote Inertox 2 2016-07-30 Dec Pend
BP Lubricants 10141 Tribol CH 290/220 2016-07-30 Dec Pend
BP Lubricants 10146 LubeCon Series VG Light Lubricant 2016-07-30 Dec Pend
BP Lubricants 10147 pH Adjuster 400 2016-07-30 Dec Pend
BP Lubricants 10148 BPL 2841 2016-07-30 Dec Pend
BP Lubricants 10186 Rustilo 4175 2016-11-05 Dec Pend
BP Lubricants 10187 Iloform TRS 185 2016-11-05 Dec Pend
BP Lubricants 10188 Optigear Synthetic 800/150 2016-11-05 Dec Pend
BP Lubricants 10189 Molub-Alloy 491 C 2016-11-05 Dec Pend
BP Lubricants 10190 Alphasyn T 320 2016-11-05 Dec Pend
BP Lubricants 10191 Techniclean S 5001 2016-11-05 Dec Pend
BP Lubricants 10192 Brayco 589 2016-11-05 Dec Pend
BP Lubricants 10193 Brayco Micronic 883 2016-11-05 Dec Pend
BP Lubricants 10194 Rustilo DW 924 2016-11-05 Dec Pend
BP Lubricants 10195 LubeCon Series I/M O Lubricant 2016-11-05 Dec Pend
BP Lubricants 10196 LubeCon Series ATS Lubricant 2016-11-05 Dec Pend
BP Lubricants 10197 Antifoam S 133 2016-11-05 Dec Pend
BP Lubricants 10198 Rustilo DW 180 X 2016-11-05 Dec Pend
BP Lubricants 10199 Rustilo DW 330 2016-11-05 Dec Pend
BP Lubricants 10200 Molub-Alloy WC 2204 SF Heavy 2016-11-05 Dec Pend
BP Lubricants 10201 Molub-Alloy WC 2204 SF Light 2016-11-05 Dec Pend
BP Lubricants 10202 Brayco 599 2016-11-05 Dec Pend
BP Lubricants 10203 LubeCon Series 735 Lubricant 2016-11-05 Dec Pend
BP Lubricants 10204 LubeCon Series I/M 200 Lubricant 2016-11-05 Dec Pend
BP Lubricants 10205 Alphasyn T 460 2016-11-05 Dec Pend
BP Lubricants 10206 Brayco 855 2016-11-05 Dec Pend
BP Lubricants 10207 AA3-129A 2016-11-05 Dec Pend
BP Lubricants 10208 Tribol CS 890/100 2016-11-05 Dec Pend
BP Lubricants 10211 Performance Bio SL 1000 2016-11-05 Dec Pend
BP Lubricants 10212 Rustilo DW 4130 2016-11-05 Dec Pend
BP Lubricants 10213 LubeCon Series III/N Lubricant 2016-11-05 Dec Pend
BP Lubricants 10214 LubeCon Series 301 Lubricant 2016-11-05 Dec Pend
BP Lubricants 10215 LubeCon Series I/M Lubricant 2016-11-05 Dec Pend
BP Lubricants 10216 LubeCon Series I Lubricant 2016-11-05 Dec Pend
BP Lubricants 10217 CareCut SM 452 2016-11-05 Dec Pend
BP Lubricants 10218 Iloform PS 326 2016-11-05 Dec Pend
BP Lubricants 10219 Rustilo Aqua 614 2016-11-05 Dec Pend
BP Lubricants 10220 Rustilo DW 300 2016-11-05 Dec Pend
BP Lubricants 10221 Techniclean MP Flex 2016-11-05 Dec Pend
BP Lubricants 10223 Brayco Micronic 881 2016-11-05 Dec Pend
BP Lubricants 10224 Aero HFS 257 2016-11-05 Dec Pend
BP Lubricants 10225 Optigear Synthetic 800/1000 2016-11-05 Dec Pend
BP Lubricants 10226 Optigear Synthetic 800/2200 2016-11-05 Dec Pend
BP Lubricants 10229 Brayco Micronic 889 2016-11-05 Dec Pend
BP Lubricants 10230 Syntilo 75 EF 2016-11-05 Dec Pend
BP Lubricants 10231 Iloform PS 364 2016-11-05 Dec Pend
BP Lubricants 10246 Techniclean XHD 2016-11-05 Dec Pend
BP Lubricants 10247 Techniclean 2000 2016-11-05 Dec Pend
BP Lubricants 10248 Syntilo CR 68 2016-11-05 Dec Pend
BP Lubricants 10249 Techniclean 3653 2016-11-05 Dec Pend
BP Lubricants 10320 Rustilo Aqua 639 2016-11-05 Dec Pend
BP Lubricants 10349 Optigear RMO 2016-11-05 Dec Pend
BP Lubricants 10353 Rustilo Aqua 616 2016-11-05 Dec Pend
BP Lubricants 10356 Castrol Transmax Mercon V 2016-11-05 Dec Pend
BP Lubricants 10357 Castrol EDGE Professional 5W-30 2016-11-05 Dec Pend
BP Lubricants 10358 Optitemp 6590 2016-11-05 Dec Pend
BP Lubricants 10364 SAF-XJ + Booster 2016-11-05 Dec Pend
BP Lubricants 10620 Rustilo DWX 30 2016-12-31 Dec Pend
BP Lubricants 10621 Hyspin Spindle Oil 2 2016-12-31 Dec Pend
BP Lubricants 10622 Molub-Alloy 6040/460-1 1/2 2016-12-31 Dec Pend
BP Lubricants 10623 Aero 35 Yellow 2016-12-31 Dec Pend
BP Lubricants 10624 Optigear 1100/320 2016-12-31 Dec Pend
BP Lubricants 10625 Optigear Synthetic 1710/460 2016-12-31 Dec Pend
BP Lubricants 10629 Variocut G 500 2016-12-31 Dec Pend
BP Lubricants 10630 Rusilo HL 01 2016-12-31 Dec Pend
BP Lubricants 10631 Molub-Alloy 860/460-2 ES (Summit) 2016-12-31 Dec Pend
BP Lubricants 10637 Optigear Synthetic A 320 2016-12-31 Dec Pend
BP Lubricants 10661 Hysol MB 10 2017-01-28 Dec Pend
BP Lubricants 10662 Alusol AU 70 2017-01-28 Dec Pend
BP Lubricants 10663 Optigear 1100/68 2017-01-28 Dec Pend
BP Lubricants 10668 Optigear 1100/680 2017-01-28 Dec Pend
BP Lubricants 10671 Iloform FST 8 2017-01-28 Dec Pend
BP Lubricants 10672 Molub-Alloy 860/220-2 ES 2017-01-28 Dec Pend
BP Lubricants 10673 Molub-Alloy 860/220-0 ES 2017-01-28 Dec Pend
BP Lubricants 10674 Molub-Alloy 860/150-2 ES 2017-01-28 Dec Pend
BP Lubricants 10771 Optigear BM 68 2017-01-28 Dec Pend
BP Lubricants 10772 Optigear BM 100 2017-01-28 Dec Pend
BP Lubricants 10773 Optigear BM 150 2017-01-28 Dec Pend
BP Lubricants 10774 Optigear BM 220 2017-01-28 Dec Pend
BP Lubricants 10775 Optigear BM 320 2017-01-28 Dec Pend
BP Lubricants 10776 Optigear BM 460 2017-01-28 Dec Pend
BP Lubricants 10777 Optigear BM 680 2017-01-28 Dec Pend
BP Lubricants 10778 Optigear BM 1000 2017-01-28 Dec Pend
BP Lubricants 10779 SafeCoat 66 2017-01-28 Dec Pend
BP Lubricants 10783 Molub-Alloy 860/220-1 ES 2017-01-28 Dec Pend
BP Lubricants 10784 Molub-Alloy 860/150-1 ES 2017-01-28 Dec Pend
BP Lubricants 10786 Ilogrind 950 2017-01-28 Dec Pend
BP Lubricants 10787 Performance Bio NC Ultra Lite EP 2017-01-28 Dec Pend
BP Lubricants 10788 Optigear BM 3000 2017-01-28 Dec Pend
BP Lubricants 10789 Alusol AU 68 2017-01-28 Dec Pend
BP Lubricants 10790 Performance Bio NC Lite 2017-01-28 Dec Pend
BP Lubricants 10791 Performance Bio NC Ultra Lite 2017-01-28 Dec Pend
BP Lubricants 10792 Almaredge 420 2017-01-28 Dec Pend
BP Lubricants 10793 Optigear 1100/220 2017-01-28 Dec Pend
BP Lubricants 10794 Optigear 1100/460 2017-01-28 Dec Pend
BP Lubricants 10795 Variocut G 950 2017-01-28 Dec Pend
BP Lubricants 10796 Rustilo 66 VCI 2017-01-28 Dec Pend
BP Lubricants 10797 Rustilo DW 90 HF 2017-01-28 Dec Pend
BP Lubricants 10798 Optigear Synthetic 1710/320 2017-01-28 Dec Pend
BP Lubricants 10799 Hysol 21 BF 2017-01-28 Dec Pend
BP Lubricants 10800 Alpha HC 220 2017-01-28 Dec Pend
BP Lubricants 10802 Performance Bio HE 32 BPL 2017-01-28 Dec Pend
BP Lubricants 10804 Variocut D 249 2017-01-28 Dec Pend
BP Lubricants 10806 Alpha HC 150 EP 2017-01-28 Dec Pend
BP Lubricants 10825 Iloform CFX 300 2017-01-28 Dec Pend
BP Lubricants 10826 Molub-Alloy Paste White Paste T 2017-01-28 Dec Pend
BP Lubricants 10835 Alusol SL 51 XBB 2017-01-28 Dec Pend
BP Lubricants 10839 Variocut G 600 2017-01-28 Dec Pend
BP Lubricants 10922 Tribol GR 1350-2.5 PD 2017-01-28 Dec Pend
BP Lubricants 10923 Tribol GR 100-0 PD 2017-01-28 Dec Pend
BP Lubricants 10924 Tribol GR 100-00 PD 2017-01-28 Dec Pend
BP Lubricants 10925 Tribol GR 100-1 PD 2017-01-28 Dec Pend
BP Lubricants 10926 Tribol GR 100-2 PD 2017-01-28 Dec Pend
BP Lubricants 10927 Optigear 1100/150 2017-01-28 Dec Pend
BP Lubricants 10928 Variocut C Moly Dee 2017-01-28 Dec Pend
BP Lubricants 10929 Optigear 1100/1500 2017-01-28 Dec Pend
BP Lubricants 10930 Optigear 1100/1000 2017-01-28 Dec Pend
BP Lubricants 10931 Optigear 1100/100 2017-01-28 Dec Pend
Buckeye International Inc. 9354 BUCKEYE BLUE 2015-01-31 2015-10-24 2018-12-08
BWA Water Additives US LLC 8490 BELGARD EV2050 2012-02-18 2014-02-22 2017-04-08
BWA Water Additives US LLC 8491 DP8053 2012-02-18 2014-02-22 2017-04-08
BWA Water Additives US LLC 8492 BELGARD EV2035 2012-02-18 2014-02-22 2017-04-08
BWA Water Additives US LLC 9343 Flocon 260 2015-01-31 2015-10-24 2018-12-08
BWA Water Additives US LLC 9408 Belclene 800 2015-04-25 2015-10-24 2018-12-08
BWA Water Additives US LLC 9409 Belclene 810 2015-04-25 2015-10-24 2018-12-08
BWA Water Additives US LLC 9410 Belcor 585 2015-04-25 2016-01-16 2019-03-01
BWA Water Additives US LLC 9430 BELLASOL S65 2015-04-25 Dec Pend
BWA Water Additives US LLC 9695 BELCLENE 243 2016-01-23 Dec Pend
BWA Water Additives US LLC 9696 Belclene 245 2016-01-23 Dec Pend
BWA Water Additives US LLC 10009 BELLASOL S29 2016-07-30 Dec Pend
BWA Water Additives US LLC 10066 Bellascavenger 71HS 2016-07-30 Dec Pend
BWA Water Additives US LLC 10372 DP3562 2016-11-05 Dec Pend
BWA Water Additives US LLC 10373 BELLASOL S60 2016-11-05 Dec Pend
BWA Water Additives US LLC 10374 BELCLENE 499 2016-11-05 Dec Pend
BWA Water Additives US LLC 10375 BELCLENE 440 2016-11-05 Dec Pend
BYK USA Inc. 8536 ANTI-TERRA-U 2012-04-28 2014-02-22 2017-04-08
BYK USA Inc. 8537 BYK-W 920 2012-04-28 2014-02-22 2017-04-08
BYK USA Inc. 8569 BYK-W 995 2012-04-28 2014-02-22 2017-04-08
BYK USA Inc. 8570 DISPERBYK-110 2012-04-28 2014-02-22 2017-04-08
BYK USA Inc. 8573 BYK-W 990 2012-04-28 2014-02-22 2017-04-08
BYK USA Inc. 8574 DISPERBYK-106 2012-04-28 2014-02-22 2017-04-08
BYK USA Inc. 8575 DISPERBYK-140 2012-04-28 2014-02-22 2017-04-08
BYK USA Inc. 8793 BYK-W 9010 2013-02-23 2014-03-29 2017-05-13
BYK USA Inc. 8804 Disperbyk-2150 2013-02-23 2014-08-02 2017-09-16
BYK USA Inc. 9349 Disperbyk-111 2015-01-31 2016-01-16 2019-03-01
BYK USA Inc. 9350 Disperplast-1150 2015-01-31 2015-10-24 2018-12-08
BYK USA Inc. 9600 BYK-W 966 2015-11-07 Dec Pend
BYK USA Inc. 9601 NANOBYK-3610 2015-11-07 Dec Pend
BYK USA Inc. 9960 Anti-Terra-U 80 2016-07-30 Dec Pend
BYK USA Inc. 9961 BYK-W 980 2016-07-30 Dec Pend
BYK USA Inc. 9962 ANTI-TERRA-U 100 2016-07-30 Dec Pend
BYK USA Inc. 10836 BYK-C 8000 2017-01-28 Dec Pend
Calfrac Well Services Corp. 9357 DWP-926 2015-01-31 2015-10-24 2018-12-08
Calfrac Well Services Corp. 9550 DWP-958 2015-11-07 2016-03-26 2019-05-10
Calfrac Well Services Corp. 10162 CI-9100G 2016-07-30 Dec Pend
Calfrac Well Services Ltd. 8676 DAP-111 2012-09-22 2014-08-02 2017-09-16
Calfrac Well Services Ltd. 8691 DAP-121 2012-09-22 2014-03-29 2017-05-13
Calfrac Well Services Ltd. 8692 DAP-131 2012-09-22 2015-01-31 2018-03-17
Calfrac Well Services Ltd. 8693 DWP-411 2012-09-22 2015-01-31 2018-03-17
Calfrac Well Services Ltd. 8694 DWP-713 2012-09-22 2014-08-02 2017-09-16
Calfrac Well Services Ltd. 8715 DWP-955 2012-12-01 2015-01-31 2018-03-17
Calfrac Well Services Ltd. 8725 DWP-421 2012-12-01 2015-03-28 2018-05-12
Calfrac Well Services Ltd. 8842 DHP-903 2013-02-23 2015-01-31 2018-03-17
Calfrac Well Services Ltd. 8879 DWP-124 2013-09-14 2014-08-02 2017-09-16
Calfrac Well Services Ltd. 8970 DAP-634 2013-09-14 2015-03-28 2018-05-12
Calfrac Well Services Ltd. 9021 DWP-222 2014-01-25 2015-07-25 2018-09-08
Calfrac Well Services Ltd. 9022 DWP-232 2014-01-25 2015-07-25 2018-09-08
Calfrac Well Services Ltd. 9033 DWP-126 2014-01-25 2015-10-24 2018-12-08
Calfrac Well Services Ltd. 9070 DWP-134 2014-01-25 2016-01-16 2019-03-01
Calfrac Well Services Ltd. 9133 DWP-224 2014-04-26 2015-07-25 2018-09-08
Calfrac Well Services Ltd. 9201 DWP-973 2014-07-19 2016-01-16 2019-03-01
Calfrac Well Services Ltd. 10649 DAP-925 2017-01-28 Dec Pend
Calfrac Well Services Ltd. 10650 DAP-401 2017-01-28 Dec Pend
Calfrac Well Services Ltd. 10651 DWP-949 2017-01-28 Dec Pend
Cambrian Solutions Inc. 9699 Cambrex COE-B 2016-01-23 Dec Pend
Canadian Energy Services 9182 EnerScav 02 2014-04-26 Dec Pend
Canadian Energy Services 9218 EnerScav C 2014-07-19 2016-01-16 2019-03-01
Canadian Energy Services 9313 EnerHIB 2015-01-31 2015-10-24 2018-12-08
Canadian Energy Services 9685 SuperCorr A 2016-01-23 Dec Pend
Canadian Energy Services 9686 SuperCorr A SC 2016-01-23 Dec Pend
Canadian Energy Services 9691 SuperCorr B 2016-01-23 Dec Pend
Canadian Energy Services 9692 SuperCorr B SC 2016-01-23 Dec Pend
Canadian Energy Services 9697 PCFLE-200 2016-01-23 Dec Pend
Canadian Energy Services 9720 Sand Control Chemical 2016-01-23 Dec Pend
Canadian Energy Services 9721 EnerScav A 2016-01-23 Dec Pend
Canadian Energy Services 9836 EnerMul P-100 2016-03-26 Dec Pend
Canadian Energy Services 9853 nanoACID 2016-07-30 Dec Pend
Canadian Energy Services 10590 ENERMOD 2016-12-31 Dec Pend
Cansolv Technologies Inc. 8422 CANSOLV™ Absorbent DM 2012-02-18 2014-03-29 2017-05-13
Cansolv Technologies Inc. 9038 Cansolv™ Absorbent DC-103 Concentrate 2014-01-25 2016-01-16 2019-03-01
Cansolv Technologies Inc. 9487 CANSOLV™ Absorbent DS 2015-07-25 2016-01-16 2019-03-01
Cansolv Technologies Inc. 9990 CANSOLV™ Absorbent DC-103 2016-07-30 Dec Pend
Cansolv Technologies Inc. 10054 CANSOLV™ Absorbent DC-201 2016-07-30 Dec Pend
Canyon Technical Services 8340 CAN-LTC HT 2011-12-03 2014-02-22 2017-04-08
Canyon Technical Services 8622 CAN-LTC 2012-06-30 2014-02-22 2017-04-08
CESI Chemical 9171 DWP-967 2014-04-26 2016-01-16 2019-03-01
CESI Chemical 9172 DWP-957 2014-04-26 2015-07-25 2018-09-08
CESI Chemical 9287 FE-7 2014-11-22 2015-10-24 2018-12-08
CESI Chemical 9288 FE-8 2014-11-22 2015-10-24 2018-12-08
CESI Chemical 9360 MA-844W CnF® Additive 2015-01-31 2015-10-24 2018-12-08
Champion Technologies Ltd. 8649 FlowPlus VR-5004 2012-09-22 2015-01-31 2018-03-17
Champion Technologies Ltd. 8667 Flotron® M-269 2012-09-22 2015-03-28 2018-05-12
Champion Technologies Ltd. 9044 Flotron® M-300 2014-01-25 2015-10-24 2018-12-08
Champion Technologies Ltd. 9222 Emulsotron X-8645 2014-07-19 2016-07-16 2019-08-30
Champion Technologies Ltd. 9262 Emulsotron XZ-1677C 2014-11-22 2015-07-25 2018-09-08
Champion Technologies Ltd. 9268 Surfatron DN-158 2014-11-22 2015-10-24 2018-12-08
Champion Technologies Ltd. 9279 Emulsotron X-8127 2014-11-22 2015-07-25 2018-09-08
Champion Technologies Ltd. 9290 Assure HI-203 2014-11-22 2015-10-24 2018-12-08
Champion Technologies Ltd. 9296 Flow Plus VR-1100 2015-01-31 2015-10-24 2018-12-08
Charles Tennant & Company (Canada) Limited 9382 FLEX 20 2015-04-25 2016-01-16 2019-03-01
Charles Tennant & Company (Canada) Limited 9383 FLEX 31 2015-04-25 2016-01-16 2019-03-01
Charles Tennant & Company (Canada) Limited 9384 FLEX 41 2015-04-25 2016-01-16 2019-03-01
Charles Tennant & Company (Canada) Limited 9586 ABATED KAX 41 SOLUTION 2015-11-07 2016-07-16 2019-08-30
Charles Tennant & Company (Canada) Limited 9587 ABATED KAX 51 SOLUTION 2015-11-07 2016-07-16 2019-08-30
Charles Tennant & Company (Canada) Limited 9881 SPRI 1018 2016-07-30 Dec Pend
Chemfax Products Ltd. 8508 MF SIL-SOAP 2012-04-28 2014-08-02 2017-09-16
Chemguard 9273 CHEMGUARD S-764P 2014-11-22 2015-07-25 2018-09-08
Chemours Canada Company 9875 Opteon™ XP140 Refrigerant 2016-07-30 2017-01-28 Pending
Chemtrade Logistics INC. 9510 Clar+Ion® A502P 2015-07-25 2016-03-26 2019-05-10
Chemtrade Logistics INC. 9511 Clar+Ion® A502.5P 2015-07-25 2016-03-26 2019-05-10
Chemtrade Logistics INC. 9512 Clar+Ion® A505P 2015-07-25 2016-03-26 2019-05-10
Chemtrade Logistics INC. 9513 Clar+Ion® A510P 2015-07-25 2016-03-26 2019-05-10
Chemtrade Logistics INC. 9514 Clar+Ion® A515P 2015-07-25 2016-03-26 2019-05-10
Chemtrade Logistics INC. 9515 Hyper+Ion® 705 2015-07-25 2016-03-26 2019-05-10
Chemtrade Logistics INC. 9974 VIRWITE LIQUID (SERIES 100) 2016-07-30 Dec Pend
Chemtrade Logistics INC. 9975 VIRWITE LIQUID (SERIES 200) 2016-07-30 Dec Pend
Chemtrade Logistics INC. 9976 VIRWITE LIQUID (SERIES 300) 2016-07-30 Dec Pend
Chemtrade Logistics INC. 9977 VIRWITE POWDER (SERIES 100) 2016-07-30 Dec Pend
Chemtrade Logistics INC. 9978 VIRWITE POWDER (SERIES 300) 2016-07-30 Dec Pend
Chemtrade Logistics INC. 9979 VIRWITE POWDER (SERIES 300B) 2016-07-30 Dec Pend
Chemtrade Logistics INC. 9980 VIRWITE POWDER (SERIES 400) 2016-07-30 Dec Pend
ChemTreat Inc. 8671 ChemTreat SD176 2012-09-22 2014-03-29 2017-05-13
Chevron Oronite Company LLC 8481 OLOA 9730D 2012-02-18 2014-08-02 2017-09-16
Chevron Oronite Company LLC 8493 OLOA 275JD 2012-02-18 2014-08-02 2017-09-16
Chevron Oronite Company LLC 8567 OLOA 40000 2012-04-28 2014-02-22 2017-04-08
Chevron Oronite Company LLC 8670 OLOA 55501 2012-09-22 2015-01-31 2018-03-17
Chevron Oronite Company LLC 8771 OLOA 59096 2012-12-01 2015-01-31 2018-03-17
Chevron Oronite Company LLC 8772 OLOA 20018 2012-12-01 2015-01-31 2018-03-17
Chevron Oronite Company LLC 8896 LUBAD® 1817 2013-09-14 2015-03-28 2018-05-12
Chevron Oronite Company LLC 8900 OLOA® 55508 2013-09-14 2015-03-28 2018-05-12
Chevron Oronite Company LLC 8967 OLOA® 40814 2013-09-14 2015-03-28 2018-05-12
Chevron Oronite Company LLC 8968 MAR501S 2013-09-14 2015-03-28 2018-05-12
Chevron Oronite Company LLC 9032 LUBAD 1761 2014-01-25 2015-10-24 2018-12-08
Chevron Oronite Company LLC 9129 LUBAD 1710 2014-04-26 2015-07-25 2018-09-08
Chevron Oronite Company LLC 9202 OLOA 54000 2014-07-19 2016-01-16 2019-03-01
Chevron Oronite Company LLC 9226 LUBAD 1829 2014-07-19 2016-01-16 2019-03-01
Chevron Oronite Company LLC 9259 LUBAD 1737 2014-11-22 2015-07-25 2018-09-08
Chevron Oronite Company LLC 9300 OGA 293HF 2015-01-31 2015-10-24 2018-12-08
Chevron Oronite Company LLC 9304 MAR 730P 2015-01-31 2015-10-24 2018-12-08
Chevron Oronite Company LLC 9311 OLOA 49828 2015-01-31 2015-10-24 2018-12-08
Chevron Oronite Company LLC 9418 OLOA 45400E 2015-04-25 2016-01-16 2019-03-01
Chevron Oronite Company LLC 9429 LUBAD 1860 2015-04-25 2016-01-16 2019-03-01
Chevron Oronite Company LLC 9551 OLOA 275JR 2015-11-07 Dec Pend
Chevron Oronite Company LLC 9618 OGA 72043 2015-11-07 2016-07-16 2019-08-30
Chevron Oronite Company LLC 9619 OGA 72040 2015-11-07 2016-07-16 2019-08-30
Chevron Oronite Company LLC 9638 STOCK 10182 2015-11-07 Dec Pend
Chevron Oronite Company LLC 9687 CN 70203 2016-01-23 Dec Pend
Chevron Oronite Company LLC 9958 OLOA 1299W 2016-07-30 Dec Pend
Cleansorb Ltd. 9018 ACIDGEN FG2 2014-01-25 2015-07-25 2018-09-08
ClearTech Industries Inc. 8732 FilterClean A 2012-12-01 2015-01-31 2018-03-17
ClearTech Industries Inc. 8733 FilterClean F 2012-12-01 2014-08-02 2017-09-16
ClearTech Industries Inc. 8734 FilterClean IC 2012-12-01 2015-01-31 2018-03-17
Compass Minerals Manitoba Inc 10632 Wolf Trax Boron DDP 2016-12-31 Dec Pend
Compass Minerals Manitoba Inc 10633 Wolf Trax Calcium DDP 2016-12-31 Dec Pend
Compass Minerals Manitoba Inc 10634 Wolf Trax Copper DDP 2016-12-31 Dec Pend
Compass Minerals Manitoba Inc 10635 Protinus 2016-12-31 Dec Pend
Compass Minerals Manitoba Inc 10636 Wolf Trax Zinc DDP 2016-12-31 Dec Pend
Compass Minerals Manitoba Inc 10745 Wolf Trax Iron DDP 2017-01-28 Dec Pend
Compass Minerals Manitoba Inc 10768 Wolf Trax Manganese DDP 2017-01-28 Dec Pend
Compass Minerals Manitoba Inc 10769 Wolf Trax Nu-Trax P+ 2017-01-28 Dec Pend
Compass Minerals Manitoba Inc 10933 Wolf Trax Statesville Manganese DDP 2017-01-28 Dec Pend
Construction DJL Inc. 9073 Polytech ET1 2014-01-25 2016-01-16 2019-03-01
Construction DJL Inc. 9602 Emulrupt C 2015-11-07 Dec Pend
Covestro LLC 10395 Softcel Polyol VE-1600 2016-11-05 Dec Pend
Covestro LLC 10811 Desmophen 1300 X 2017-01-28 Dec Pend
Covestro LLC 10812 Desmophen 1300 BA 2017-01-28 Dec Pend
Covestro LLC 10813 Desmophen 670 BA 2017-01-28 Dec Pend
Covestro LLC 10814 Desmophen 680 BA 2017-01-28 Dec Pend
Covestro LLC 10815 Desmophen VPLS 2089 2017-01-28 Dec Pend
Covestro LLC 10816 Desmophen 650A-65 PMA 2017-01-28 Dec Pend
Covestro LLC 10817 Desmophen 7116 2017-01-28 Dec Pend
Covestro LLC 10818 Desmophen 651 MPA 2017-01-28 Dec Pend
Covestro LLC 10819 Desmophen R-221-75 2017-01-28 Dec Pend
Covestro LLC 10820 Desmophen NH 1420 2017-01-28 Dec Pend
Covestro LLC 10821 Desmophen NH 1520 2017-01-28 Dec Pend
Covestro LLC 10822 Desmophen NH 2850 2017-01-28 Dec Pend
Covestro LLC 10823 DESMOPHEN VP LS 2328 2017-01-28 Dec Pend
Covestro LLC 10824 DESMOPHEN VP LS 2249/1 2017-01-28 Dec Pend
Covestro LLC 10827 SD 12.1 2017-01-28 Dec Pend
Covestro LLC 10828 Catalyse SD1-2 2017-01-28 Dec Pend
Covestro LLC 10829 Baytec RGD0814-3 2017-01-28 Dec Pend
Covestro LLC 10831 RX700B Polyol 2017-01-28 Dec Pend
Covestro LLC 10832 Softcel Polyol VE-1100 2017-01-28 Dec Pend
Covestro LLC 10833 Multranol 4050 2017-01-28 Dec Pend
Covestro LLC 10834 Baydur PUL2500 Component B 2017-01-28 Dec Pend
Covestro LLC 10837 MULTRANOL 8651 2017-01-28 Dec Pend
Covestro LLC 10841 Desmodur E 743 2017-01-28 Dec Pend
Covestro LLC 10842 Desmodur E 21 2017-01-28 Dec Pend
Covestro LLC 10843 Desmodur E 23 2017-01-28 Dec Pend
Covestro LLC 10844 Desmodur E 28 2017-01-28 Dec Pend
Covestro LLC 10845 Baytec MP-030 2017-01-28 Dec Pend
Covestro LLC 10846 Desmodur MDQ 23165 NM 2017-01-28 Dec Pend
Covestro LLC 10847 Desmodur MAX-D40-SA 2017-01-28 Dec Pend
Covestro LLC 10848 Desmodur 15 S37 2017-01-28 Dec Pend
Covestro LLC 10849 Desmodur MS-090 2017-01-28 Dec Pend
Covestro LLC 10850 Mondur MB ( FUSED) 2017-01-28 Dec Pend
Covestro LLC 10851 Mondur 1488 2017-01-28 Dec Pend
Covestro LLC 10852 Mondur 445 2017-01-28 Dec Pend
Covestro LLC 10853 Mondur 489 2017-01-28 Dec Pend
Covestro LLC 10854 DESMODUR 58IF07M 2017-01-28 Dec Pend
Covestro LLC 10855 Desmodur MAX-T60-SA 2017-01-28 Dec Pend
Covestro LLC 10856 Desmodur MT 2184 2017-01-28 Dec Pend
Covestro LLC 10857 Desmodur MS-242 2017-01-28 Dec Pend
Covestro LLC 10859 Desmodur N 3400 2017-01-28 Dec Pend
Covestro LLC 10860 Desmodur H 2017-01-28 Dec Pend
Covestro LLC 10861 Desmodur N 3790 BA 2017-01-28 Dec Pend
Covestro LLC 10862 Desmodur N 3600 2017-01-28 Dec Pend
Covestro LLC 10863 Desmodur N 3900 2017-01-28 Dec Pend
Covestro LLC 10864 Desmodur N 3300A 2017-01-28 Dec Pend
Covestro LLC 10865 Desmodur N 75A BA/X 2017-01-28 Dec Pend
Covestro LLC 10866 Desmodur N 3390A BA/SN 2017-01-28 Dec Pend
Covestro LLC 10867 Desmodur N 3200A 2017-01-28 Dec Pend
Covestro LLC 10868 Desmodur N 100A 2017-01-28 Dec Pend
Covestro LLC 10869 Desmodur N 75A BA 2017-01-28 Dec Pend
Covestro LLC 10870 Desmodur I 2017-01-28 Dec Pend
Covestro LLC 10871 Desmodur W 2017-01-28 Dec Pend
Covestro LLC 10872 Desmodur N 3800 2017-01-28 Dec Pend
Covestro LLC 10873 Desmodur XP 2489 2017-01-28 Dec Pend
Covestro LLC 10874 Bayhydur 302 2017-01-28 Dec Pend
Covestro LLC 10875 Desmodur XP 2675 2017-01-28 Dec Pend
Covestro LLC 10876 Desmodur XP 2580 2017-01-28 Dec Pend
Covestro LLC 10877 Desmodur XP 2617 2017-01-28 Dec Pend
Covestro LLC 10878 Desmodur WP 260 Z 2017-01-28 Dec Pend
Covestro LLC 10879 Desmodur E 2863 XP 2017-01-28 Dec Pend
Covestro LLC 10880 Desmodur Z4470 SN 2017-01-28 Dec Pend
Covestro LLC 10881 Desmodur Z4470 BA 2017-01-28 Dec Pend
Covestro LLC 10882 Desmodur Z4470 MPA/X 2017-01-28 Dec Pend
Covestro LLC 10883 Desmodur Z4470 SN/BA 2017-01-28 Dec Pend
Covestro LLC 10884 Bayhydur 3100 2017-01-28 Dec Pend
Covestro LLC 10885 Desmodur BL 3475 BA/SN 2017-01-28 Dec Pend
Covestro LLC 10886 Desmodur BL 3370 MPA 2017-01-28 Dec Pend
Covestro LLC 10887 Desmodur PL 350 MPA/SN 2017-01-28 Dec Pend
Covestro LLC 10888 Desmodur PL 340 BA/SN 2017-01-28 Dec Pend
Covestro LLC 10889 Bayhydur XP 7165 2017-01-28 Dec Pend
Covestro LLC 10891 Bayhydrol U 241 2017-01-28 Dec Pend
Covestro LLC 10892 Bayhydrol UH 2342 2017-01-28 Dec Pend
Covestro LLC 10893 Impranil VPLS 2346 2017-01-28 Dec Pend
Covestro LLC 10894 Bayhydrol 110 2017-01-28 Dec Pend
Covestro LLC 10895 Baytec XL 1705 2017-01-28 Dec Pend
Covestro LLC 10896 Baytec RG202 2017-01-28 Dec Pend
Covestro LLC 10897 Baymedix AP501 2017-01-28 Dec Pend
Covestro LLC 10898 Desmocoll 526 2017-01-28 Dec Pend
Covestro LLC 10899 Desmomelt 540/1 2017-01-28 Dec Pend
Covestro LLC 10900 Bayhydrol A 2651 2017-01-28 Dec Pend
Covestro LLC 10901 Desmodur L 75 2017-01-28 Dec Pend
Covestro LLC 10902 Desmodur HL BA 2017-01-28 Dec Pend
Covestro LLC 10903 Desmodur E 14 2017-01-28 Dec Pend
Covestro LLC 10904 Desmodur IL BA 2017-01-28 Dec Pend
Covestro LLC 10905 Desmodur TD630 2017-01-28 Dec Pend
Covestro LLC 10906 Desmodur TD651 2017-01-28 Dec Pend
Covestro LLC 10907 Desmodur TT163 2017-01-28 Dec Pend
Covestro LLC 10908 Desmodur TG 244 2017-01-28 Dec Pend
Covestro LLC 10910 Desmocap 12 2017-01-28 Dec Pend
Covestro LLC 10911 Desmocap 11 2017-01-28 Dec Pend
Covestro LLC 10912 Desmodur DN 2017-01-28 Dec Pend
Covestro LLC 10913 Desmodur BL 3272 MPA 2017-01-28 Dec Pend
Covestro LLC 10914 Bayhydur 305 2017-01-28 Dec Pend
Covestro LLC 10915 Bayhydur XP 2655 2017-01-28 Dec Pend
Covestro LLC 10916 Desmocap 11 A 2017-01-28 Dec Pend
Covestro LLC 10917 Desmocap 12 A 2017-01-28 Dec Pend
Covestro LLC 10918 DESMODUR BL 3175A 2017-01-28 Dec Pend
Covestro LLC 10919 Bayhydur BL 5335 2017-01-28 Dec Pend
Covestro LLC 10920 Desmodur BL 1100/1 2017-01-28 Dec Pend
CRC Canada Co. 10439 GDI IVD™ Intake Valve & Turbo Cleaner 2016-12-31 Dec Pend
CRI/Criterion Inc. 8617 CRITERION CENTERA™ DN-3651 CATALYST 2012-06-30 2015-03-28 2018-05-12
CRI/Criterion Inc. 8761 CRITERION CENTERA™ DN-3636 CATALYST 2012-12-01 2014-08-02 2017-09-16
CRI/Criterion Inc. 8762 CRITERION CENTERA™ DC-Shell CATALYST 2012-12-01 2014-08-02 2017-09-16
CRI/Criterion Inc. 8764 CRITERION CENTERA™ DC-2635 CATALYST 2012-12-01 2014-08-02 2017-09-16
Cytec Industries Inc. 8588 BR® 6747-1 Water Based Primer, 20-40% Solids 2012-06-30 2014-02-22 2017-04-08
Cytec Industries Inc. 8589 AEROSOL® OT-NV Surfactant 2012-06-30 2014-02-22 2017-04-08
Cytec Industries Inc. 8609 BR®1009-8 Tack Primer 2012-06-30 2014-02-22 2017-04-08
Cytec Industries Inc. 8746 AERO® 855 Promoter 2012-12-01 2014-03-29 2017-05-13
Cytec Industries Inc. 8790 BR® 127 Corrosion Inhibiting Primer 2013-02-23 2014-03-29 2017-05-13
Cytec Industries Inc. 8910 CYASORB® 390C Stabilizer 2013-09-14 2015-03-28 2018-05-12
Cytec Industries Inc. 9260 OREPREP® F-603 Frother 2014-11-22 2016-01-16 2019-03-01
Cytec Industries Inc. 9269 ACORGA® DXT55 Solvent Extraction Reagent 2014-11-22 2015-07-25 2018-09-08
Cytec Industries Inc. 9422 BR® 624 Potting Compound 2015-04-25 2016-01-16 2019-03-01
Cytec Industries Inc. 9423 BR® 127 NC ESD Primer 2015-04-25 2016-01-16 2019-03-01
Cytec Industries Inc. 9425 BR® 623-1 Potting Compound 2015-04-25 2016-03-26 2019-05-10
Cytec Industries Inc. 9435 CYASORB® UV-3529 Light Stabilizer 2015-04-25 2016-03-26 2019-05-10
Cytec Industries Inc. 9436 AERO® MAXGOLD® 900 Promoter 2015-04-25 2016-03-26 2019-05-10
Cytec Industries Inc. 9439 MELTBOND® 6726 Primer 2015-04-25 2016-03-26 2019-05-10
Cytec Industries Inc. 9609 CYASORB CYNERGY SOLUTIONS® A400 STABILIZER 2015-11-07 2016-07-16 2019-08-30
Cytec Industries Inc. 9620 AERO® 5100 Promoter 2015-11-07 2016-03-26 2019-05-10
Cytec Industries Inc. 9621 AEROSOL® EF-810 Surfactant 2015-11-07 2016-07-16 2019-08-30
Cytec Industries Inc. 9623 AEROSOL® EF-800 Surfactant 2015-11-07 2016-07-16 2019-08-30
Cytec Industries Inc. 9970 HT® 424 Thixotropic Paste, Part B 2016-07-30 2016-12-17 2020-01-31
Cytec Industries Inc. 10000 BR® 1009-49 Tack Primer 2016-07-30 2017-01-28 Pending
Cytec Industries Inc. 10003 BR® 127 Corrosion Inhibiting Primer, 10% Solids 2016-07-30 Dec Pend
Cytec Industries Inc. 10018 AERO® XD-5002 Promoter 2016-07-30 2016-12-17 2020-01-31
Cytec Industries Inc. 10046 AERO® 3739 Promoter 2016-07-30 2017-01-28 Pending
Cytec Industries Inc. 10063 AERO® 3473 Promoter 2016-07-30 Dec Pend
Cytec Industries Inc. 10657 CYASORB CYNERGY SOLUTIONS® A430 Stabilizer 2017-01-28 Dec Pend
Cytec Industries Inc. 10658 AERO® MX-5160 Promoter 2017-01-28 Dec Pend
Diacon Technologies Ltd. 9616 CEDARBRITE 2015-11-07 2016-07-16 2019-08-30
Di-Corp 10606 OS-80 2016-12-31 Dec Pend
Diversity Technologies Corp. 9333 CHEM CLEAN GREEN 2015-01-31 2015-10-24 2018-12-08
DNA Genotek Inc 9574 MAX Lysis Reagent 2015-11-07 Dec Pend
Dover Finishing Product Inc. 10371 White Ring Remover Marker 2016-11-05 Dec Pend
Dow Chemical Canada ULC 8646 UCARSOL™ SOLVENT COMPONENT DHM 2012-09-22 2014-02-22 2017-04-08
Dow Chemical Canada ULC 8755 UCARSOL™ AP SOLVENT 800 LFG 2012-12-01 2015-01-31 2018-03-17
Dow Chemical Canada ULC 8756 UCARSOL™ AP SOLVENT 806 2012-12-01 2015-01-31 2018-03-17
Dow Chemical Canada ULC 8821 SELEXOL™ Solvent Booster 2013-02-23 2015-01-31 2018-03-17
Dow Chemical Canada ULC 8836 UCARSOL™ LE SOLVENT 703 2013-02-23 2015-01-31 2018-03-17
Dow Chemical Canada ULC 8837 UCARSOL™ HS SOLVENT 101 2013-02-23 2015-01-31 2018-03-17
Dow Chemical Canada ULC 8853 UCARSOL™ NH SOLVENT 602 2013-09-14 2015-01-31 2018-03-17
Dow Chemical Canada ULC 8854 UCARSOL™ AP SOLVENT 810 2013-09-14 2015-01-31 2018-03-17
Dow Chemical Canada ULC 8855 UCARSOL™ NH SOLVENT 608 2013-09-14 2015-01-31 2018-03-17
Dow Chemical Canada ULC 8856 UCARSOL™ AP SOLVENT 814 2013-09-14 2015-01-31 2018-03-17
Dow Chemical Canada ULC 8857 UCARSOL™ AP SOLVENT 804 2013-09-14 2015-01-31 2018-03-17
Dow Chemical Canada ULC 8889 UCARSOL™ HS SOLVENT 133 2013-09-14 2015-01-31 2018-03-17
Dow Chemical Canada ULC 8890 UCARSOL™ HS SOLVENT 102 2013-09-14 2015-01-31 2018-03-17
Dow Chemical Canada ULC 8891 TRITON™ DF-20 Surfactant 2013-09-14 2015-01-31 2018-03-17
Dow Chemical Canada ULC 8920 DOW™ IC-210 GAS CONDITIONING CHELANT 2013-09-14 2015-03-28 2018-05-12
Dow Chemical Canada ULC 8921 DOW™ CA-2003 Sulfur Conditioning Additive 2013-09-14 2015-03-28 2018-05-12
Dow Chemical Canada ULC 9015 XUR201300673-10 2014-01-25 2015-07-25 2018-09-08
Dow Chemical Canada ULC 9253 UCARSOL™ HS SOLVENT 115C 2014-11-22 2015-07-25 2018-09-08
Dow Chemical Canada ULC 9254 DOW™ IC 110 FORMULATED IRON CHELATE MIXTURE 2014-11-22 2015-07-25 2018-09-08
Dow Chemical Canada ULC 9323 SELEXOL® Solvent 2015-01-31 2015-10-24 2018-12-08
Dow Chemical Canada ULC 9387 GT Amine MDX1 2015-04-25 2016-01-16 2019-03-01
Dow Chemical Canada ULC 10615 HYPOL* JM 5008 Prepolymer 2016-12-31 Dec Pend
Dow Corning Corporation 8342 XIAMETER® Q2-3183A Antifoam 2011-12-03 2014-02-22 2017-04-08
Dow Corning Corporation 8684 DOW CORNING® Z-6173 FILLER DISPERSION AID 2012-09-22 2014-03-29 2017-05-13
Dow Corning Corporation 8990 DOW CORNING® XX-1060 THERMALLY CONDUCTIVE MATERIAL 2013-09-14 2015-07-25 2018-09-08
Dow Corning Corporation 9034 DOW CORNING® WG-9010 OPTICAL ADHESIVE 2014-01-25 2015-10-24 2018-12-08
Dow Corning Corporation 9131 DOW CORNING® 3-1953 CONFORMAL COATING 2014-04-26 2016-01-16 2019-03-01
DuPont Electronic and Communication Technologies-MCM 9281 7105 2014-11-22 2015-10-24 2018-12-08
DuPont Electronic and Communication Technologies-MCM 9282 5642 2014-11-22 2015-10-24 2018-12-08
DuPont Electronic and Communication Technologies-MCM 9305 7292 2015-01-31 2015-10-24 2018-12-08
DuPont Electronic and Communication Technologies-MCM 9460 PE772 2015-07-25 2016-03-26 2019-05-10
DuPont Electronic and Communication Technologies-MCM 9461 PE771 2015-07-25 2016-03-26 2019-05-10
DuPont Electronic and Communication Technologies-MCM 9468 PE872 2015-07-25 2016-03-26 2019-05-10
DuPont Electronic Technologies-MCM 8718 5025 2012-12-01 2014-08-02 2017-09-16
DuPont Electronic Technologies-MCM 8719 7102 2012-12-01 2014-08-02 2017-09-16
DuPont Electronic Technologies-MCM 8720 5524 2012-12-01 2014-08-02 2017-09-16
DuPont Electronic Technologies-MCM 8721 CB028 2012-12-01 2014-08-02 2017-09-16
DuPont Electronic Technologies-MCM 8722 7082 2012-12-01 2014-08-02 2017-09-16
DuPont Electronic Technologies-MCM 8723 7164 2012-12-01 2014-08-02 2017-09-16
DuPont Electronic Technologies-MCM 8724 5042 2012-12-01 2014-08-02 2017-09-16
DuPont Electronic Technologies-MCM 8859 5880 2013-09-14 2015-03-28 2018-05-12
DuPont Electronic Technologies-MCM 9027 5029 2014-01-25 2015-07-25 2018-09-08
DuPont Electronic Technologies-MCM 9028 PE825 2014-01-25 2015-07-25 2018-09-08
DuPont Electronic Technologies-MCM 9039 BQ311 2014-01-25 2016-01-16 2019-03-01
DuPont Electronic Technologies-MCM 9227 PE826 2014-07-19 2016-01-16 2019-03-01
DuraSystems Barriers Inc. 10665 SFI-A Resin 2017-01-28 Dec Pend
DuraSystems Barriers Inc. 10780 SFI-B Hardener 2017-01-28 Dec Pend
E.I. du Pont Canada Company 8585 Capstone® FS-3100 2012-06-30 2014-02-22 2017-04-08
E.I. du Pont Canada Company 8798 DuPont ™Semi Gloss Sealer & Finish 2013-02-23 2015-01-31 2018-03-17
E.I. du Pont Canada Company 8799 DuPont™ StoneTech® Professional Semi Gloss Finishing Sealer 2013-02-23 2015-01-31 2018-03-17
E.I. du Pont Canada Company 8872 DuPont™ Capstone® CP 2013-09-14 2015-01-31 2018-03-17
E.I. DuPont Canada Company 8871 DuPont™ Capstone® FS-31 2013-09-14 2015-01-31 2018-03-17
E.I. DuPont Canada Company 8922 Capstone® LPA 2013-09-14 2015-01-31 2018-03-17
E.I. DuPont Canada Company 9058 Capstone® FS-35 2014-01-25 2015-10-24 2018-12-08
E.I. DuPont Canada Company 9283 Endimal™PT 2014-11-22 2015-10-24 2018-12-08
E.I. DuPont Canada Company 9284 Endimal® 500 2014-11-22 2015-10-24 2018-12-08
E.I. DuPont Canada Company 9330 DuPont™ Cyrel® Cylosol Component A 2015-01-31 2015-10-24 2018-12-08
E.I. DuPont Canada Company 9331 DuPont™ Cyrel® Cylosol Component B 2015-01-31 2015-10-24 2018-12-08
ECO-TEC Inc. 9092 ECO BRINE-XLH 2014-01-25 2016-01-16 2019-03-01
ECO-TEC Inc. 10253 SGB/GPB 2016-11-05 Dec Pend
Elementis Specialties, Inc. 9248 THIXATROL® D45 2014-11-22 2015-07-25 2018-09-08
Elementis Specialties, Inc. 9249 THIXATROL® DW 2014-11-22 2015-07-25 2018-09-08
Elementis Specialties, Inc. 9250 THIXATROL® DW50 2014-11-22 2015-07-25 2018-09-08
Elementis Specialties, Inc. 9700 THIXATROL® RM 14 2016-01-23 2016-11-12 2019-12-27
Engenium Chemicals Corporation 8826 CAN-2062 2013-02-23 2014-08-02 2017-09-16
Engenium Chemicals Corporation 8827 INTERPHON SODA 2013-02-23 2014-08-02 2017-09-16
Engenium Chemicals Corporation 8828 Blackstone Onyxmuls S 2013-02-23 2014-08-02 2017-09-16
Engenium Chemicals Corporation 8875 ZX-102 2013-09-14 2014-08-02 2017-09-16
Engenium Chemicals Corporation 8878 OPTIPLUS 2013-09-14 2015-01-31 2018-03-17
Engenium Chemicals Corporation 9007 HydroCOR 2014-01-25 2015-03-28 2018-05-12
Engenium Chemicals Corporation 9339 IH-FR-8 2015-01-31 2015-10-24 2018-12-08
Engenium Chemicals Corporation 9340 IH-FM-8 2015-01-31 2015-10-24 2018-12-08
Engenium Chemicals Corporation 9589 CAN-2064 2015-11-07 2016-07-16 2019-08-30
Engenium Chemicals Corporation 9660 ShearMUL II 2015-11-07 2016-07-16 2019-08-30
Engenium Chemicals Corporation 9684 Mudco-Mul II 2016-01-23 2016-07-16 2019-08-30
Enthone, Inc. 9135 ALUMON® AE-182 2014-04-26 Dec Pend
Enthone, Inc. 9136 ANKOR ® LF19 2014-04-26 2016-01-16 2019-03-01
Enthone, Inc. 9139 CHROME STRIPPER SI 2014-04-26 Dec Pend
Enthone, Inc. 9140 CUPROSTAR® 1550 MAINTENANCE 2014-04-26 2016-01-16 2019-03-01
Enthone, Inc. 9141 CUPROSTAR® AUX 2014-04-26 2015-10-24 2018-12-08
Enthone, Inc. 9142 ENPLATE® AD-485 2014-04-26 Dec Pend
Enthone, Inc. 9143 ENPLATE® EN-623C 2014-04-26 Dec Pend
Enthone, Inc. 9144 ENPREP® 126 2014-04-26 Dec Pend
Enthone, Inc. 9145 ENPREP® R2R 2014-04-26 Dec Pend
Enthone, Inc. 9146 ENSEAL® 140 2014-04-26 2016-01-16 2019-03-01
Enthone, Inc. 9147 ENSTRIP® EN-86A 2014-04-26 Dec Pend
Enthone, Inc. 9148 ENSTRIP® EN-86B 2014-04-26 Dec Pend
Enthone, Inc. 9149 ENSTRIP® GT-317A) 2014-04-26 2016-01-16 2019-03-01
Enthone, Inc. 9150 ENSTRIP® GT-376 B Special 2014-04-26 Dec Pend
Enthone, Inc. 9151 ENSTRIP® S 2014-04-26 Dec Pend
Enthone, Inc. 9153 ENTEK® PLUS HT RB 2014-04-26 Dec Pend
Enthone, Inc. 9154 ENTHOBRITE® CLZ-972-A 2014-04-26 Dec Pend
Enthone, Inc. 9155 ENTHOBRITE® NCZ DIMENSION B 2014-04-26 Dec Pend
Enthone, Inc. 9156 ENVISION® CAT-7350A 2014-04-26 Dec Pend
Enthone, Inc. 9157 PEARLBRITE® K6 ADDITIVE 2014-04-26 2015-07-25 2018-09-08
Enthone, Inc. 9158 PERMA PASS® 3098 HC 2014-04-26 2016-01-16 2019-03-01
Enthone, Inc. 9159 PERMA PASS® 7030-A 2014-04-26 Dec Pend
Enthone, Inc. 9161 PERMA PASS® 7030-B 2014-04-26 2015-07-25 2018-09-08
Enthone, Inc. 9162 PREPARATION 94 X 30 2014-04-26 Dec Pend
Enthone, Inc. 9163 UDIQUE® 879W 2014-04-26 Dec Pend
Enthone, Inc. 9164 UDIQUE® 893 EN STABILIZER IMPROVED 2014-04-26 Dec Pend
Enthone, Inc. 9165 Zalt PA 2014-04-26 Dec Pend
Enthone, Inc. 9166 ZINCROLYTE® KCL-NI BRIGHTENER 2014-04-26 Dec Pend
Enthone, Inc. 9167 ZINCROLYTE® KCL-Ni Extender MV 2014-04-26 Dec Pend
Enthone, Inc. 9168 ZINCROLYTE® KCL-NI L 2014-04-26 Dec Pend
Enthone, Inc. 9169 ANKOR® PF1 2014-04-26 Dec Pend
Enthone, Inc. 9170 ENVISION® CAT-7350B 2014-04-26 2015-07-25 2018-09-08
Enthone, Inc. 9724 ENTHOBRITE® NCZ C 2016-01-23 Dec Pend
Enthone, Inc. 9725 ENTHOBRITE® NCZ CONDITIONER 2016-01-23 Dec Pend
Evolution Energy Services 9856 TERMINOX 2016-07-30 Dec Pend
Evolution Energy Services 9868 Synthetic Acid 2016-07-30 Dec Pend
Evolution Energy Services 10648 U-Cide 2016-12-31 Dec Pend
Evonik Corporation 8984 Dynasylan® HYDROSIL 1151 2013-09-14 2015-03-28 2018-05-12
Evonik Corporation 9243 Protectosil® CHEM-TRETE® PB 100 2014-07-19 2016-01-16 2019-03-01
Evonik Corporation 9308 Protectosil® 300 S 2015-01-31 2015-10-24 2018-12-08
Evonik Corporation 9326 Protectosil® 300 C 2015-01-31 2015-10-24 2018-12-08
Evonik Corporation 9355 Protectosil® CHEM-TRETE® BSM 400 2015-01-31 2015-10-24 2018-12-08
Evonik Corporation 9356 Protectosil® CIT 2015-01-31 2015-10-24 2018-12-08
Evonik Corporation 9624 Dynasylan® 6490 2015-11-07 2016-07-16 2019-08-30
Evonik Performance Materials GmbH 10058 CAPLUS®1101 2016-07-30 Dec Pend
Evonik Performance Materials GmbH 10059 CAPLUS®4101 2016-07-30 Dec Pend
Exaltexx Inc. 9471 Exalt-AMA-100 2015-07-25 Dec Pend
Exaltexx Inc. 9675 ACA - Acid Controlling Additive 2016-01-23 Dec Pend
Exaltexx Inc. 10254 AMA-250 2016-11-05 Dec Pend
Exaltexx Inc. 10417 AMA-200WPA 2016-11-05 Dec Pend
Exaltexx Inc. 10675 SPA - Safe Performance Acid 2017-01-28 Dec Pend
Fairville Products, Inc. 9659 Fuel Right 15K 2015-11-07 Dec Pend
FC PRO, LLC 8786 FCPRO Surfactant 400 2013-02-23 2014-08-02 2017-09-16
Ferro Corporation 8583 Therm-Chek® 837 40 Lb Pail 2012-04-28 2014-08-02 2017-09-16
Flotek Chemistry 10239 paraFLO 1 2016-11-05 Dec Pend
Flotek Chemistry 10416 BetaPro AC 2016-11-05 Dec Pend
Fluid Energy Group Ltd 9211 Enviro-Syn HCR 2000 Series 2014-07-19 2016-01-16 2019-03-01
Fluid Energy Group Ltd 10117 HCR-5000 2016-07-30 Dec Pend
Fluid Energy Group Ltd 10240 Enviro-Syn® HCR-3000 2016-11-05 Dec Pend
Fluid Energy Group Ltd 10808 CI-S220 2017-01-28 Dec Pend
Fusion Technologies Inc 9341 CupBuster-1 2015-01-31 2016-07-16 2019-08-30
Fusion Technologies Inc. 9884 NCE-117 2016-07-30 Dec Pend
Fusion, Incorporated 8539 NPA-1070-400 2012-04-28 2015-01-31 2018-03-17
GE Water & Process Technologies Canada 8352 STYREX 3306 2011-12-03 2014-02-22 2017-04-08
GE Water & Process Technologies Canada 8355 THERMOFLO 7004 2011-12-03 2014-02-22 2017-04-08
GE Water & Process Technologies Canada 8447 THERMOFLO 7008 2012-02-18 2014-02-22 2017-04-08
GE Water & Process Technologies Canada 8449 PROSWEET S1766 2012-02-18 2014-02-22 2017-04-08
GE Water & Process Technologies Canada 8450 PROSWEET S1767 2012-02-18 2014-02-22 2017-04-08
GE Water & Process Technologies Canada 8451 PHILMPLUS 5068 2012-02-18 2014-02-22 2017-04-08
GE Water & Process Technologies Canada 8452 PHILMPLUS 5067 2012-02-18 2014-02-22 2017-04-08
GE Water & Process Technologies Canada 8474 PHILMPLUS 5065 2012-02-18 2014-02-22 2017-04-08
GE Water & Process Technologies Canada 8475 PHILMPLUS 5066 2012-02-18 2014-02-22 2017-04-08
GE Water & Process Technologies Canada 8476 SPEC-AID 8Q206S 2012-02-18 2014-02-22 2017-04-08
GE Water & Process Technologies Canada 8477 INHIBITOR SL8205 2012-02-18 2014-02-22 2017-04-08
GE Water & Process Technologies Canada 8478 GENGARD GN8223 2012-02-18 2014-02-22 2017-04-08
GE Water & Process Technologies Canada 8514 PREDATOR MR2513 2012-04-28 2014-02-22 2017-04-08
GE Water & Process Technologies Canada 8606 PREDATOR 3800 2012-06-30 2014-02-22 2017-04-08
GE Water & Process Technologies Canada 8607 PREDATOR 3801 2012-06-30 2014-02-22 2017-04-08
GE Water & Process Technologies Canada 8608 THERMOFLO 7012 2012-06-30 2014-02-22 2017-04-08
GE Water & Process Technologies Canada 8672 SPEC-AID BIO9101 2012-09-22 2014-08-02 2017-09-16
GE Water & Process Technologies Canada 8673 SPEC-AID BIO9400 2012-09-22 2014-08-02 2017-09-16
GE Water & Process Technologies Canada 8744 POWERTREAT FD9068 2012-12-01 2014-03-29 2017-05-13
GE Water & Process Technologies Canada 8779 SPEC-AID 8Q5701 2013-02-23 2015-01-31 2018-03-17
GE Water & Process Technologies Canada 8780 SPEC-AID 8Q5550 2013-02-23 2015-01-31 2018-03-17
GE Water & Process Technologies Canada 8781 DUSTREAT DC9138E 2013-02-23 2015-01-31 2018-03-17
GE Water & Process Technologies Canada 8782 FERROQUEST LP7200 2013-02-23 2015-01-31 2018-03-17
GE Water & Process Technologies Canada 8783 FERROQUEST LP7202 2013-02-23 2015-01-31 2018-03-17
GE Water & Process Technologies Canada 8784 LOSALT 53D 2013-02-23 2015-01-31 2018-03-17
GE Water & Process Technologies Canada 8795 MAX-AMINE GT741C 2013-02-23 2014-08-02 2017-09-16
GE Water & Process Technologies Canada 8796 DIMETALLIC 00U85 2013-02-23 2014-08-02 2017-09-16
GE Water & Process Technologies Canada 8860 EMBREAK 2W2014 2013-09-14 2015-01-31 2018-03-17
GE Water & Process Technologies Canada 8861 PETROFLO 20Y3416 2013-09-14 2015-01-31 2018-03-17
GE Water & Process Technologies Canada 8862 PROSWEET S1761 2013-09-14 2015-01-31 2018-03-17
GE Water & Process Technologies Canada 8864 SPEC-AID 8Q403ULS 2013-09-14 2015-01-31 2018-03-17
GE Water & Process Technologies Canada 8865 THERMOFLO 7031 2013-09-14 2015-01-31 2018-03-17
GE Water & Process Technologies Canada 8892 Losalt LS1512 2013-09-14 2015-01-31 2018-03-17
GE Water & Process Technologies Canada 8893 Inhibitor VCS2000 2013-09-14 2015-03-28 2018-05-12
GE Water & Process Technologies Canada 8894 Losalt LS1521 2013-09-14 2015-01-31 2018-03-17
GE Water & Process Technologies Canada 8895 Petroflo 20Y3450 2013-09-14 2015-03-28 2018-05-12
GE Water & Process Technologies Canada 9045 SPEC-AID 8Q7501ULS 2014-01-25 2015-10-24 2018-12-08
GE Water & Process Technologies Canada 9046 SPEC-AID 8Q5373ULS 2014-01-25 2015-10-24 2018-12-08
GE Water & Process Technologies Canada 9074 PROSWEET S1790 2014-01-25 2016-01-16 2019-03-01
GE Water & Process Technologies Canada 9075 SPEC-AID 8Q206ULS 2014-01-25 2016-01-16 2019-03-01
GE Water & Process Technologies Canada 9076 SPEC-AID 8Q213C 2014-01-25 2016-01-16 2019-03-01
GE Water & Process Technologies Canada 9077 SPEC-AID 8Q206S ULS 2014-01-25 2016-01-16 2019-03-01
GE Water & Process Technologies Canada 9078 SPEC-AID 8Q107ULS 2014-01-25 2016-01-16 2019-03-01
GE Water & Process Technologies Canada 9079 SPEC-AID 8Q5151ULS 2014-01-25 2016-01-16 2019-03-01
GE Water & Process Technologies Canada 9080 PROSWEET S-1791 2014-01-25 2016-01-16 2019-03-01
GE Water & Process Technologies Canada 9109 SPEC-AID* 8Q206C ULS 2014-04-26 2015-07-25 2018-09-08
GE Water & Process Technologies Canada 9110 SPEC-AID BIO9101ULS 2014-04-26 2015-07-25 2018-09-08
GE Water & Process Technologies Canada 9111 SPEC-AID BIO9400ULS 2014-04-26 2015-07-25 2018-09-08
GE Water & Process Technologies Canada 9178 SPEC-AID 8Q400ULS 2014-04-26 2015-07-25 2018-09-08
GE Water & Process Technologies Canada 9232 PROSWEET OC2557 2014-07-19 2015-10-24 2018-12-08
GE Water & Process Technologies Canada 9289 DM20350 2014-11-22 2015-07-25 2018-09-08
GE Water & Process Technologies Canada 9385 GENGARD GN8020 2015-04-25 2016-01-16 2019-03-01
GE Water & Process Technologies Canada 9386 GENGARD GN8220 2015-04-25 2016-01-16 2019-03-01
GE Water & Process Technologies Canada 9388 GENGARD GN8221 2015-04-25 2016-01-16 2019-03-01
GE Water & Process Technologies Canada 9389 GENGARD GN8222 2015-04-25 2016-01-16 2019-03-01
GE Water & Process Technologies Canada 9390 GENGARD* GN8224 2015-04-25 2016-01-16 2019-03-01
GE Water & Process Technologies Canada 9391 GENGARD GN8225 2015-04-25 2016-01-16 2019-03-01
GE Water & Process Technologies Canada 9392 GENGARD GN8240 2015-04-25 2016-01-16 2019-03-01
GE Water & Process Technologies Canada 9394 PETROFLO 20Y99 2015-04-25 2016-01-16 2019-03-01
GE Water & Process Technologies Canada 9395 PETROFLO 20Y98 2015-04-25 2016-01-16 2019-03-01
GE Water & Process Technologies Canada 9404 MAX-AMINE GT-741 2015-04-25 2016-01-16 2019-03-01
GE Water & Process Technologies Canada 9405 PHILMPLUS* 5K35 2015-04-25 2016-01-16 2019-03-01
GE Water & Process Technologies Canada 9406 STYREX40 2015-04-25 2016-01-16 2019-03-01
GE Water & Process Technologies Canada 9407 GENGARD GN8021 2015-04-25 2016-01-16 2019-03-01
GE Water & Process Technologies Canada 9412 STYREX*50 2015-04-25 2016-01-16 2019-03-01
GE Water & Process Technologies Canada 9414 BETZ PETROMEEN OS-23B 2015-04-25 2016-01-16 2019-03-01
GE Water & Process Technologies Canada 9494 SCALETROL* PDC9489 2015-07-25 2016-07-16 2019-08-30
GE Water & Process Technologies Canada 9495 FUELSOLV* SOX102 2015-07-25 2016-07-16 2019-08-30
GE Water & Process Technologies Canada 9570 THERMOFLO* 7041 2015-11-07 2016-07-16 2019-08-30
GE Water & Process Technologies Canada 9571 PROSWEET* S1794 2015-11-07 2016-07-16 2019-08-30
GE Water & Process Technologies Canada 9688 PROSWEET* S1765 2016-01-23 2016-07-16 2019-08-30
GE Water & Process Technologies Canada 9985 PROSWEET* S1750W 2016-07-30 Dec Pend
GE Water & Process Technologies Canada 9986 PROSWEET* S1760W 2016-07-30 Dec Pend
GE Water & Process Technologies Canada 10149 STYREX 3306 2016-07-30 Dec Pend
GE Water & Process Technologies Canada 10150 THERMOFLO 7002 2016-07-30 Dec Pend
GE Water & Process Technologies Canada 10151 THERMOFLO 7004 2016-07-30 Dec Pend
GE Water & Process Technologies Canada 10152 THERMOFLO 7008 2016-07-30 Dec Pend
GE Water & Process Technologies Canada 10770 GENGARD GN8117 2017-01-28 Dec Pend
Globalchem Consortium Limited 9702 GloChem 3000 2016-01-23 Dec Pend
Glori Canada Ltd. 8791 MM 3000-A Series FR 2013-02-23 2014-03-29 2017-05-13
Gougeon Brothers Inc. 9455 WEST SYSTEM® 105 Epoxy Resin 2015-07-25 Dec Pend
Gougeon Brothers Inc. 10266 WEST SYSTEM® 209 Extra Slow Hardener 2016-11-05 Dec Pend
Gougeon Brothers Inc. 10267 WEST SYSTEM® 205 Fast Hardener 2016-11-05 Dec Pend
Gougeon Brothers Inc. 10268 WEST SYSTEM® 403 Microfibers 2016-11-05 Dec Pend
Gougeon Brothers Inc. 10269 WEST SYSTEM® 404 High-Density Filler 2016-11-05 Dec Pend
Gougeon Brothers Inc. 10270 WEST SYSTEM® 405 Filleting Blend 2016-11-05 Dec Pend
Gougeon Brothers Inc. 10271 WEST SYSTEM® 406 Colloidal Silica 2016-11-05 Dec Pend
Gougeon Brothers Inc. 10272 WEST SYSTEM® 407 Low-Density Filler 2016-11-05 Dec Pend
Gougeon Brothers Inc. 10273 WEST SYSTEM® 410 Microlight® Filler 2016-11-05 Dec Pend
Gougeon Brothers Inc. 10274 WEST SYSTEM® 422 Barrier Coat Additive 2016-11-05 Dec Pend
Gougeon Brothers Inc. 10275 WEST SYSTEM® 206 Slow Hardener 2016-11-05 Dec Pend
Gougeon Brothers Inc. 10276 WEST SYSTEM® SIX10® Resin 2016-11-05 Dec Pend
Gougeon Brothers Inc. 10277 WEST SYSTEM® G/Flex® 650 Part A Resin 2016-11-05 Dec Pend
Gougeon Brothers Inc. 10278 WEST SYSTEM® G/Flex® 655 Part A Resin 2016-11-05 Dec Pend
Gougeon Brothers Inc. 10279 WEST SYSTEM® 865 G/5® Five-Minute Adhesive Part A Resin 2016-11-05 Dec Pend
Gougeon Brothers Inc. 10280 WEST SYSTEM® 865 G/5® Five-Minute Adhesive Part B Hardener 2016-11-05 Dec Pend
Gougeon Brothers Inc. 10281 PRO-SET® LAM-125 Resin 2016-11-05 Dec Pend
Gougeon Brothers Inc. 10282 PRO-SET® LAM-135 Resin 2016-11-05 Dec Pend
Gougeon Brothers Inc. 10283 PRO-SET® LAM-145 Resin 2016-11-05 Dec Pend
Gougeon Brothers Inc. 10284 PRO-SET® LAM-224 Hardener 2016-11-05 Dec Pend
Gougeon Brothers Inc. 10285 PRO-SET® LAM-237 Hardener 2016-11-05 Dec Pend
Gougeon Brothers Inc. 10286 PRO-SET® INF-114 Resin 2016-11-05 Dec Pend
Gougeon Brothers Inc. 10292 PRO-SET® ADV-175-BK 2016-11-05 Dec Pend
Gougeon Brothers Inc. 10293 PRO-SET® ADV-175-NC 2016-11-05 Dec Pend
Gougeon Brothers Inc. 10294 PRO-SET® ADV-175-QC 2016-11-05 Dec Pend
Gougeon Brothers Inc. 10295 PRO-SET® ADV-176-NC 2016-11-05 Dec Pend
Gougeon Brothers Inc. 10296 PRO-SET® ADV-176-QC 2016-11-05 Dec Pend
Gougeon Brothers Inc. 10297 PRO-SET® ADV-176-BK 2016-11-05 Dec Pend
Gougeon Brothers Inc. 10298 PRO-SET® TLG-625-R 2016-11-05 Dec Pend
Gougeon Brothers Inc. 10299 PRO-SET® SBE-160 Resin 2016-11-05 Dec Pend
Gougeon Brothers Inc. 10300 PRO-SET® SBE-262 Hardener 2016-11-05 Dec Pend
Gougeon Brothers Inc. 10301 PRO-SET® SBE-265 Hardener 2016-11-05 Dec Pend
Gougeon Brothers Inc. 10302 PRO-SET® SBE-460 Accelerator 2016-11-05 Dec Pend
Gougeon Brothers Inc. 10303 PRO-SET® M1002 Resin 2016-11-05 Dec Pend
Gougeon Brothers Inc. 10304 PRO-SET® M1007 Resin 2016-11-05 Dec Pend
Gougeon Brothers Inc. 10305 PRO-SET® M1033 Resin 2016-11-05 Dec Pend
Gougeon Brothers Inc. 10306 PRO-SET® M1034 Resin 2016-11-05 Dec Pend
Gougeon Brothers Inc. 10307 PRO-SET® M1038 Resin 2016-11-05 Dec Pend
Gougeon Brothers Inc. 10308 PRO-SET® M2005 Hardener 2016-11-05 Dec Pend
Gougeon Brothers Inc. 10309 PRO-SET® M2010 Hardener 2016-11-05 Dec Pend
Gougeon Brothers Inc. 10310 PRO-SET® M2037 Hardener 2016-11-05 Dec Pend
Gougeon Brothers Inc. 10311 PRO-SET® XR28A Resin 2016-11-05 Dec Pend
Gougeon Brothers Inc. 10312 PRO-SET® XR29A 2016-11-05 Dec Pend
Gougeon Brothers Inc. 10406 PRO-SET® LAM-151-HT Resin 2016-11-05 Dec Pend
Gougeon Brothers Inc. 10407 PRO-SET® LAM-226 Hardener 2016-11-05 Dec Pend
Gougeon Brothers Inc. 10408 PRO-SET® LAM-229 Hardener 2016-11-05 Dec Pend
Gougeon Brothers Inc. 10409 PRO-SET® LAM-239 Hardener 2016-11-05 Dec Pend
Gougeon Brothers Inc. 10410 PRO-SET® LAM-251-HT Hardener 2016-11-05 Dec Pend
Gougeon Brothers Inc. 10411 PRO-SET® INF-210 Hardener 2016-11-05 Dec Pend
Gougeon Brothers Inc. 10412 PRO-SET® INF-211 Hardener 2016-11-05 Dec Pend
Gougeon Brothers Inc. 10413 PRO-SET® INF-212 Hardener 2016-11-05 Dec Pend
Gougeon Brothers Inc. 10414 PRO-SET® INF-251-HT Hardener 2016-11-05 Dec Pend
Gougeon Brothers Inc. 10424 PRO-SET® ADV-275-NC Hardener 2016-12-31 Dec Pend
Gougeon Brothers Inc. 10425 PRO-SET® ADV-275-QC Hardener 2016-12-31 Dec Pend
Gougeon Brothers Inc. 10426 PRO-SET® ADV-277-NC Hardener 2016-12-31 Dec Pend
Gougeon Brothers Inc. 10427 PRO-SET® ADV-277-QC Hardener 2016-12-31 Dec Pend
Gougeon Brothers Inc. 10428 PRO-SET® TLG-625-H Hardener 2016-12-31 Dec Pend
Gougeon Brothers Inc. 10429 PRO-SET® M1019 Resin 2016-12-31 Dec Pend
Gougeon Brothers Inc. 10430 PRO-SET® M1039 Resin 2016-12-31 Dec Pend
Gougeon Brothers Inc. 10431 PRO-SET® M2018 Hardener 2016-12-31 Dec Pend
Gougeon Brothers Inc. 10432 PRO-SET® M2032 Hardener 2016-12-31 Dec Pend
Gougeon Brothers Inc. 10433 PRO-SET® M2036 Hardener 2016-12-31 Dec Pend
Gougeon Brothers Inc. 10434 PRO-SET® M2044 Hardener 2016-12-31 Dec Pend
Gougeon Brothers Inc. 10435 PRO-SET® M2046 Hardener 2016-12-31 Dec Pend
Gougeon Brothers Inc. 10436 WEST SYSTEM® 207 Special Clear Hardener 2016-12-31 Dec Pend
Gougeon Brothers Inc. 10437 PRO-SET® INF-213 Hardener 2016-12-31 Dec Pend
Gougeon Brothers Inc. 10442 WEST SYSTEM® SIX10® Part B Hardener 2016-12-31 Dec Pend
Gougeon Brothers Inc. 10443 WEST SYSTEM® G/flex® 650 Part B Hardener 2016-12-31 Dec Pend
Gougeon Brothers Inc. 10444 WEST SYSTEM® G/flex® 655 Part B Hardener 2016-12-31 Dec Pend
Gougeon Brothers Inc. 10445 PRO-SET® M2012 Hardener 2016-12-31 Dec Pend
Gougeon Brothers Inc. 10446 PRO-SET® M2045 Hardener 2016-12-31 Dec Pend
Gougeon Brothers Inc. 10447 PRO-SET® M2043 Hardener 2016-12-31 Dec Pend
Graffiti Solutions Canada 8506 Citrus Blast Graffiti Remover 2012-02-18 2014-02-22 2017-04-08
Graffiti Solutions Canada 8507 Rhino Blast Graffiti Remover 2012-02-18 2014-02-22 2017-04-08
Graffiti Solutions Canada 8760 Porous Surface Blaster Graffiti Remover 2012-12-01 2014-08-02 2017-09-16
Graffiti Solutions Inc. 8730 Elephant Snot 2012-12-01 2015-03-28 2018-05-12
Graffiti Solutions Inc. 8731 Shadow Max 2012-12-01 2015-03-28 2018-05-12
Greensolv Inc. 9002 G-Strip 255-8ADD 2013-09-14 2015-10-24 2018-12-08
Greensolv Inc. 9016 GREENSOLV 294WL 2014-01-25 2015-10-24 2018-12-08
Guardian Chemicals Inc. 8494 CROSSOVER 2012-02-18 2014-02-22 2017-04-08
Guardian Chemicals Inc. 9263 PRESSGUARD MO 2014-11-22 2015-07-25 2018-09-08
Guardian Chemicals Inc. 9310 PRESSGUARD HP 2015-01-31 2015-10-24 2018-12-08
Hach Company 9093 Amino Acid F Reagent 2014-01-25 Dec Pend
Hach Company 9094 Amino Acid F Reagent Powder for Analyzers 2014-01-25 2015-10-24 2018-12-08
Hach Company 9935 DPD Free Chlorine Reagent 2016-07-30 Dec Pend
Hach Company 9936 DPD Total Chlorine Reagent 2016-07-30 Dec Pend
Hach Company 9937 DPD Compound for Free and Total Chlorine Analyzers 2016-07-30 Dec Pend
Halliburton Energy Services, Inc. 8923 AS-9 ANTI-SLUDGING AGENT 2013-09-14 2015-03-28 2018-05-12
Halliburton Energy Services, Inc. 8924 AS-7 ANTI-SLUDGING AGENT 2013-09-14 2015-03-28 2018-05-12
Halliburton Energy Services, Inc. 8925 A-SPERSE 2013-09-14 2015-03-28 2018-05-12
Halliburton Energy Services, Inc. 8926 19N 2013-09-14 2015-03-28 2018-05-12
Halliburton Energy Services, Inc. 8927 CL-11 CROSSLINKER 2013-09-14 2015-03-28 2018-05-12
Halliburton Energy Services, Inc. 8928 CL-41 2013-09-14 2015-03-28 2018-05-12
Halliburton Energy Services, Inc. 8929 CleanLink 2013-09-14 2015-03-28 2018-05-12
Halliburton Energy Services, Inc. 8930 FDP-S1047-12 2013-09-14 2015-03-28 2018-05-12
Halliburton Energy Services, Inc. 8931 BC-200 UC 2013-09-14 2015-03-28 2018-05-12
Halliburton Energy Services, Inc. 8932 CAT-3 ACTIVATOR 2013-09-14 2015-03-28 2018-05-12
Halliburton Energy Services, Inc. 8933 Cla-Web™ 2013-09-14 2015-03-28 2018-05-12
Halliburton Energy Services, Inc. 8934 Clayfix II Plus 2013-09-14 2015-03-28 2018-05-12
Halliburton Energy Services, Inc. 8935 CLAYFIX II MATERIAL 2013-09-14 2015-03-28 2018-05-12
Halliburton Energy Services, Inc. 8936 CT-ARMOR 2013-09-14 2015-01-31 2018-03-17
Halliburton Energy Services, Inc. 8937 ES-5 PROPLOK SURFACTANT 2013-09-14 2015-03-28 2018-05-12
Halliburton Energy Services, Inc. 8938 FDP-S821-06 2013-09-14 2015-03-28 2018-05-12
Halliburton Energy Services, Inc. 8939 G-SPERSE 2013-09-14 2015-03-28 2018-05-12
Halliburton Energy Services, Inc. 8940 HAI-404™ 2013-09-14 2015-03-28 2018-05-12
Halliburton Energy Services, Inc. 8941 GasPerm 1000™ 2013-09-14 2015-03-28 2018-05-12
Halliburton Energy Services, Inc. 8942 GasPerm 1100 2013-09-14 2015-03-28 2018-05-12
Halliburton Energy Services, Inc. 8943 HAI-OS ACID INHIBITOR 2013-09-14 2015-03-28 2018-05-12
Halliburton Energy Services, Inc. 8944 HC-2 2013-09-14 2015-03-28 2018-05-12
Halliburton Energy Services, Inc. 8945 HII-500M CORROSION INHIBITOR INTENSIFIER 2013-09-14 2015-03-28 2018-05-12
Halliburton Energy Services, Inc. 8946 HZ-20 2013-09-14 2015-03-28 2018-05-12
Halliburton Energy Services, Inc. 8947 LCA-1 2013-09-14 2015-03-28 2018-05-12
Halliburton Energy Services, Inc. 8948 MO-86M 2013-09-14 2015-03-28 2018-05-12
Halliburton Energy Services, Inc. 8949 MUSOL A SOLVENT 2013-09-14 2015-03-28 2018-05-12
Halliburton Energy Services, Inc. 8950 PARASPERSE CLEANER 2013-09-14 2015-03-28 2018-05-12
Halliburton Energy Services, Inc. 8951 PEN-88M 2013-09-14 2015-03-28 2018-05-12
Halliburton Energy Services, Inc. 8952 SGA-HT M Gelling Agent 2013-09-14 2015-07-25 2018-09-08
Halliburton Energy Services, Inc. 8953 SPERSE-ALL M 2013-09-14 2015-03-28 2018-05-12
Halliburton Energy Services, Inc. 8954 SSO-21M WINTERIZED 2013-09-14 2015-03-28 2018-05-12
Halliburton Energy Services, Inc. 8955 WS-36 EMULSIFYING AGENT 2013-09-14 2015-03-28 2018-05-12
Halliburton Energy Services, Inc. 8956 WS-36M 2013-09-14 2015-03-28 2018-05-12
Halliburton Energy Services, Inc. 8957 MO-85M 2013-09-14 2015-03-28 2018-05-12
Halliburton Energy Services, Inc. 8977 LGC-VI UC 2013-09-14 2015-03-28 2018-05-12
Halliburton Energy Services, Inc. 8978 FDP-S867A-07 2013-09-14 2015-03-28 2018-05-12
Halliburton Energy Services, Inc. 8979 CAS-1 2013-09-14 2015-03-28 2018-05-12
Halliburton Energy Services, Inc. 8980 MO-85 LP 2013-09-14 2015-03-28 2018-05-12
Halliburton Energy Services, Inc. 8981 D-AIR 3000W 2013-09-14 2015-03-28 2018-05-12
Halliburton Energy Services, Inc. 9068 FR-66 2014-01-25 2015-10-24 2018-12-08
Halliburton Energy Services, Inc. 9069 CL-23 Crosslinker 2014-01-25 2015-10-24 2018-12-08
Halliburton Energy Services, Inc. 9199 DUAL SPACER SURFACTANT A 2014-07-19 2016-01-16 2019-03-01
Halliburton Energy Services, Inc. 9200 DUAL SPACER SURFACTANT B 2014-07-19 2016-01-16 2019-03-01
Halliburton Energy Services, Inc. 9252 BDF™-642 2014-11-22 2015-07-25 2018-09-08
Halliburton Energy Services, Inc. 9294 CL-40™ CROSSLINKER 2015-01-31 2015-10-24 2018-12-08
Halliburton Energy Services, Inc. 9469 FR-68 2015-07-25 2016-01-16 2019-03-01
Halliburton Energy Services, Inc. 9470 LOSURF-330 SURFACTANT 2015-07-25 2016-03-26 2019-05-10
Halliburton Group Canada 10366 PEN-5M 2016-11-05 Dec Pend
Halliburton Group Canada 10608 BDF™-921 2016-12-31 Dec Pend
Halliburton Group Canada 10619 FDP-S1176-15 2016-12-31 Dec Pend
Henkel Canada Corporation 10610 LOCTITE LIOFOL LA 3709 2016-12-31 Dec Pend
Henkel Canada Corporation 10611 LOCTITE LIOFOL LA 3640 known as TYCEL 7900 2016-12-31 Dec Pend
Henkel Canada Corporation 10612 LOCTITE LIOFOL LA 3817 2016-12-31 Dec Pend
Henkel Canada Corporation 10742 LOCTITE EA 9396 AERO PART A known as EA 9396 PART A 2017-01-28 Dec Pend
Henkel Canada Corporation 10743 LOCTITE EA 9394 AERO PART A known as EA 9394 Part A 2017-01-28 Dec Pend
Henkel Canada Corporation 10744 LOCTITE EA 9895 AERO known as HYSOL EA 9895 2017-01-28 Dec Pend
Henkel Canada Corporation 10782 LePage TiteFoam 2017-01-28 Dec Pend
Hexion Inc. 9563 EPON™ RESIN 233 2015-11-07 2016-07-16 2019-08-30
Hexion Inc. 9564 EPIKURE™ CURING AGENT 3393 2015-11-07 2016-07-16 2019-08-30
Hexion Inc. 9649 EPIKURE™ Curing Agent 8537-WY-60 2015-11-07 2016-11-12 2019-12-27
Hexion Inc. 10348 Fentak™ UR0777 2016-11-05 Dec Pend
Hilti (Canada) Corporation 9420 HIT-ICE 2015-04-25 Dec Pend
Hilti Inc. 8503 HIT-HY 70 2012-02-18 2015-03-28 2018-05-12
Home Hardware Stores Ltd. 9327 ACTIVOX CLEANER 2015-01-31 2015-10-24 2018-12-08
Home Hardware Stores Ltd. 9328 ACTIVOX ACTIVATOR 2015-01-31 2015-10-24 2018-12-08
Home Hardware Stores Ltd. 9847 ACTIVOX SIDING PLUS 2016-03-26 2017-01-28 Pending
Home Hardware Stores Ltd. 9848 ACTIVOX SIDING PLUS ACTIVATOR 2016-03-26 2017-01-28 Pending
Huntsman Corp. 9456 POLYFROTH® H23 2015-07-25 Dec Pend
Huntsman Corp. 9457 POLYFROTH® W22C 2015-07-25 Dec Pend
Hydro Solutions, Inc. 9476 NeutraQuat™ 2015-07-25 Dec Pend
Hydro Technologies (Canada) Inc. 8669 HY BRITE® MNA-8011 2012-09-22 2014-03-29 2017-05-13
Hydro Technologies (Canada) Inc. 8685 HY BRITE® WM-5011 2012-09-22 2014-03-29 2017-05-13
Hydro Technologies (Canada) Inc. 8805 HY BRITE® WM-1107 2013-02-23 2014-03-29 2017-05-13
Hydro Technologies (Canada) Inc. 8845 HY BRITE® WF-9020 2013-02-23 2014-03-29 2017-05-13
Hydro Technologies (Canada) Inc. 8876 HY BRITE® DB 2013-09-14 2015-01-31 2018-03-17
Hydro Technologies (Canada) Inc. 8959 HY BRITE® DB-1300 2013-09-14 2015-03-28 2018-05-12
Hydro Technologies (Canada) Inc. 9017 HY BRITE®RBC-8000 2014-01-25 2015-03-28 2018-05-12
Hydro Technologies (Canada) Inc. 9047 HY BRITE® CBR-1308 2014-01-25 2015-03-28 2018-05-12
Hydro Technologies (Canada) Inc. 9183 HY BRITE® RA-1204 2014-04-26 2015-03-28 2018-05-12
Hydro Technologies (Canada) Inc. 9212 HY BRITE® RBC-1300 2014-07-19 2016-01-16 2019-03-01
Hydro Technologies (Canada) Inc. 9237 HY BRITE® RA-1504 2014-07-19 2016-01-16 2019-03-01
Hydro Technologies (Canada) Inc. 9238 HY BRITE® CK-1109 2014-07-19 2016-01-16 2019-03-01
Hydro Technologies (Canada) Inc. 9265 HY BRITE® RC-3180 2014-11-22 2015-07-25 2018-09-08
Hydro Technologies (Canada) Inc. 9303 HY BRITE® RT-3000 2015-01-31 2015-10-24 2018-12-08
Hydro Technologies (Canada) Inc. 9815 HY BRITE® MNA-1001 2016-03-26 Dec Pend
Hydro Technologies (Canada) Inc. 9950 HY BRITE® KBR-1515 2016-07-30 Dec Pend
Hydro Technologies (Canada) Inc. 9951 HY BRITE® KBR-4016 2016-07-30 Dec Pend
Imperial Oil Limited 10578 Mobil SHC 524 2016-12-31 Dec Pend
Imperial Oil Limited 10676 Mobilarma 245 2017-01-28 Dec Pend
INEOS Oxide LLC 8774 GAS/SPEC* CS-2000* Additive 2013-02-23 2014-08-02 2017-09-16
INEOS Oxide LLC 8775 GAS/SPEC* CS-2010* Solvent 2013-02-23 2014-08-02 2017-09-16
INEOS Oxide LLC 8776 GAS/SPEC* CS-Plus* Solvent 2013-02-23 2014-08-02 2017-09-16
Ingevity Corp. formerly Meadwestvaco Corp. Specialty Chemicals Div. 9191 INDULIN® 201 2014-04-26 2016-03-26 2019-05-10
Ingevity Corp. formerly Meadwestvaco Corp. Specialty Chemicals Div. 9473 EVOTHERM® P15 2015-07-25 2016-03-26 2019-05-10
Ingevity Corp. formerly Meadwestvaco Corp. Specialty Chemicals Div. 9478 EnvaMul™ 1794 2015-07-25 2016-03-26 2019-05-10
Ingevity Corp. formerly Meadwestvaco Corp. Specialty Chemicals Div. 9480 EnvaMul™ 600 2015-07-25 2016-03-26 2019-05-10
Ingevity Corp. formerly Meadwestvaco Corp. Specialty Chemicals Div. 9481 EnvaMul™ 1772 2015-07-25 2016-03-26 2019-05-10
Ingevity Corp. formerly Meadwestvaco Corp. Specialty Chemicals Div. 9540 EVOTHERM® EH 2015-07-25 2016-03-26 2019-05-10
Ingevity Corp. formerly Meadwestvaco Corp. Specialty Chemicals Div. 9552 INDULIN® CBA-5 2015-11-07 2016-07-16 2019-08-30
Ingevity Corp. formerly Meadwestvaco Corp. Specialty Chemicals Div. 9557 EVOFLEX™ CA-2 2015-11-07 2016-07-16 2019-08-30
Ingevity Corp. formerly Meadwestvaco Corp. Specialty Chemicals Div. 9559 INDULIN® AA-83 2015-11-07 2016-03-26 2019-05-10
Ingevity Corp. formerly Meadwestvaco Corp. Specialty Chemicals Div. 9575 INDULIN® AA-81 2015-11-07 2016-03-26 2019-05-10
Ingevity Corp. formerly Meadwestvaco Corp. Specialty Chemicals Div. 9576 INDULIN® AA-89 2015-11-07 2016-03-26 2019-05-10
Ingevity Corp. formerly Meadwestvaco Corp. Specialty Chemicals Div. 9588 INDULIN® XD-70 2015-11-07 2016-07-16 2019-08-30
Ingevity Corp. formerly Meadwestvaco Corp. Specialty Chemicals Div. 9590 INDULIN® JAK 2015-11-07 2016-07-16 2019-08-30
Ingevity Corporation 9832 Enva Mul™ 2157 2016-03-26 2016-12-17 2020-01-31
Ingevity Corporation 9833 INDULIN® 209 (Export Only) 2016-03-26 Dec Pend
Ingevity Corporation 9854 EVOTHERM® P25 2016-07-30 Dec Pend
Ingevity Corporation 9991 PERAL® 600 2016-07-30 Dec Pend
Ingevity Corporation 10006 INDULIN® AQS-50 2016-07-30 Dec Pend
Ingevity Corporation 10355 PC-1919 2016-11-05 Dec Pend
Ingevity Corporation 10365 INDULIN AA-71 2016-11-05 Dec Pend
Ingevity Corporation 10369 PC-2181 2016-11-05 Dec Pend
Ingevity Corporation 10613 EnvaDym 175 2016-12-31 Dec Pend
Ingevity Corporation 10664 Pave 192 2017-01-28 Dec Pend
Innospec Fuel Specialties 8638 Oil Color IAR Liquid Dye 2012-06-30 2014-02-22 2017-04-08
Innospec Fuel Specialties 9783 DCI-80 2016-03-26 2016-12-17 2020-01-31
Innospec Fuel Specialties LLC 9838 DCI-35 2016-03-26 2017-01-28 Pending
Innospec Fuel Specialties LLC 9885 Stadis® 450 2016-07-30 2017-01-28 Pending
Innospec Fuel Specialties LLC 9886 DCI 6A 2016-07-30 2016-12-17 2020-01-31
Innospec Fuel Specialties LLC 9887 Stadis® 425 2016-07-30 2016-12-17 2020-01-31
Innospec Fuel Specialties LLC 9888 DCI-11 PLUS 2016-07-30 Dec Pend
Innospec Fuel Specialties LLC 10008 OGI-6020 2016-07-30 Dec Pend
Innospec Fuel Specialties LLC 10025 OGI-7200 2016-07-30 Dec Pend
Innospec Fuel Specialties LLC 10026 OGI-7625 2016-07-30 Dec Pend
Innospec Fuel Specialties LLC 10027 OGI-7680 2016-07-30 Dec Pend
Innospec Fuel Specialties LLC 10028 OGI-9200 2016-07-30 Dec Pend
Innospec Fuel Specialties LLC 10029 OGI-9217 2016-07-30 Dec Pend
Innospec Fuel Specialties LLC 10030 OGI-4450 2016-07-30 Dec Pend
Innospec Fuel Specialties LLC 10031 OGI-4862 2016-07-30 Dec Pend
Innospec Fuel Specialties LLC 10032 OGI-5993 2016-07-30 Dec Pend
Innospec Fuel Specialties LLC 10033 OGI-6140 2016-07-30 Dec Pend
Innospec Fuel Specialties LLC 10034 OGI-7604 2016-07-30 Dec Pend
Innospec Fuel Specialties LLC 10035 OGI-4710 2016-07-30 Dec Pend
Innospec Fuel Specialties LLC 10036 OGI-4870 2016-07-30 Dec Pend
Innospec Fuel Specialties LLC 10037 OGI-5929 2016-07-30 Dec Pend
Innospec Fuel Specialties LLC 10038 OGI-6055 2016-07-30 Dec Pend
Innospec Fuel Specialties LLC 10039 OGI-7077 2016-07-30 Dec Pend
Innospec Fuel Specialties LLC 10040 OGI-7653 2016-07-30 Dec Pend
Innospec Fuel Specialties LLC 10041 OGI-7681 2016-07-30 Dec Pend
Innospec Fuel Specialties LLC 10042 OGI-7850 2016-07-30 Dec Pend
Innospec Fuel Specialties LLC 10043 OGI-8193 2016-07-30 Dec Pend
Innospec Fuel Specialties LLC 10044 OGI-8517 2016-07-30 Dec Pend
Innospec Fuel Specialties LLC 10045 OGI-9010 2016-07-30 Dec Pend
Innospec Fuel Specialties LLC 10064 OGI-6120 2016-07-30 Dec Pend
Innospec Fuel Specialties LLC 10065 OGI-7675 2016-07-30 Dec Pend
Innospec Fuel Specialties LLC 10159 OGI-9340 2016-07-30 Dec Pend
Innospec Fuel Specialties LLC 10160 OGI-9993 2016-07-30 Dec Pend
Innospec Fuel Specialties LLC 10287 OGI-7682 2016-11-05 Dec Pend
Innospec Fuel Specialties LLC 10399 OGI-7830 2016-11-05 Dec Pend
Innospec Fuel Specialties LLC 10400 OGI-9255 2016-11-05 Dec Pend
Intelligro- a Suncor Business 10068 CIVITAS HARMONIZER™ 2016-07-30 Dec Pend
IPAC Chemicals Ltd 9241 Envirobind CAP 2014-07-19 2016-01-16 2019-03-01
IPAC Chemicals Ltd 9291 Envirobind DCT 2014-11-22 2015-10-24 2018-12-08
IPAC Chemicals Ltd 9329 Envirobind APS 2015-01-31 2016-01-16 2019-03-01
IPAC Chemicals Ltd 10351 POWER Pyroquench 1564C 2016-11-05 Dec Pend
Italmatch Chemicals S.p.A. 8987 SPE 0108 2013-09-14 2015-07-25 2018-09-08
Italmatch Chemicals S.p.A. 8988 SPE 0001 2013-09-14 2015-07-25 2018-09-08
ITW Philadelphia Resins 8571 CHOCKFAST BLACK RESIN 2012-04-28 2014-02-22 2017-04-08
ITW Philadelphia Resins 8572 CHOCKFAST GRAY RESIN 2012-04-28 2014-02-22 2017-04-08
JFB Hart Coatings, Inc. 9255 GLOSSTEK™100 PART B 2014-11-22 2015-07-25 2018-09-08
JFB Hart Coatings, Inc. 9256 GLOSSTEK™ 400 PART B 2014-11-22 2015-07-25 2018-09-08
Kinetic Fuel Technology Inc. 10004 K100D 2016-07-30 Dec Pend
Kinetic Fuel Technology Inc. 10005 K100mD 2016-07-30 Dec Pend
Kinetic Fuel Technology Inc. 10019 K100G+ 2016-07-30 Dec Pend
Kinetic Fuel Technology Inc. 10020 K100S+ 2016-07-30 Dec Pend
Kop-Coat 8660 ENHANCE™ ACTIVATOR 2012-09-22 2014-08-02 2017-09-16
Kop-Coat 9003 DRI-WRAP (5-13) 2013-09-14 2015-07-25 2018-09-08
Lamberti Canada, Incorporated 9606 LDP 3206 2015-11-07 Dec Pend
Lamberti Canada, Incorporated 9826 HI 232C 2016-03-26 Dec Pend
Lamberti Canada, Incorporated 9867 ESATERGE 226/A-S 2016-07-30 Dec Pend
LATICRETE International, Inc 9474 Stone Tech Semi Gloss Finishing Sealer 2015-07-25 2016-03-26 2019-05-10
LATICRETE International, Inc 9475 Semi Gloss Sealer & Finish 2015-07-25 2016-03-26 2019-05-10
Les Produits Techniseal Inc. 10167 Additif RG3 2016-07-30 Dec Pend
Les Produits Techniseal Inc. 10168 Additif RG2 2016-07-30 Dec Pend
Les SpÚcialitÚs L.E.N. 8961 Cleanearth™ Scalecide 2013-09-14 2015-07-25 2018-09-08
Les SpÚcialitÚs L.E.N. 8962 Cleanearth™ Envirocide 2013-09-14 2015-07-25 2018-09-08
Lonza Inc. 8848 Sourban® PW 2013-02-23 2015-01-31 2018-03-17
LTI Coating Technologies, LLC 9625 Optical Coating MS-P601 2015-11-07 Dec Pend
LTI Coating Technologies, LLC 9626 X-WAX-B 2015-11-07 Dec Pend
LTI Coating Technologies, LLC 9627 Optical Coating SUN-400B 2015-11-07 Dec Pend
LTI Coating Technologies, LLC 9628 Optical Coating HT-825 2015-11-07 Dec Pend
LTI Coating Technologies, LLC 9629 Optical Coating HT-850 2015-11-07 Dec Pend
LTI Coating Technologies, LLC 9630 Optical Coating MS-P500 2015-11-07 Dec Pend
LTI Coating Technologies, LLC 9633 Optical Coating MS-U900 2015-11-07 Dec Pend
LTI Coating Technologies, LLC 9634 Optical Coating MS-HR800 2015-11-07 Dec Pend
LTI Coating Technologies, LLC 9635 Optical Coating MS-HR853 2015-11-07 Dec Pend
LTI Coating Technologies, LLC 9636 Optical Coating G-T100 2015-11-07 Dec Pend
LTI Coating Technologies, LLC 9637 Optical Coating G-NT200 2015-11-07 Dec Pend
Lubrizol Corporation 8560 LUBRIZOL® 5515A 2012-04-28 2014-02-22 2017-04-08
Lubrizol Corporation 8820 LUBRIZOL® 5056 2013-02-23 2015-01-31 2018-03-17
Lubrizol Corporation 8831 Lubrizol® 9684 2013-02-23 2015-01-31 2018-03-17
Lubrizol Corporation 8832 Lubrizol® 9680 2013-02-23 2015-01-31 2018-03-17
Lubrizol Corporation 8989 LUBRIZOL® CV9601 2013-09-14 2015-07-25 2018-09-08
Lubrizol Corporation 8998 AMIDEX™ 1248 SURFACTANT 2013-09-14 2015-07-25 2018-09-08
Lubrizol Corporation 9103 ANGLAMOL® 6043 2014-04-26 2015-07-25 2018-09-08
Lubrizol Corporation 9104 ANGLAMOL® 6043U 2014-04-26 2015-07-25 2018-09-08
Lubrizol Corporation 9105 LUBRIZOL® 5186B 2014-04-26 2015-07-25 2018-09-08
Lubrizol Corporation 9118 CARBOPOL® ULTREZ 21 POLYMER 2014-04-26 2015-07-25 2018-09-08
Lubrizol Corporation 9119 CARBOPOL®) ULTREZ 20 POLYMER 2014-04-26 2015-07-25 2018-09-08
Lubrizol Corporation 9120 CARBOPOL® EZ-3 POLYMER 2014-04-26 2015-07-25 2018-09-08
Lubrizol Corporation 9126 LUBRIZOL® 5160 2014-04-26 2015-07-25 2018-09-08
Lubrizol Specialty Products, Inc. 9549 EP™ 2000 Flow Improver 2015-11-07 2016-07-16 2019-08-30
Materia Inc. 9805 Proxima® 2124 Resin 2016-03-26 Dec Pend
Matrix Drilling Fluids Ltd. 8562 MATRIX ASAP RESIN 2012-04-28 2014-02-22 2017-04-08
Matrix Drilling Fluids Ltd. 8563 MATRIX ASAP LTA ACTIVATOR 2012-04-28 2014-02-22 2017-04-08
Matrix Drilling Fluids Ltd. 8564 MATRIX ASAP HTA ACTIVATOR 2012-04-28 2014-02-22 2017-04-08
MeadWestvaco Corp. Specialty Chemicals Div. 8642 POLYFAC™ E-660 2012-06-30 2014-08-02 2017-09-16
MeadWestvaco Corp. Specialty Chemicals Div. 8650 EVOTHERM™ H5 2012-09-22 2015-01-31 2018-03-17
MeadWestvaco Corp. Specialty Chemicals Div. 8651 EVOTHERM™ J1 2012-09-22 2015-01-31 2018-03-17
MeadWestvaco Corp. Specialty Chemicals Div. 8652 EVOTHERM™ M1 2012-09-22 2014-02-22 2017-04-08
MeadWestvaco Corp. Specialty Chemicals Div. 8653 INDULIN® AA-86 2012-09-22 2014-02-22 2017-04-08
MeadWestvaco Corp. Specialty Chemicals Div. 8654 INDULIN® MQ3 2012-09-22 2015-01-31 2018-03-17
MeadWestvaco Corp. Specialty Chemicals Div. 8655 INDULIN® QTS (CANADA) 2012-09-22 2014-03-29 2017-05-13
MeadWestvaco Corp. Specialty Chemicals Div. 8656 INDULIN® SBT 2012-09-22 2014-03-29 2017-05-13
MeadWestvaco Corp. Specialty Chemicals Div. 8657 INDULIN® W-5 2012-09-22 2014-03-29 2017-05-13
MeadWestvaco Corp. Specialty Chemicals Div. 8658 QPR®-H2C 2012-09-22 2015-03-28 2018-05-12
MeadWestvaco Corp. Specialty Chemicals Div. 8659 PAVE BOND® LITE 2012-09-22 2014-08-02 2017-09-16
MeadWestvaco Corp. Specialty Chemicals Div. 8717 Indulin® 814P 2012-12-01 2015-01-31 2018-03-17
MeadWestvaco Corp. Specialty Chemicals Div. 8738 EnvaMul™ 1802 2012-12-01 2014-08-02 2017-09-16
MeadWestvaco Corp. Specialty Chemicals Div. 8739 EnvaCor™ 653 HA 2012-12-01 2014-08-02 2017-09-16
MeadWestvaco Corp. Specialty Chemicals Div. 8740 EnvaCor™ 653 2012-12-01 2014-08-02 2017-09-16
MeadWestvaco Corp. Specialty Chemicals Div. 8741 EnvaCor™703 2012-12-01 2014-08-02 2017-09-16
MeadWestvaco Corp. Specialty Chemicals Div. 8745 EnvaWet™ 653 2012-12-01 2014-08-02 2017-09-16
MeadWestvaco Corp. Specialty Chemicals Div. 8829 EVOTHERM™ R1 2013-02-23 2014-08-02 2017-09-16
MeadWestvaco Corp. Specialty Chemicals Div. 8830 PERAL® 417 2013-02-23 2014-08-02 2017-09-16
MeadWestvaco Corp. Specialty Chemicals Div. 8843 EVOTHERM™ Q1 2013-02-23 2014-08-02 2017-09-16
MeadWestvaco Corp. Specialty Chemicals Div. 8844 INDULIN® 814D 2013-02-23 2015-01-31 2018-03-17
MeadWestvaco Corp. Specialty Chemicals Div. 8917 MORLIFE™ 5000 2013-09-14 2015-07-25 2018-09-08
MeadWestvaco Corp. Specialty Chemicals Div. 8976 INDULIN® 814A 2013-09-14 2015-07-25 2018-09-08
MeadWestvaco Corp. Specialty Chemicals Div. 9192 QPR® SQe 2014-04-26 2015-07-25 2018-09-08
MeadWestvaco Corp. Specialty Chemicals Div. 9251 INDULIN® 206 2014-11-22 2015-03-28 2018-05-12
MeadWestvaco Corp. Specialty Chemicals Div. 9258 INDULIN® SA-L 2014-11-22 2015-07-25 2018-09-08
MeadWestvaco Corp. Specialty Chemicals Div. 9267 PCX-1944 (Export Only) 2014-11-22 2015-07-25 2018-09-08
MeadWestvaco Corp. Specialty Chemicals Div. 9270 EnvaMul™ 1740 2014-11-22 2015-07-25 2018-09-08
MeadWestvaco Corp. Specialty Chemicals Div. 9271 EnvaMul™ 1884 2014-11-22 2015-07-25 2018-09-08
MeadWestvaco Corp. Specialty Chemicals Div. 9280 PC-2016 2014-11-22 2015-07-25 2018-09-08
MeadWestvaco Corp. Specialty Chemicals Div. 9299 EnvaWet ™ SCTO 2015-01-31 2015-10-24 2018-12-08
MeadWestvaco Corp. Specialty Chemicals Div. 9419 EnvaMul™ 1767 2015-04-25 2016-01-16 2019-03-01
MeadWestvaco Corp. Specialty Chemicals Div. 9483 EnvaMul™ 1699 2015-07-25 2016-03-26 2019-05-10
MeadWestvaco Corporation 8324 NUCHAR® WV-IS XL SPECIALTY TREATED ACTIVATED CARBON 2011-09-24 2014-02-22 2017-04-08
Merichem Company 9344 MC-510 2015-01-31 2015-10-24 2018-12-08
Merichem Company 9346 MC-530 2015-01-31 2015-10-24 2018-12-08
Merichem Company 9347 MC-540 2015-01-31 2015-10-24 2018-12-08
Merichem Company 9348 MC-550 2015-01-31 2015-10-24 2018-12-08
M-I SWACO, A Schlumberger Company 9108 EPT-2912 2014-04-26 2015-07-25 2018-09-08
M-I SWACO, A Schlumberger Company 10766 FEDWET 2017-01-28 Dec Pend
M-I SWACO, A Schlumberger Company 10767 FEDMUL 2017-01-28 Dec Pend
Mid-Continental Dental Supply Co. Ltd. 8754 17789456 2012-12-01 2014-03-29 2017-05-13
Momentive Performance Materials 8524 Niax® catalyst C-211 2012-04-28 2014-02-22 2017-04-08
Momentive Performance Materials 8525 Geolite® modifier HR 2012-04-28 2014-02-22 2017-04-08
Momentive Performance Materials 8546 Niax* silicone L-560 2012-04-28 2014-02-22 2017-04-08
Momentive Performance Materials 8547 Silquest* PC-1A silane 2012-04-28 2014-02-22 2017-04-08
Momentive Performance Materials 8548 Silcat* RHS silane 2012-04-28 2014-03-29 2017-05-13
Momentive Performance Materials 8549 Silcat* VS-835 silane 2012-04-28 2014-03-29 2017-05-13
Momentive Performance Materials 8550 Niax* catalyst A-400 2012-04-28 2014-02-22 2017-04-08
Momentive Performance Materials 8551 Niax® catalyst A-200 2012-04-28 2014-08-02 2017-09-16
Momentive Performance Materials 8552 Niax* Silicone L-2125 2012-04-28 2014-02-22 2017-04-08
Momentive Performance Materials 8554 Silwet® 800 2012-04-28 2014-08-02 2017-09-16
Momentive Performance Materials 8555 Silquest® RC-1 silane 2012-04-28 2015-01-31 2018-03-17
Momentive Performance Materials 8556 Niax® silicone Y-10900 2012-04-28 2014-08-02 2017-09-16
Momentive Performance Materials 8580 Niax® silicone L-620 2012-04-28 2014-08-02 2017-09-16
Momentive Performance Materials 8595 Niax® catalyst A-330 2012-06-30 2014-08-02 2017-09-16
Momentive Performance Materials 8596 Niax® silicone L-650 2012-06-30 2015-01-31 2018-03-17
Momentive Performance Materials 8765 Niax® silicone L-5639 2012-12-01 2015-01-31 2018-03-17
Momentive Performance Materials 8788 Silquest® A-1126 silane 2013-02-23 2015-01-31 2018-03-17
Momentive Performance Materials 8802 NuWet* 237 hydrophilic finish 2013-02-23 2015-03-28 2018-05-12
Momentive Performance Materials 8803 Niax® catalyst C-255 2013-02-23 2015-03-28 2018-05-12
Momentive Performance Materials 8899 Niax® silicone L-878 2013-09-14 2015-01-31 2018-03-17
Momentive Performance Materials 9012 SAG® 770 foam control agent 2014-01-25 2015-07-25 2018-09-08
Momentive Performance Materials 9013 Niax® catalyst EF-350 2014-01-25 2015-07-25 2018-09-08
Momentive Performance Materials 9215 Niax® catalyst A-300 2014-07-19 2016-01-16 2019-03-01
Momentive Performance Materials 9219 Niax® silicone L-580 2014-07-19 2016-01-16 2019-03-01
Momentive Performance Materials 9246 Niax® flame lamination additive FLE-200 2014-07-19 2016-01-16 2019-03-01
Momentive Performance Materials 9285 Niax® silicone L-6189 2014-11-22 2015-07-25 2018-09-08
Momentive Performance Materials 9286 Silbreak™ 743 demulsifier 2014-11-22 2015-07-25 2018-09-08
Momentive Performance Materials 9334 Niax silicone L-6705 2015-01-31 2015-10-24 2018-12-08
Momentive Performance Materials 9335 Y-16251 2015-01-31 2015-10-24 2018-12-08
Momentive Performance Materials 9416 Silbreak* 503 demulsifier 2015-04-25 2016-01-16 2019-03-01
Momentive Performance Materials 9421 Niax* flame lamination additive FLE-200LF 2015-04-25 2016-01-16 2019-03-01
Momentive Performance Materials 9442 Niax* silicone L-6915 2015-04-25 2016-03-26 2019-05-10
Momentive Performance Materials 9443 Niax* silicone L-6895 2015-04-25 2016-03-26 2019-05-10
Momentive Performance Materials 9459 Niax* catalyst A-4 2015-07-25 2016-03-26 2019-05-10
Momentive Performance Materials 9464 Niax* catalyst A-230 2015-07-25 2016-03-26 2019-05-10
Momentive Performance Materials 9466 Niax* silicone L-595 2015-07-25 2016-03-26 2019-05-10
Momentive Performance Materials 9472 SPUR+ 1050 MM Prepolymer 2015-07-25 2016-03-26 2019-05-10
Momentive Performance Materials 9534 Niax* silicone L-618 2015-07-25 2016-11-12 2019-12-27
Momentive Performance Materials 9537 Niax* Silicone L-655 2015-07-25 2016-07-16 2019-08-30
Momentive Performance Materials 9547 Silform* INX 2015-11-07 2016-07-16 2019-08-30
Momentive Performance Materials 9548 Niax* Silicone Y-16270 2015-11-07 2016-07-16 2019-08-30
Momentive Performance Materials 9605 Silquest* AF-1 silane 2015-11-07 2016-07-16 2019-08-30
Momentive Performance Materials 9617 Niax* silicone L-590 2015-11-07 2016-07-16 2019-08-30
Momentive Performance Materials 9683 UAX-6994 Silicone surfactant 2016-01-23 2016-07-16 2019-08-30
Momentive Performance Materials 9825 Niax* catalyst A-440 2016-03-26 Dec Pend
Momentive Performance Materials 9828 Silblock* WMS 2016-03-26 Dec Pend
Momentive Performance Materials 9846 SPUR+ 1015 LM Prepolymer Silylated Polyurethane Resin 2016-03-26 Dec Pend
Momentive Performance Materials 9850 Niax* silicone U-2000 Polyalkyleneoxidemethylsiloxane Copolymer 2016-03-26 Dec Pend
Momentive Performance Materials 9858 Niax* silicone L-854 2016-07-30 Dec Pend
Momentive Specailty Chemicals, Inc. 9204 EPI-REZ Resin 6520-WH-53 2014-07-19 2016-03-26 2019-05-10
Momentive Specialty Chemicals Inc. 8469 EPIKURE™ Curing Agent 3164 2012-02-18 2014-02-22 2017-04-08
Multi-Chem Production Chemicals Co. 8911 RockOn™ MX 5-3120 2013-09-14 2015-03-28 2018-05-12
Multi-Chem Production Chemicals Co. 8912 MC SS-5041 2013-09-14 2015-03-28 2018-05-12
Multi-Chem Production Chemicals Co. 8913 MC MX 2-2822 2013-09-14 2015-03-28 2018-05-12
Multi-Chem Production Chemicals Co. 9063 MC MX 5-3504 2014-01-25 2016-01-16 2019-03-01
Multi-Chem Production Chemicals Co. 9229 RockOn™ MX 5-2556 2014-07-19 2016-01-16 2019-03-01
Multi-Chem Production Chemicals Co. 9230 RockOn™ MX 5-3447 2014-07-19 2016-01-16 2019-03-01
Multi-Chem Production Chemicals Co. 9413 MC MX 3-4015 2015-04-25 2015-10-24 2018-12-08
Multi-Chem Production Chemicals Co. 9670 MC EB-1643A 2016-01-23 Dec Pend
Multi-Chem Production Chemicals Co. 9671 MC MX 820-6 2016-01-23 Dec Pend
Multi-Chem Production Chemicals Co. 9672 MC MXC 1-1789 2016-01-23 Dec Pend
Multi-Chem Production Chemicals Co. 9673 MC MX 999-1 2016-01-23 Dec Pend
Multi-Chem Production Chemicals Co. 9706 MC MX 3-4070 2016-01-23 Dec Pend
Multi-Chem Production Chemicals Co. 9707 MC MX 1-1521 2016-01-23 Dec Pend
Multi-Chem Production Chemicals Co. 9708 MC M 6-1886 2016-01-23 Dec Pend
Multi-Chem Production Chemicals Co. 9709 MC MX 6-1647 2016-01-23 Dec Pend
Multi-Chem Production Chemicals Co. 9710 MC MX 1-1190 2016-01-23 Dec Pend
Multi-Chem Production Chemicals Co. 9712 MC MX 794-6 2016-01-23 Dec Pend
Multi-Chem Production Chemicals Co. 9713 MC EB-1825A 2016-01-23 Dec Pend
Multi-Chem Production Chemicals Co. 9714 RockOn MX 5-3774 2016-01-23 Dec Pend
Multi-Chem Production Chemicals Co. 9727 MC MX 924-5 2016-01-23 Dec Pend
Multi-Chem Production Chemicals Co. 9799 MC MX 5-3783 2016-03-26 Dec Pend
Multi-Chem Production Chemicals Co. 9800 HyStop™ MX 5-3920 2016-03-26 Dec Pend
Multi-Chem Production Chemicals Co. 9801 HyStop™ MXI 5-3912 2016-03-26 Dec Pend
Multi-Chem Production Chemicals Co. 9802 HyStop™ MX 5-3910 2016-03-26 Dec Pend
Multi-Chem Production Chemicals Co. 10169 MC P 3040 2016-07-30 Dec Pend
Multi-Chem Production Chemicals Co. 10170 MC P-3014 2016-07-30 Dec Pend
Multi-Chem Production Chemicals Co. 10171 MC MX 6-3331 2016-07-30 Dec Pend
Multi-Chem Production Chemicals Co. 10321 MC MX 826-2 2016-11-05 Dec Pend
Multi-Chem Production Chemicals Co. 10322 MC EB-1645 2016-11-05 Dec Pend
Multi-Chem Production Chemicals Co. 10323 MultiSweet MX 8-1003 2016-11-05 Dec Pend
Multi-Chem Production Chemicals Co. 10324 MC MX 611-1 2016-11-05 Dec Pend
Multi-Chem Production Chemicals Co. 10325 MC EB-1630 2016-11-05 Dec Pend
Multi-Chem Production Chemicals Co. 10326 MC FS-7564 2016-11-05 Dec Pend
Multi-Chem Production Chemicals Co. 10327 MC MX 777-1 2016-11-05 Dec Pend
Multi-Chem Production Chemicals Co. 10328 MC MX 3-3106 2016-11-05 Dec Pend
Multi-Chem Production Chemicals Co. 10329 MC MX 497-1 2016-11-05 Dec Pend
Multi-Chem Production Chemicals Co. 10330 MC WC-7555 2016-11-05 Dec Pend
Multi-Chem Production Chemicals Co. 10331 MultiSweet MX 8-3779 2016-11-05 Dec Pend
Multi-Chem Production Chemicals Co. 10332 MC MXI 1-2153 2016-11-05 Dec Pend
Multi-Chem Production Chemicals Co. 10333 MC MXI 1-1327 2016-11-05 Dec Pend
Multi-Chem Production Chemicals Co. 10334 MC MXI 542-1 2016-11-05 Dec Pend
Multi-Chem Production Chemicals Co. 10335 MC MX 1-3941 2016-11-05 Dec Pend
Multi-Chem Production Chemicals Co. 10336 MultiSweet MX 765-8 2016-11-05 Dec Pend
Multi-Chem Production Chemicals Co. 10337 MC MX 3-4107 2016-11-05 Dec Pend
Multi-Chem Production Chemicals Co. 10338 MC MXI 2-2046 2016-11-05 Dec Pend
Multi-Chem Production Chemicals Co. 10339 MultiSweet MX 765A-8 2016-11-05 Dec Pend
Multi-Chem Production Chemicals Co. 10340 MC MX 6-1027 2016-11-05 Dec Pend
Multi-Chem Production Chemicals Co. 10341 MC MXI 1-2312 2016-11-05 Dec Pend
Multi-Chem Production Chemicals Co. 10342 MC MX 1-1696 2016-11-05 Dec Pend
Multi-Chem Production Chemicals Co. 10343 MC MX 1-2294A 2016-11-05 Dec Pend
Multi-Chem Production Chemicals Co. 10344 MX MX 1-3312 2016-11-05 Dec Pend
Multi-Chem Production Chemicals Co. 10345 MC SS-5609 2016-11-05 Dec Pend
Multi-Chem Production Chemicals Co. 10360 MC MXI 818-2 2016-11-05 Dec Pend
Multi-Chem Production Chemicals Co. 10361 MC MXI 2-1520 2016-11-05 Dec Pend
Multi-Chem Production Chemicals Co. 10362 MC FS-7570 2016-11-05 Dec Pend
Multi-Chem Production Chemicals Co. 10363 MC EB-1037 2016-11-05 Dec Pend
Multi-Chem Production Chemicals Co. 10401 MC MX 8-4138 2016-11-05 Dec Pend
Multi-Chem Production Chemicals Co. 10402 MC MX 1-4136 2016-11-05 Dec Pend
Multi-Chem Production Chemicals Co. 10403 MC MX 1-4141 2016-11-05 Dec Pend
Multi-Chem Production Chemicals Co. 10404 MC FA-4844 2016-11-05 Dec Pend
Multi-Chem Production Chemicals Co. 10669 MC MXI 787-6 2017-01-28 Dec Pend
Multi-Chem Production Chemicals Co. 10670 MC MX 5-4216 2017-01-28 Dec Pend
Nalco Canada Co. 8495 NALCO® EC3003A 2012-02-18 2014-02-22 2017-04-08
Nalco Canada Co. 8496 NALCO® EC3205A 2012-02-18 2014-02-22 2017-04-08
Nalco Canada Co. 8498 COMPTRENE® EC3144B 2012-02-18 2014-02-22 2017-04-08
Nalco Canada Co. 8500 FORTIS® EC3062A 2012-02-18 2014-02-22 2017-04-08
Nalco Canada Co. 8502 MVP® EC9179A 2012-02-18 2014-02-22 2017-04-08
Nalco Canada Co. 8529 NALCO® EC3053A 2012-04-28 2014-02-22 2017-04-08
Nalco Canada Co. 8530 ACTRENE® EC3267A 2012-04-28 2014-03-29 2017-05-13
Nalco Canada Co. 8531 COKE-LESS® EC3279A 2012-04-28 2014-02-22 2017-04-08
Nalco Canada Co. 8532 EnterFast® EC9010G 2012-04-28 2014-03-29 2017-05-13
Nalco Canada Co. 8559 Clean n Cor® EC1509A 2012-04-28 2014-03-29 2017-05-13
Nalco Canada Co. 8597 NALCO® EC6595A 2012-06-30 2014-02-22 2017-04-08
Nalco Canada Co. 8623 NALCO® EC1021A 2012-06-30 2014-03-29 2017-05-13
Nalco Canada Co. 8662 NALCO® EC2670A 2012-09-22 2014-08-02 2017-09-16
Nalco Canada Co. 8686 3D TRASAR® 3DT208 2012-09-22 2015-03-28 2018-05-12
Nalco Canada Co. 8687 BREAXIT® EC6048A 2012-09-22 2014-08-02 2017-09-16
Nalco Canada Co. 8690 NALCO® EC6747A 2012-09-22 2014-03-29 2017-05-13
Nalco Canada Co. 8726 3D TRASAR® 3DT200 2012-12-01 2014-08-02 2017-09-16
Nalco Canada Co. 8752 EC9382A Emulsion Breaker 2012-12-01 2014-08-02 2017-09-16
Nalco Canada Co. 8773 EC3261A ANTIFOULANT 2012-12-01 2014-08-02 2017-09-16
Nalco Canada Co. 8867 NALCO® DVP6P011 2013-09-14 2015-01-31 2018-03-17
Nalco Canada Co. 8868 NALCO® DVP6P012 2013-09-14 2015-01-31 2018-03-17
Nalco Canada Co. 8869 NALCO® VX10987 2013-09-14 2015-03-28 2018-05-12
Nalco Canada Co. 8874 NALCO® VX10902 2013-09-14 2015-03-28 2018-05-12
Nalco Canada Co. 8886 pHREEdom® 5200M 2013-09-14 2015-03-28 2018-05-12
Nalco Canada Co. 8887 NALCO® OS2190 2013-09-14 2015-03-28 2018-05-12
Nalco Canada Co. 8914 DETACK EC9444D 2013-09-14 2015-03-28 2018-05-12
Nalco Canada Co. 8915 NALCO® VX11001 2013-09-14 2015-03-28 2018-05-12
Nalco Canada Co. 8916 DETACK EC9440D 2013-09-14 2015-03-28 2018-05-12
Nalco Canada Co. 8918 DETACK EC9451D 2013-09-14 2015-03-28 2018-05-12
Nalco Canada Co. 8958 NALCO® EC1630A 2013-09-14 2015-03-28 2018-05-12
Nalco Canada Co. 8963 CLEAN N COR® EC1579W 2013-09-14 2015-03-28 2018-05-12
Nalco Canada Co. 8969 NALCO® VX10986 2013-09-14 2015-03-28 2018-05-12
Nalco Canada Co. 8971 BREAXIT® SP177 2013-09-14 2015-03-28 2018-05-12
Nalco Canada Co. 8972 BREAXIT® SP354 2013-09-14 2015-03-28 2018-05-12
Nalco Canada Co. 8975 NALCO® EC9453A 2013-09-14 2015-03-28 2018-05-12
Nalco Canada Co. 8982 NALCO® EC1632A 2013-09-14 2015-03-28 2018-05-12
Nalco Canada Co. 8983 ASP® FNE200 2013-09-14 2015-03-28 2018-05-12
Nalco Canada Co. 8986 NALCO® EC1417A 2013-09-14 2015-07-25 2018-09-08
Nalco Canada Co. 9008 RESOLV® VX10853 2014-01-25 2015-07-25 2018-09-08
Nalco Canada Co. 9019 NALCO® ASP560 2014-01-25 2015-07-25 2018-09-08
Nalco Canada Co. 9067 Nalco® EC6790A 2014-01-25 2016-01-16 2019-03-01
Nalco Canada Co. 9095 NALCO® 73801WR 2014-01-25 2015-07-25 2018-09-08
Nalco Canada Co. 9096 NALCO® DVS3C005 2014-01-25 2015-07-25 2018-09-08
Nalco Canada Co. 9097 EC1447WR CORROSION 2014-01-25 2015-07-25 2018-09-08
Nalco Canada Co. 9098 3D TRASAR® 3DT197 2014-01-25 2015-07-25 2018-09-08
Nalco Canada Co. 9116 EC6019A WATER CLARIFIER 2014-04-26 2016-01-16 2019-03-01
Nalco Canada Co. 9117 BREAXIT® SP396 2014-04-26 2016-01-16 2019-03-01
Nalco Canada Co. 9174 PRISM(R) EC3426A 2014-04-26 2015-07-25 2018-09-08
Nalco Canada Co. 9175 SCORPION(R) EC1023N 2014-04-26 2015-07-25 2018-09-08
Nalco Canada Co. 9176 EnterFast® EC9009G 2014-04-26 2015-07-25 2018-09-08
Nalco Canada Co. 9177 CONVERSION PLUS II EC3403A 2014-04-26 2015-07-25 2018-09-08
Nalco Canada Co. 9179 NALFLOTE® 9837 2014-04-26 2015-10-24 2018-12-08
Nalco Canada Co. 9180 Comptrene® EC3420G 2014-04-26 2016-01-16 2019-03-01
Nalco Canada Co. 9196 ASP® FFS200 2014-04-26 2016-03-26 2019-05-10
Nalco Canada Co. 9203 RESOLV™ EC2630A 2014-07-19 2016-01-16 2019-03-01
Nalco Canada Co. 9234 EnterFast® EC9008B 2014-07-19 2016-01-16 2019-03-01
Nalco Canada Co. 9244 Nalco® OS7070 2014-07-19 2016-01-16 2019-03-01
Nalco Canada Co. 9266 NALCO® EC1510A 2014-11-22 2015-07-25 2018-09-08
Nalco Canada Co. 9298 3D TRASAR® 3DT237 2015-01-31 2015-10-24 2018-12-08
Nalco Canada Co. 9325 NALSIZE® 7548 2015-01-31 2015-10-24 2018-12-08
Nalco Canada ULC 9352 NALCO® EC1021W 2015-01-31 2015-10-24 2018-12-08
Nalco Canada ULC 9353 ACRYL-EX® EC3085A 2015-01-31 2015-10-24 2018-12-08
Nalco Canada ULC 9372 SCORPION® EC1023A 2015-04-25 2015-10-24 2018-12-08
Nalco Canada ULC 9376 SCORPION™ EC1023H 2015-04-25 2015-10-24 2018-12-08
Nalco Canada ULC 9377 DURASOFT™ 64870 2015-04-25 2016-01-16 2019-03-01
Nalco Canada ULC 9396 NALCO® 9729 2015-04-25 2016-01-16 2019-03-01
Nalco Canada ULC 9415 CLEAN N COR® EC1539A 2015-04-25 2015-10-24 2018-12-08
Nalco Canada ULC 9434 NALCO EC1436A 2015-04-25 2016-01-16 2019-03-01
Nalco Canada ULC 9437 NALCO® FFR730 2015-04-25 2016-03-26 2019-05-10
Nalco Canada ULC 9438 FFR760 2015-04-25 2016-03-26 2019-05-10
Nalco Canada ULC 9504 NALCO® EC3038A 2015-07-25 2016-01-16 2019-03-01
Nalco Canada ULC 9507 CLAR10650A 2015-07-25 2016-01-16 2019-03-01
Nalco Canada ULC 9538 METRIX™ 64111 2015-07-25 2016-07-16 2019-08-30
Nalco Canada ULC 9539 METRIX™ 64112 2015-07-25 2016-07-16 2019-08-30
Nalco Canada ULC 9556 Clean n Cor® EC1538A 2015-11-07 2016-07-16 2019-08-30
Nalco Canada ULC 9561 CORE SHELL® 71306 2015-11-07 2016-03-26 2019-05-10
Nalco Canada ULC 9583 EMBR17847A 2015-11-07 2016-07-16 2019-08-30
Nalco Canada ULC 9668 NALCO® EC5494A 2016-01-23 2016-07-16 2019-08-30
Nalco Canada ULC 9669 APEX PF6500 2016-01-23 2016-07-16 2019-08-30
Nalco Canada ULC 9676 X-Corr LT 2016-01-23 2016-07-16 2019-08-30
Nalco Canada ULC 9677 X-Corr HT 2016-01-23 2016-07-16 2019-08-30
Nalco Canada ULC 9678 FFR4100 2016-01-23 2016-07-16 2019-08-30
Nalco Canada ULC 9679 64652 2016-01-23 2016-07-16 2019-08-30
Nalco Canada ULC 9680 NALCO® 64665 2016-01-23 2016-07-16 2019-08-30
Nalco Canada ULC 9693 CLAR10670A 2016-01-23 2016-07-16 2019-08-30
Nalco Canada ULC 9711 SCI-FOAM™ EC7029A 2016-01-23 Dec Pend
Nalco Canada ULC 9719 NALCO® 9908 2016-01-23 Dec Pend
Nalco Canada ULC 9784 NALCO® EC6697A 2016-03-26 2016-11-12 2019-12-27
Nalco Canada ULC 9785 SCAL06690A 2016-03-26 2016-11-12 2019-12-27
Nalco Canada ULC 9824 Torq Free™ HD 2016-03-26 Dec Pend
Nalco Canada ULC 9845 3D TRASAR 3DT408 2016-03-26 Dec Pend
Nalco Canada ULC 9851 CLAR17895A 2016-03-26 Dec Pend
Nalco Canada ULC 9857 NALCO 62950 PLUS 2016-07-30 Dec Pend
Nalco Canada ULC 9862 NALCO® 64591 2016-07-30 Dec Pend
Nalco Canada ULC 9863 NALCO® 64828 2016-07-30 Dec Pend
Nalco Canada ULC 9864 NALCO(R) 64630 2016-07-30 Dec Pend
Nalco Canada ULC 9865 NALCO® 62950 2016-07-30 Dec Pend
Nalco Canada ULC 9968 EC9092A PROCESS ANTIFOULANT 2016-07-30 Dec Pend
Nalco Canada ULC 9972 ASP™ FFR800 2016-07-30 Dec Pend
Nalco Canada ULC 10016 CLAR16730A 2016-07-30 Dec Pend
Nalco Canada ULC 10017 NALCO® EC6730A 2016-07-30 Dec Pend
Nalco Canada ULC 10022 ANE1201 2016-07-30 Dec Pend
Nalco Canada ULC 10067 EMBR17928A 2016-07-30 Dec Pend
Nalco Canada ULC 10145 OPTIMER® 7199 2016-07-30 Dec Pend
Nalco Canada ULC 10156 NALCO® 61950 2016-07-30 Dec Pend
Nalco Canada ULC 10161 83400 Flocculant 2016-07-30 Dec Pend
Nalco Canada ULC 10222 Product 6107 2016-11-05 Dec Pend
Nalco Canada ULC 10233 FHE4250 2016-11-05 Dec Pend
Nalco Canada ULC 10236 EMBR17944A 2016-11-05 Dec Pend
Nalco Canada ULC 10256 SCAL16250A 2016-11-05 Dec Pend
Nalco Canada ULC 10354 NALBRITE™ 62513 2016-11-05 Dec Pend
Nalco Canada ULC 10359 CLAR17970A 2016-11-05 Dec Pend
Nalco Canada ULC 10370 FFR4104 2016-11-05 Dec Pend
Nalco Canada ULC 10380 NALKLEEN™ 2657 2016-11-05 Dec Pend
Nalco Canada ULC 10381 HYDT20300A 2016-11-05 Dec Pend
Nalco Canada ULC 10382 CORR11447XW 2016-11-05 Dec Pend
Nalco Canada ULC 10383 CORR11632A 2016-11-05 Dec Pend
Nalco Canada ULC 10384 CORR11509A 2016-11-05 Dec Pend
Nalco Canada ULC 10385 CLAR16790A 2016-11-05 Dec Pend
Nalco Canada ULC 10386 FOAM17029A 2016-11-05 Dec Pend
Nalco Canada ULC 10387 SCAL06697A 2016-11-05 Dec Pend
Nalco Canada ULC 10388 CORR11539A 2016-11-05 Dec Pend
Nalco Canada ULC 10389 CORR11538A 2016-11-05 Dec Pend
Nalco Canada ULC 10390 SICI21011A 2016-11-05 Dec Pend
Nalco Canada ULC 10391 CLAR16730A 2016-11-05 Dec Pend
Nalco Canada ULC 10392 HSCV19016A 2016-11-05 Dec Pend
Nalco Canada ULC 10393 HSCV19453A 2016-11-05 Dec Pend
Nalco Canada ULC 10394 CORR11630A 2016-11-05 Dec Pend
Nalco Canada ULC 10396 CLAR16019A 2016-11-05 Dec Pend
Nalco Canada ULC 10418 NALCO® EC2483A 2016-11-05 Dec Pend
Nalco Canada ULC 10441 Froth Pro™ 708 2016-12-31 Dec Pend
Nalco Canada ULC 10448 MIN# H12C1 2016-12-31 Dec Pend
Nalco Canada ULC 10449 CLAR18009A 2016-12-31 Dec Pend
Nalco Canada ULC 10450 CLAR17017A 2016-12-31 Dec Pend
Nalco Canada ULC 10451 Froth Pro 337 Plus 2016-12-31 Dec Pend
Nalco Canada ULC 10510 MISC10158A 2016-12-31 Dec Pend
Nalco Canada ULC 10568 Froth Pro™ 610 2016-12-31 Dec Pend
Nalco Canada ULC 10569 Froth Pro™ 618 2016-12-31 Dec Pend
Nalco Canada ULC 10575 Nalco® EC1632A 2016-12-31 Dec Pend
Nalco Canada ULC 10579 15WF766 2016-12-31 Dec Pend
Nalco Canada ULC 10580 EMBR18010A 2016-12-31 Dec Pend
Nalco Canada ULC 10581 MISC20113A 2016-12-31 Dec Pend
Nalco Canada ULC 10584 ACTRENE™ EC3275A 2016-12-31 Dec Pend
Nalco Canada ULC 10601 NALCO® EC3276A 2016-12-31 Dec Pend
Nalco Canada ULC 10602 FillerTEK™ DEV210 2016-12-31 Dec Pend
Nalco Canada ULC 10603 NALCO® 7527 2016-12-31 Dec Pend
Nalco Canada ULC 10604 NALCO® 61523 2016-12-31 Dec Pend
Nalco Canada ULC 10605 NALCO® 61610 2016-12-31 Dec Pend
Nalco Canada ULC 10607 FLEXSORB™ SE EC9016A 2016-12-31 Dec Pend
Nalco Canada ULC 10609 EC3081A PROCESS ANTIFOULANT 2016-12-31 Dec Pend
Nalco Canada ULC 10618 NALCO® NR3000 2016-12-31 Dec Pend
Nalco Canada ULC 10638 EC9547A SURFACTANT 2016-12-31 Dec Pend
Nalco Canada ULC 10639 NALFLOTE™ 9897 2016-12-31 Dec Pend
Nalco Canada ULC 10640 NALCO® DVS4U021 2016-12-31 Dec Pend
Nalco Canada ULC 10641 EC3018A ANTIFOULANT 2016-12-31 Dec Pend
Nalco Canada ULC 10642 NALCO® NM2000 2016-12-31 Dec Pend
Nalco Canada ULC 10655 CLAR17890A 2017-01-28 Dec Pend
Nalco Canada ULC 10781 RESOLV™ EC2600A 2017-01-28 Dec Pend
Nalco Canada ULC 10801 NALSTRIP™ 231MS 2017-01-28 Dec Pend
Nalco Canada ULC 10805 NALKLEEN™ 153SM 2017-01-28 Dec Pend
Nalco Canada ULC 10807 EMBR17847A 2017-01-28 Dec Pend
Nalco Canada ULC 10810 EMBR11677C 2017-01-28 Dec Pend
Nalco Canada ULC 10838 CFS100 2017-01-28 Dec Pend
Nalco Canada ULC 10858 AIM1010 2017-01-28 Dec Pend
Nalco Canada ULC 10932 RA-500 2017-01-28 Dec Pend
NH Resources LLC 9452 HydraScav 2015-04-25 Dec Pend
Novoset LLC 9704 Novoset 120-3A 2016-01-23 Dec Pend
Novoset LLC 9705 Novoset 120-3C 2016-01-23 Dec Pend
Novoset LLC 9723 Novoset 120-4B 2016-01-23 Dec Pend
Novoset LLC 9786 Novoset 120-7A 2016-03-26 Dec Pend
Novoset LLC 9787 Novoset 250 2016-03-26 Dec Pend
Oilflow Solutions Inc. 8482 SI-114 2012-02-18 2014-02-22 2017-04-08
Orcan Solutions Inc. 10803 Naturama G3-A5 - Green Cleaner Degreaser - Concentrate 2017-01-28 Dec Pend
ParaFlow Energy Solutions LLC 10154 ParaFlow® HE-6400 2016-07-30 Dec Pend
ParaFlow Energy Solutions LLC 10155 ParaFlow® HE-1507A 2016-07-30 Dec Pend
PCT Global PTY LTD 9314 ENDUROSHIELD GLASS (US) 2015-01-31 2015-10-24 2018-12-08
PCT Global PTY LTD 9315 ENDUROSHIELD TILES & GROUT (US) 2015-01-31 2015-10-24 2018-12-08
PCT Global PTY LTD 9316 ENDUROSHIELD AUTO GLASS PROFESSIONAL (US) 2015-01-31 2015-10-24 2018-12-08
PCT Global PTY LTD 9317 ENDUROSHIELD STAINLESS STEEL (US) 2015-01-31 2015-10-24 2018-12-08
PMC Organometallix 8905 THERMOLITE® 176 2013-09-14 2015-03-28 2018-05-12
PMC Organometallix 8906 THERMOLITE® 178 2013-09-14 2015-01-31 2018-03-17
PMC Organometallix 8907 THERMOLITE® 140 2013-09-14 2015-03-28 2018-05-12
Power Service Products, Inc. 8371 DIESEL 9·1·1 2011-12-03 2014-08-02 2017-09-16
PPG 10153 Agilon™ Performance Silica 2016-07-30 Dec Pend
Quadra Chemicals Ltd. 9081 JEFFTREAT® M510D 2014-01-25 2015-07-25 2018-09-08
Quadra Chemicals Ltd. 9082 JEFFTREAT® MS-300 50/50 2014-01-25 2015-07-25 2018-09-08
Quadra Chemicals Ltd. 9083 JEFFTREAT® MS-300 2014-01-25 2015-07-25 2018-09-08
Quadra Chemicals Ltd. 9084 JEFFTREAT® M510E 2014-01-25 2015-07-25 2018-09-08
Quadra Chemicals Ltd. 9482 DeltaSolv-2™ 2015-07-25 2016-03-26 2019-05-10
Quadra Chemicals Ltd. 9722 JEFFTREAT® MS-350 2016-01-23 2016-12-17 2020-01-31
Raybo Chemical Company 10055 Raybo 82 AntiStat 2016-07-30 Dec Pend
Raybo Chemical Company 10056 Raybo 41 Spangle 2016-07-30 Dec Pend
Raybo Chemical Company 10057 Raybo 60 NoRust 2016-07-30 Dec Pend
Raybo Chemical Company 10142 Raybo 85 Rustib 2016-07-30 Dec Pend
Raybo Chemical Company 10143 Raybo 5790 OptiSperse 2016-07-30 Dec Pend
Raybo Chemical Company 10144 Raybo 90 NoRust NF 2016-07-30 Dec Pend
Reichhold, Inc. 8472 UROTUF® F83-M-75 2012-02-18 2015-01-31 2018-03-17
Reichhold, Inc. 8807 BECKOSOL AQ® 510 2013-02-23 2015-03-28 2018-05-12
Reichhold, Inc. 9367 BECKOSOL AQ® 305 2015-04-25 2016-01-16 2019-03-01
Reichhold, Inc. 9368 BECKOSOL AQ® 300 2015-04-25 2016-01-16 2019-03-01
Reichhold, Inc. 9369 BECKOSOL AQ® 205 2015-04-25 2016-01-16 2019-03-01
Reichhold, Inc. 9370 BECKOSOL AQ® 201 2015-04-25 2016-01-16 2019-03-01
Reichhold, Inc. 9371 BECKOSOL AQ® 101 2015-04-25 2016-01-16 2019-03-01
Rocanda Enterprises Ltd. 10659 ROC-CS203 2017-01-28 Dec Pend
Rocanda Enterprises Ltd. 10921 ROC-FRW20 2017-01-28 Dec Pend
Rohm and Haas Canada LP 8511 DRYCRYL™ DP-2903 Dispersible Powder 2012-04-28 2014-02-22 2017-04-08
Rohm and Haas Canada LP 8512 PARALOID™ K-125 Processing Aid 2012-04-28 2014-02-22 2017-04-08
Rohm and Haas Canada LP 8640 PARALOID™ KM-4400 2012-06-30 2014-08-02 2017-09-16
Rohm and Haas Canada LP 8716 MONOMER QM-1833 2012-12-01 2015-01-31 2018-03-17
Rohm and Haas Canada LP 8750 PARALOID™ BTA-751ER Impact Modifier 2012-12-01 2014-08-02 2017-09-16
Rohm and Haas Canada LP 8822 PARALOID™ KM-5450 IMPACT MODIFIER 2013-02-23 2014-08-02 2017-09-16
Rohm and Haas Canada LP 8825 PARALOID CSM-751ER Impact Modifier 2013-02-23 2015-01-31 2018-03-17
Rohm and Haas Canada LP 8888 PARALOID ™ EXL-2650A Engineering Resin Additive 2013-09-14 2015-01-31 2018-03-17
Rohm and Haas Canada LP 8904 PARALOID™EXL-2314 IMPACT MODIFIER 2013-09-14 2015-03-28 2018-05-12
Rohm and Haas Canada LP 9122 PARALOID™ KCZ208X IMPACT MODIFIER 2014-04-26 2015-07-25 2018-09-08
Rohm and Haas Canada LP 9223 Preferred DC 2014-07-19 2016-01-16 2019-03-01
Rohm and Haas Canada LP 9257 MONOMER QM-1565 2014-11-22 2015-07-25 2018-09-08
Rohm and Haas Canada LP 9261 PREFERRED DC-15 2014-11-22 2015-07-25 2018-09-08
Rohm and Haas Canada LP 9295 ROMAX™ Activator 1001 2015-01-31 2015-10-24 2018-12-08
Rohm and Haas Canada LP 9426 Preferred DC-15LT 2015-04-25 2015-10-24 2018-12-08
Rohm and Haas Canada LP 9427 Preferred DC-15LT40 2015-04-25 2015-10-24 2018-12-08
Rohm and Haas Canada LP 9444 RINSEABLE PRIMER RP-1 2015-04-25 2016-03-26 2019-05-10
Rohm and Haas Canada LP 9554 Monomer QM-1458 2015-11-07 2016-03-26 2019-05-10
Rohm and Haas Canada LP 9555 Monomer QM-516 2015-11-07 2016-03-26 2019-05-10
Rohm and Haas Canada LP 9870 MONOMER QM-1326AP 2016-07-30 Dec Pend
RoMix Inc 9337 Back-Set Molecular Cement Dissolver 2015-01-31 2015-10-24 2018-12-08
Sani-Marc Inc. 9486 WAVE 2015-07-25 2016-11-12 2019-12-27
Sanjel Corporation 9664 AI-8 2015-11-07 Dec Pend
SaskPower 9275 BDPS ICCS DC-103 Lean, In-Service Amine Absorbent: aka "Lean CO2 Amine" 2014-11-22 2015-10-24 2018-12-08
SaskPower 9276 BDPS ICCS DS Acid-Treated, Lean, In-Service Amine Absorbent: aka "Lean SO2 Amine" 2014-11-22 2015-10-24 2018-12-08
SaskPower 9277 BDPS ICCS DC-103 Rich, In-Service Amine Absorbent: aka "Rich CO2 Amine" 2014-11-22 2015-10-24 2018-12-08
SaskPower 9278 BDPS ICCS DS Acid-Treated, Rich, In-Service Amine Absorbent: aka "Rich SO2 Amine" 2014-11-22 2015-10-24 2018-12-08
Schlumberger Canada Limited 8505 Anti-Sludge Agent W58 2012-02-18 2014-08-02 2017-09-16
Schlumberger Canada Limited 8677 Acid Corrosion Inhibitor A233 2012-09-22 2015-01-31 2018-03-17
Schlumberger Canada Limited 8678 Crosslinker J610 2012-09-22 2015-01-31 2018-03-17
Schlumberger Canada Limited 8679 Emulsion Preventer W063 2012-09-22 2015-01-31 2018-03-17
Schlumberger Canada Limited 8680 Emulsion and Sludge Preventer W064 2012-09-22 2015-01-31 2018-03-17
Schlumberger Canada Limited 8681 Iron Reducing Agent L073 2012-09-22 2014-08-02 2017-09-16
Schlumberger Canada Limited 9041 External CT Corrosion Inhibitor A265 2014-01-25 2016-01-16 2019-03-01
Schlumberger Technology Corporation 9454 Foaming Agent F109 2015-07-25 Dec Pend
Schlumberger Technology Corporation 9645 Non-Emulsifying Agent W54 2015-11-07 Dec Pend
Schlumberger Technology Corporation 9651 W060 2015-11-07 Dec Pend
Schlumberger Technology Corporation 9682 Surfactant F114 2016-01-23 Dec Pend
Schlumberger Technology Corporation 9694 EZEFLO* F103 Surfactant 2016-01-23 Dec Pend
Schlumberger Technology Corporation 9698 Water Friction Reducing Agent J618 2016-01-23 Dec Pend
Schlumberger Technology Corporation 9716 ECOTROL F 2016-01-23 Dec Pend
Schlumberger Technology Corporation 9718 Corrosion Inhibitor A264 2016-01-23 Dec Pend
Schlumberger Technology Corporation 9792 Corrosion Inhibitor A264A 2016-03-26 Dec Pend
Schlumberger Technology Corporation 9993 Scale Inhibitor L074 2016-07-30 Dec Pend
Schlumberger Technology Corporation 10166 ECF-1867 CW 2016-07-30 Dec Pend
Schlumberger Technology Corporation 10209 ECF-2557-EU 2016-11-05 Dec Pend
Schlumberger Technology Corporation 10210 D-STRUCTOR 2016-11-05 Dec Pend
Schlumberger Technology Corporation 10238 B524 Flowback Aid for Hydraulic Fracturing 2016-11-05 Dec Pend
Schlumberger Technology Corporation 10255 DEEPCLEAN 2016-11-05 Dec Pend
Schlumberger Technology Corporation 10627 EMI-1914 2016-12-31 Dec Pend
Schlumberger Technology Corporation 10628 EMI-1915 2016-12-31 Dec Pend
Sealed Air Corporation 8428 INSTAPAK® -40W COMPONENT "B" 2012-02-18 2014-03-29 2017-05-13
Sealed Air Corporation 8429 INSTAPAK® -50W COMPONENT "B" 2012-02-18 2014-03-29 2017-05-13
Sealed Air Corporation 8430 INSTAPAK® -75W COMPONENT "B" 2012-02-18 2014-03-29 2017-05-13
Sealed Air Corporation 8440 INSTAPAK QUICK® COMPONENT "B" 2012-02-18 2014-02-22 2017-04-08
Sealed Air Corporation 8441 INSTAPAK® QUICK TUFF™ COMPONENT "B" 2012-02-18 2014-02-22 2017-04-08
Sealed Air Corporation 8443 INSTAPAK FLOWRITE™ COMPONENT "B" 2012-02-18 2014-02-22 2017-04-08
Sealed Air Corporation 8444 INSTAPAK® RC45 COMPONENT "B" 2012-02-18 2014-02-22 2017-04-08
Secure Energy Services Inc. 9336 SECURE CI-810 2015-01-31 2015-10-24 2018-12-08
Secure Energy Services Inc. 9546 SECURE PA-745 2015-11-07 2016-07-16 2019-08-30
Secure Energy Services Inc. 9883 MOR 2016-07-30 Dec Pend
Secure Energy Services Inc. 10419 K-ForMAX Seal 2016-11-05 Dec Pend
Sekisui Specialty Chemicals America, LLC 10423 SELVOL Polyvinyl Alcohol 6107 2016-12-31 Dec Pend
Sialco Materials Ltd 9943 Lostris - DAA 2016-07-30 Dec Pend
Sialco Materials Ltd 10071 EBR-2430 2016-07-30 Dec Pend
Solvay Canada Inc 9380 AGRHOSPEC HT 2009 2015-04-25 2016-01-16 2019-03-01
Specialty Intermediates, Inc. 9806 CI-429 2016-03-26 Dec Pend
Specialty Intermediates, Inc. 9807 CI-430 2016-03-26 Dec Pend
Specialty Intermediates, Inc. 9810 SIW-476 2016-03-26 Dec Pend
Specialty Intermediates, Inc. 9839 SECURE CI-422 2016-03-26 Dec Pend
Specialty Intermediates, Inc. 9840 SECURE SI-423 2016-03-26 Dec Pend
Specialty Intermediates, Inc. 9841 SECURE DE-646 2016-03-26 Dec Pend
Specialty Intermediates, Inc. 9871 SECURE CI-522 2016-07-30 Dec Pend
Specialty Intermediates, Inc. 9872 SECURE CI-517 2016-07-30 Dec Pend
Specialty Intermediates, Inc. 10178 Secure CI-455 2016-11-05 Dec Pend
Specialty Intermediates, Inc. 10656 OGI-8547 2017-01-28 Dec Pend
Spray & Forget 10594 Spray & Forget RTU 2016-12-31 Dec Pend
Spray & Forget 10600 Spray & Forget Concentrate 2016-12-31 Dec Pend
SSC Inc. 8973 SCL 802IC 2013-09-14 2015-03-28 2018-05-12
Stepan Company 8619 AGENT 3133-35 2012-06-30 2014-03-29 2017-05-13
Stepan Company 8627 TOXIMUL 3404F 2012-06-30 2014-03-29 2017-05-13
Stepan Company 8628 AGENT 2337-92A 2012-06-30 2014-03-29 2017-05-13
Stepan Company 8629 AGENT 2337-92N 2012-06-30 2014-03-29 2017-05-13
Stepan Company 8824 AGENT 2517-74N 2013-02-23 2014-08-02 2017-09-16
Stepan Company 8847 AGENT 3130-22 2013-02-23 2014-08-02 2017-09-16
Stepan Company 8851 PETROSTEP S-3B 2013-09-14 2015-01-31 2018-03-17
Stepan Company 8852 PETROSTEP S-13D HA 2013-09-14 2014-08-02 2017-09-16
Stepan Company 8898 TOXIMUL 8362 2013-09-14 2015-03-28 2018-05-12
Stepan Company 9006 AGENT 4902-018A 2014-01-25 2015-07-25 2018-09-08
Stepan Company 9064 AGENT 150-S24 2014-01-25 2016-01-16 2019-03-01
Stepan Company 9065 PETROSTEP S-1 HA 2014-01-25 2016-01-16 2019-03-01
Stepan Company 9066 AGENT 150-S23 2014-01-25 2016-01-16 2019-03-01
Stepan Company 9099 PETROSTEP LB BLEND 2014-04-26 2016-01-16 2019-03-01
Stepan Company 9106 TOXIMUL 8363 2014-04-26 2016-01-16 2019-03-01
Stepan Company 9195 PETROSTEP CD BLEND 2014-04-26 2015-07-25 2018-09-08
Stepan Company 9213 AGENT 4702-55 2014-07-19 2016-01-16 2019-03-01
Stepan Company 9264 ALPHA-STEP LD-450 2014-11-22 2015-07-25 2018-09-08
Stepan Company 9536 AGENT 3796-95 2015-07-25 2016-03-26 2019-05-10
Stepan Company 9608 STEPOSOL CITRI-MET 2015-11-07 2016-11-12 2019-12-27
Stepan Company 9658 AGENT 3109-6 2015-11-07 2016-07-16 2019-08-30
Stepan Company 9689 PETROSTEP N-1 LA 2016-01-23 2016-11-12 2019-12-27
Stepan Company 10010 TOXIMUL 3454 F 2016-07-30 Dec Pend
Stepan Company 10015 TOXIMUL 3455 F 2016-07-30 Dec Pend
Steve Strba Consulting Inc. 9189 SCL 809 CII 2014-04-26 2016-01-16 2019-03-01
STIMWRX Energy Services Ltd 9319 STIMWRX-EH3 2015-01-31 2015-10-24 2018-12-08
Suncor Energy Inc. 8768 HYUNDAI GEARLUBE 75W85 GL-4 2012-12-01 2014-08-02 2017-09-16
Suncor Energy Inc. 8769 KIA 75W85 GEAROIL PART#99998-0777585 2012-12-01 2014-08-02 2017-09-16
Taylor Technologies, Inc. 10023 DPD REAGENT #2 2016-07-30 Dec Pend
TBF Environmental Technology Inc. 9610 EkaSol 1 2015-11-07 Dec Pend
TBF Environmental Technology Inc. 9611 BerdeSol 2015-11-07 Dec Pend
TBF Environmental Technology Inc. 9612 ShiraSol 2015-11-07 Dec Pend
TBF Environmental Technology Inc. 9613 KradaSol 2015-11-07 Dec Pend
TBF Environmental Technology Inc. 9614 TergoSol 2015-11-07 Dec Pend
TBF Environmental Technology Inc. 9615 ZemaSol 2015-11-07 Dec Pend
The Chemours Canada Company 9650 Endimal® DW 2015-11-07 2016-07-16 2019-08-30
The Lubrizol Corporation 9187 LUBRIZOL® PV1125 2014-04-26 2016-03-26 2019-05-10
The Lubrizol Corporation 9188 ANGLAMOL® 99 2014-04-26 2015-07-25 2018-09-08
The Lubrizol Corporation 9272 LUBRIZOL® IG93MA 2014-11-22 2015-10-24 2018-12-08
The Lubrizol Corporation 9411 LUBRIZOL® 5954AIM 2015-04-25 2016-01-16 2019-03-01
The Lubrizol Corporation 9431 SLF8216 2015-04-25 2016-03-26 2019-05-10
The Lubrizol Corporation 9432 ANGLAMOL® 6055 2015-04-25 Dec Pend
The Lubrizol Corporation 9433 SLF8218 2015-04-25 2016-03-26 2019-05-10
The Lubrizol Corporation 9453 LUBRIZOL® 6312A 2015-07-25 2016-03-26 2019-05-10
The Lubrizol Corporation 9541 FIXATE™ SUPERHOLD POLYMER 2015-07-25 2016-03-26 2019-05-10
The Lubrizol Corporation 9544 Lubrizol® 5782S 2015-07-25 2016-03-26 2019-05-10
The Lubrizol Corporation 9560 LUBRIZOL® 5034A 2015-11-07 2016-11-12 2019-12-27
The Lubrizol Corporation 9582 ANGLAMOL® 33EM 2015-11-07 2016-03-26 2019-05-10
The Lubrizol Corporation 9665 Anglamol® 6043P 2016-01-23 2016-12-17 2020-01-31
The Lubrizol Corporation 9667 Lubrizol® 8219H 2016-01-23 2016-12-17 2020-01-31
The Lubrizol Corporation 9674 Anglamol® 9001N 2016-01-23 2016-12-17 2020-01-31
The Lubrizol Corporation 9690 Alpha 6111spc 2016-01-23 Dec Pend
The Lubrizol Corporation 9793 SILSENSE® PE-100 SILICONE 2016-03-26 2017-01-28 Pending
The Lubrizol Corporation 9831 Powerzol™ 9539 2016-03-26 Dec Pend
The Lubrizol Corporation 9835 Powerzol™ 9543 2016-03-26 Dec Pend
The Lubrizol Corporation 9849 LUBAD 1885 2016-03-26 Dec Pend
The Lubrizol Corporation 9873 Lubrizol® 9660 2016-07-30 Dec Pend
The Lubrizol Corporation 9874 Lubrizol® 9690 2016-07-30 Dec Pend
The Lubrizol Corporation 10011 LUBRIZOL® GR111A 2016-07-30 Dec Pend
The Lubrizol Corporation 10024 SOLSPERSE™ 20000 2016-07-30 Dec Pend
The Lubrizol Corporation 10069 Sandaid™ 2016-07-30 Dec Pend
The Lubrizol Corporation 10070 LUBRIZOL® GR161A 2016-07-30 Dec Pend
The Lubrizol Corporation 10235 WCI 4729 2016-11-05 Dec Pend
The Lubrizol Corporation 10420 MUDCLEAR™ 70W 2016-12-31 Dec Pend
The Lubrizol Corporation 10421 MUDCLEAR™ 70 2016-12-31 Dec Pend
The Lubrizol Corporation 10438 LUBRIZOL® CVT10 2016-12-31 Dec Pend
The Lubrizol Corporation 10440 POWERZOL™ 9522C 2016-12-31 Dec Pend
The Lubrizol Corporation 10830 SANDAID™ HF 2017-01-28 Dec Pend
The QUIKRETE Companies, LLC 10116 Target Set Accelerator 2016-07-30 Dec Pend
Trican Well Service Ltd. 8743 S-9 2012-12-01 2014-08-02 2017-09-16
Trican Well Service Ltd. 8960 TXP-17 2013-09-14 2015-03-28 2018-05-12
Trican Well Service Ltd. 8964 TXP-18 2013-09-14 2015-03-28 2018-05-12
Trican Well Service Ltd. 8985 SS-5 2013-09-14 2015-03-28 2018-05-12
Trican Well Service Ltd. 9048 WXB-16 2014-01-25 2016-01-16 2019-03-01
Trican Well Service Ltd. 9071 Mudwash 2014-01-25 2015-10-24 2018-12-08
Trican Well Service Ltd. 9072 MWC-2 2014-01-25 2015-10-24 2018-12-08
Trican Well Service Ltd. 9292 FC-2 2014-11-22 2015-10-24 2018-12-08
Trican Well Service Ltd. 9338 SS-7 2015-01-31 2015-10-24 2018-12-08
Trican Well Service Ltd. 9393 AI-11 2015-04-25 2016-01-16 2019-03-01
Trican Well Service Ltd. 9794 PFC-2 2016-03-26 2016-11-12 2019-12-27
Trican Well Service Ltd. 10352 PFC-3 2016-11-05 Dec Pend
Trican Well Service Ltd. 10840 SS-9 2017-01-28 Dec Pend
Triton Cleaning Products 10347 Concrete Truck Wash 2016-11-05 Dec Pend
Univar Canada Ltd. 8648 Inflo 200 2012-09-22 2014-03-29 2017-05-13
Univar Canada Ltd. 9026 TOLONATE X FLO 100 2014-01-25 2015-07-25 2018-09-08
Univar Canada Ltd. 9239 ACRYSIRUP DR-460 2014-07-19 2016-01-16 2019-03-01
Univar Canada Ltd. 9240 ACRYSIRUP 3018 A&B 2014-07-19 2016-01-16 2019-03-01
Univar Canada Ltd. 9242 ACRYSIRUP TW-008 2014-07-19 2016-01-16 2019-03-01
Univar Canada Ltd. 9889 BASEMUL 2016-07-30 2016-12-17 2020-01-31
Univar Canada Ltd. 9890 VANFROTH 350 2016-07-30 2016-12-17 2020-01-31
Univar Canada Ltd. 9891 VANFROTH 820 2016-07-30 2016-12-17 2020-01-31
Univar Canada Ltd. 9892 VANFROTH 702 2016-07-30 2016-12-17 2020-01-31
Univar Canada Ltd. 9893 VANQUEST 100 2016-07-30 2017-01-28 Pending
UOP LLC 9577 UOP BENFIELD ACTIVATOR SOLUTION (ACT-1) 2015-11-07 Dec Pend
Valhalla Wood Preservatives Ltd. 9506 Lifetime Wood Treatment 2015-07-25 2016-11-12 2019-12-27
Vanderbilt Chemicals, LLC 9971 VANLUBE® 672 2016-07-30 Dec Pend
Wax Busters Ltd. 10646 WB-34 2016-12-31 Dec Pend
Weatherford 9004 PChem™ BS 648 2014-01-25 2015-03-28 2018-05-12
Weatherford 9005 PChem™ IS 48 2014-01-25 2015-03-28 2018-05-12
Weatherford 9090 PE 810 2014-01-25 2015-10-24 2018-12-08
Weatherford 9091 HGA-70 2014-01-25 2015-10-24 2018-12-08
Weatherford 9378 WSI 3308 2015-04-25 2016-01-16 2019-03-01
Weatherford 9379 WSP 2736 2015-04-25 2016-01-16 2019-03-01
WestRock MWV, LLC 9703 Altalub™ 5300 2016-01-23 2016-11-12 2019-12-27
Win Chemicals Ltd. 9233 CVS 2014-07-19 2016-01-16 2019-03-01
Win Chemicals Ltd. 9790 EGM 2016-03-26 Dec Pend
Win Manuco Ltd 9036 LFQ 2014-01-25 2015-10-24 2018-12-08
Win Manuco Ltd 9037 eQi 2014-01-25 2015-10-24 2018-12-08
Win Manuco Ltd 9207 ALB 2014-07-19 2015-03-28 2018-05-12
Win Manuco Ltd 9959 Stirmox E/L/M 2016-07-30 Dec Pend
Win Manuco Ltd 10890 QHD 2017-01-28 Dec Pend
Wood Wyant Inc. (a divison of Sani-Marc Group) 9484 VERT-2-GO BLUE FORCE 2015-07-25 2016-11-12 2019-12-27
Wood Wyant Inc. (a divison of Sani-Marc Group) 9485 VERT-2-GO SCRUB E-Z 2015-07-25 2016-11-12 2019-12-27
W-TECH Technologies Ltd. 8966 MD800 2013-09-14 2015-03-28 2018-05-12
W-TECH Technologies Ltd. 9214 ADDITIVE NCS 2014-07-19 2016-03-26 2019-05-10
Xypex Chemicals Corporation 9123 Xypex Concentrate 2014-04-26 2015-10-24 2018-12-08
Xypex Chemicals Corporation 9124 Xypex Modified 2014-04-26 2015-10-24 2018-12-08
Xypex Chemicals Corporation 9125 Xypex Patch'n Plug 2014-04-26 2015-10-24 2018-12-08
ZEC Lubrication Inc. 8902 AC-XL 2013-09-14 2015-03-28 2018-05-12